[[{"header":{"parameterUnit":"m.s-1","parameterCategory":1,"la1":30.6,"la2":28.766,"lo1":-90.7593,"lo2":-88.6598,"dy":0.0162,"dx":0.0183,"nx":116,"ny":114,"refTime":"2024-05-24T12:00:00:Z","depth":0,"parameterNumber":2,"parameterNumberName":"U-component_of_WINDS"},"data":[0.0,0.0,0.0,0.0,0.0,0.0,0.0,0.0,0.0,0.0,0.0,0.0,0.0,0.0,0.0,0.0,0.0,0.0,0.0,0.0,0.0,0.0,0.0,0.0,0.0,0.0,0.0,0.0,0.0,0.0,0.0,0.0,0.0,0.0,0.0,0.0,0.0,0.0,0.0,0.0,0.0,0.0,0.0,0.0,0.0,0.0,0.0,0.0,0.0,0.0,0.0,0.0,0.0,0.0,0.0,0.0,0.0,0.0,0.0,0.0,0.0,0.0,0.0,0.0,0.0,0.0,0.0,0.0,0.0,0.0,0.0,0.0,0.0,0.0,0.0,0.0,0.0,0.0,0.0,0.0,0.0,0.0,0.0,0.0,0.0,0.0,0.0,0.0,0.0,0.0,0.0,0.0,0.0,0.0,0.0,0.0,0.0,0.0,0.0,0.0,0.0,0.0,0.0,0.0,0.0,0.0,0.0,0.0,0.0,0.0,0.0,0.0,0.0,0.0,0.0,0.0,0.0,0.0,0.0,0.0,0.0,0.0,0.0,0.0,0.0,0.0,0.0,0.0,0.0,0.0,0.0,0.0,0.0,0.0,0.0,0.0,0.0,0.0,0.0,0.0,0.0,0.0,0.0,0.0,0.0,0.0,0.0,0.0,0.0,0.0,0.0,0.0,0.0,0.0,0.0,0.0,0.0,0.0,0.0,0.0,0.0,0.0,0.0,0.0,0.0,0.0,0.0,0.0,0.0,0.0,0.0,0.0,0.0,0.0,0.0,0.0,0.0,0.0,0.0,0.0,0.0,0.0,0.0,0.0,0.0,0.0,0.0,0.0,0.0,0.0,0.0,0.0,0.0,0.0,0.0,0.0,0.0,0.0,0.0,0.0,0.0,0.0,0.0,0.0,0.0,0.0,0.0,0.0,0.0,0.0,0.0,0.0,0.0,0.0,0.0,0.0,0.0,0.0,0.0,0.0,0.0,0.0,0.0,0.0,0.0,0.0,0.0,0.0,0.0,0.0,0.0,0.0,0.0,0.0,0.0,0.0,0.0,0.0,0.0,0.0,0.0,0.0,0.0,0.0,0.0,0.0,0.0,0.0,0.0,0.0,0.0,0.0,0.0,0.0,0.0,0.0,0.0,0.0,0.0,0.0,0.0,0.0,0.0,0.0,0.0,0.0,0.0,0.0,0.0,0.0,0.0,0.0,0.0,0.0,0.0,0.0,0.0,0.0,0.0,0.0,0.0,0.0,0.0,0.0,0.0,0.0,0.0,0.0,0.0,0.0,0.0,0.0,0.0,0.0,0.0,0.0,0.0,0.0,0.0,0.0,0.0,0.0,0.0,0.0,0.0,0.0,0.0,0.0,0.0,0.0,0.0,0.0,0.0,0.0,0.0,0.0,0.0,0.0,0.0,0.0,0.0,0.0,0.0,0.0,0.0,0.0,0.0,0.0,0.0,0.0,0.0,0.0,0.0,0.0,0.0,0.0,0.0,0.0,0.0,0.0,0.0,0.0,0.0,0.0,0.0,0.0,0.0,0.0,0.0,0.0,0.0,0.0,0.0,0.0,0.0,0.0,0.0,0.0,0.0,0.0,0.0,0.0,0.0,0.0,0.0,0.0,0.0,0.0,0.0,0.0,0.0,0.0,0.0,0.0,0.0,0.0,0.0,0.0,0.0,0.0,0.0,0.0,0.0,0.0,0.0,0.0,0.0,0.0,0.0,0.0,0.0,0.0,0.0,0.0,0.0,0.0,0.0,0.0,0.0,0.0,0.0,0.0,0.0,0.0,0.0,0.0,0.0,0.0,0.0,0.0,0.0,0.0,0.0,0.0,0.0,0.0,0.0,0.0,0.0,0.0,0.0,0.0,0.0,0.0,0.0,0.0,0.0,0.0,0.0,0.0,0.0,0.0,0.0,0.0,0.0,0.0,0.0,0.0,0.0,0.0,0.0,0.0,0.0,0.0,0.0,0.0,0.0,0.0,0.0,0.0,0.0,0.0,0.0,0.0,0.0,0.0,0.0,0.0,0.0,0.0,0.0,0.0,0.0,0.0,0.0,0.0,0.0,0.0,0.0,0.0,0.0,0.0,0.0,0.0,0.0,0.0,0.0,0.0,0.0,0.0,0.0,0.0,0.0,0.0,0.0,0.0,0.0,0.0,0.0,0.0,0.0,0.0,0.0,0.0,0.0,0.0,0.0,0.0,0.0,0.0,0.0,0.0,0.0,0.0,0.0,0.0,0.0,0.0,0.0,0.0,0.0,0.0,0.0,0.0,0.0,0.0,0.0,0.0,0.0,0.0,0.0,0.0,0.0,0.0,0.0,0.0,0.0,0.0,0.0,0.0,0.0,0.0,0.0,0.0,0.0,0.0,0.0,0.0,0.0,0.0,0.0,0.0,0.0,0.0,0.0,0.0,0.0,0.0,0.0,0.0,0.0,0.0,0.0,0.0,0.0,0.0,0.0,0.0,0.0,0.0,0.0,0.0,0.0,0.0,0.0,0.0,0.0,0.0,0.0,0.0,0.0,0.0,0.0,0.0,0.0,0.0,0.0,0.0,0.0,0.0,0.0,0.0,0.0,0.0,0.0,0.0,0.0,0.0,0.0,0.0,0.0,0.0,0.0,0.0,0.0,0.0,0.0,0.0,0.0,0.0,0.0,0.0,0.0,0.0,0.0,0.0,0.0,0.0,0.0,0.0,0.0,0.0,0.0,0.0,0.0,0.0,0.0,0.0,0.0,0.0,0.0,0.0,0.0,0.0,0.0,0.0,0.0,0.0,0.0,0.0,0.0,0.0,0.0,0.0,0.0,0.0,0.0,0.0,0.0,0.0,0.0,0.0,0.0,0.0,0.0,0.0,0.0,0.0,0.0,0.0,0.0,0.0,0.0,0.0,0.0,0.0,0.0,0.0,0.0,0.0,0.0,0.0,0.0,0.0,0.0,0.0,0.0,0.0,0.0,0.0,0.0,0.0,0.0,0.0,0.0,0.0,0.0,0.0,0.0,0.0,0.0,0.0,0.0,0.0,0.0,0.0,0.0,0.0,0.0,0.0,0.0,0.0,0.0,0.0,0.0,0.0,0.0,0.0,0.0,0.0,0.0,0.0,0.0,0.0,0.0,0.0,0.0,0.0,0.0,0.0,0.0,0.0,0.0,0.0,0.0,0.0,0.0,0.0,0.0,0.0,0.0,0.0,0.0,0.0,0.0,0.0,0.0,0.0,0.0,0.0,0.0,0.0,0.0,0.0,0.0,0.0,0.0,0.0,0.0,0.0,0.0,0.0,0.0,0.0,0.0,0.0,0.0,0.0,0.0,0.0,0.0,0.0,0.0,0.0,0.0,0.0,0.0,0.0,0.0,0.0,0.0,0.0,0.0,0.0,0.0,0.0,0.0,0.0,0.0,0.0,0.0,0.0,0.0,0.0,0.0,0.0,0.0,0.0,0.0,0.0,0.0,0.0,0.0,0.0,0.0,0.0,0.0,0.0,0.0,0.0,0.0,0.0,0.0,0.0,0.0,0.0,0.0,0.0,0.0,0.0,0.0,0.0,0.0,0.0,0.0,0.0,0.0,0.0,0.0,0.0,0.0,0.0,0.0,0.0,0.0,0.0,0.0,0.0,0.0,0.0,0.0,0.0,0.0,0.0,0.0,0.0,0.0,0.0,0.0,0.0,0.0,0.0,0.0,0.0,0.0,0.0,0.0,0.0,0.0,0.0,0.0,0.0,0.0,0.0,0.0,0.0,0.0,0.0,0.0,0.0,0.0,0.0,0.0,0.0,0.0,0.0,0.0,0.0,0.0,0.0,0.0,0.0,0.0,0.0,0.0,0.0,0.0,0.0,0.0,0.0,0.0,0.0,0.0,0.0,0.0,0.0,0.0,0.0,0.0,0.0,0.0,0.0,0.0,0.0,0.0,0.0,0.0,0.0,0.0,0.0,0.0,0.0,0.0,0.0,0.0,0.0,0.0,0.0,0.0,0.0,0.0,0.0,0.0,0.0,0.0,0.0,0.0,0.0,0.0,0.0,0.0,0.0,0.0,0.0,0.0,0.0,0.0,0.0,0.0,0.0,0.0,0.0,0.0,0.0,0.0,0.0,0.0,0.0,0.0,0.0,0.0,0.0,0.0,0.0,0.0,0.0,0.0,0.0,0.0,0.0,0.0,0.0,0.0,0.0,0.0,0.0,0.0,0.0,0.0,0.0,0.0,0.0,0.0,0.0,0.0,0.0,0.0,0.0,0.0,0.0,0.0,0.0,0.0,0.0,0.0,0.0,0.0,0.0,0.0,0.0,0.0,0.0,0.0,0.0,0.0,0.0,0.0,0.0,0.0,0.0,0.0,0.0,0.0,0.0,0.0,0.0,0.0,0.0,0.0,0.0,0.0,0.0,0.0,0.0,0.0,0.0,0.0,0.0,0.0,0.0,0.0,0.0,0.0,0.0,0.0,0.0,0.0,0.0,0.0,0.0,0.0,0.0,0.0,0.0,0.0,0.0,0.0,0.0,0.0,0.0,0.0,0.0,0.0,0.0,0.0,0.0,0.0,0.0,0.0,0.0,0.0,0.0,0.0,0.0,0.0,0.0,0.0,0.0,0.0,0.0,0.0,0.0,0.0,0.0,0.0,0.0,0.0,0.0,0.0,0.0,0.0,0.0,0.0,0.0,0.0,0.0,0.0,0.0,0.0,0.0,0.0,0.0,0.0,0.0,0.0,0.0,0.0,0.0,0.0,0.0,0.0,0.0,0.0,0.0,0.0,0.0,0.0,0.0,0.0,0.0,0.0,0.0,0.0,0.0,0.0,0.0,0.0,0.0,0.0,0.0,0.0,0.0,0.0,0.0,0.0,0.0,0.0,0.0,0.0,0.0,0.0,0.0,0.0,0.0,0.0,0.0,0.0,0.0,0.0,0.0,0.0,0.0,0.0,0.0,0.0,0.0,0.0,0.0,0.0,0.0,0.0,0.0,0.0,0.0,0.0,0.0,0.0,0.0,0.0,0.0,0.0,0.0,0.0,0.0,0.0,0.0,0.0,0.0,0.0,0.0,0.0,0.0,0.0,0.0,0.0,0.0,0.0,0.0,0.0,0.0,0.0,0.0,0.0,0.0,0.0,0.0,0.0,0.0,0.0,0.0,0.0,0.0,0.0,0.0,0.0,0.0,0.0,0.0,0.0,0.0,0.0,0.0,0.0,0.0,0.0,0.0,0.0,0.0,0.0,0.0,0.0,0.0,0.0,0.0,0.0,0.0,0.0,0.0,0.0,0.0,0.0,0.0,0.0,0.0,0.0,0.0,0.0,0.0,0.0,0.0,0.0,0.0,0.0,0.0,0.0,0.0,0.0,0.0,0.0,0.0,0.0,0.0,0.0,0.0,0.0,0.0,0.0,0.0,0.0,0.0,0.0,0.0,0.0,0.0,0.0,0.0,0.0,0.0,0.0,0.0,0.0,0.0,0.0,0.0,0.0,0.0,0.0,0.0,0.0,0.0,0.0,0.0,0.0,0.0,0.0,0.0,0.0,0.0,0.0,0.0,0.0,0.0,0.0,0.0,0.0,0.0,0.0,0.0,0.0,0.0,0.0,0.0,0.0,0.0,0.0,0.0,0.0,0.0,0.0,0.0,0.0,0.0,0.0,0.0,0.0,0.0,0.0,0.0,0.0,0.0,0.0,0.0,0.0,0.0,0.0,0.0,0.0,0.0,0.0,0.0,0.0,0.0,0.0,0.0,0.0,0.0,0.0,0.0,0.0,0.0,0.0,0.0,0.0,0.0,0.0,0.0,0.0,0.0,0.0,0.0,0.0,0.0,0.0,0.0,0.0,0.0,0.0,0.0,0.0,0.0,0.0,0.0,0.0,0.0,0.0,0.0,0.0,0.0,0.0,0.0,0.0,0.0,0.0,0.0,0.0,0.0,0.0,0.0,0.0,0.0,0.0,0.0,0.0,0.0,0.0,0.0,0.0,0.0,0.0,0.0,0.0,0.0,0.0,0.0,0.0,0.0,0.0,0.0,0.0,0.0,0.0,0.0,0.0,0.0,0.0,0.0,0.0,0.0,0.0,0.0,0.0,0.0,0.0,0.0,0.0,0.0,0.0,0.0,0.0,0.0,1.7417,0.0,0.0,0.0,0.0,0.0,0.0,0.0,0.0,0.0,0.0,0.0,0.0,0.0,0.0,0.0,0.0,0.0,0.0,0.0,0.0,0.0,0.0,0.0,0.0,0.9227,0.9447,0.9761,0.9605,0.9602,0.9882,0.0,0.0,0.0,0.0,0.0,0.9686,0.9319,0.8245,0.6401,0.5711,0.3908,0.1059,0.1614,0.2321,0.3156,0.0,0.0,0.0,0.0,0.0,0.0,0.0,0.0,0.0,0.0,0.0,0.0,0.0,0.0,0.0,0.0,0.0,0.0,0.0,0.0,0.0,0.0,0.0,0.0,0.0,0.0,0.0,0.0,0.0,0.0,0.0,0.0,0.0,0.0,0.0,0.0,0.0,0.0,0.0,0.0,0.0,0.0,0.0,0.0,0.0,0.0,0.0,0.0,0.0,0.0,0.0,0.0,0.0,0.0,0.0,0.0,0.0,0.0,0.0,0.0,0.0,0.0,0.0,0.0,0.0,0.0,0.0,0.0,0.0,0.0,0.0,1.9156,0.0,0.0,0.0,0.0,0.0,0.0,0.0,0.0,0.0,0.0,0.0,0.0,0.0,0.0,0.0,0.0,0.0,0.0,0.0,0.0,0.0,0.8935,0.8941,0.876,0.8897,0.9552,0.8992,0.8889,0.9529,0.9505,0.0,0.0,0.0,0.9173,0.8789,0.8181,0.6577,0.3943,0.3032,0.0794,-0.2693,-0.3759,-0.2995,-0.0638,0.1459,0.0,0.0,0.0,0.0,0.0,0.0,0.0,0.0,0.0,0.0,0.0,0.0,0.0,0.0,0.0,0.0,0.0,0.0,0.0,0.0,0.0,0.0,0.0,0.0,0.0,0.0,0.0,0.0,0.0,0.0,0.0,0.0,0.0,0.0,0.0,0.0,0.0,0.0,0.0,0.0,0.0,0.0,0.0,0.0,0.0,0.0,0.0,0.0,0.0,0.0,0.0,0.0,0.0,0.0,0.0,0.0,0.0,0.0,0.0,0.0,0.0,0.0,0.0,0.0,2.4007,2.6018,2.5284,2.5746,2.6909,2.3357,2.2075,2.2335,0.0,0.0,0.0,0.0,0.0,0.0,0.0,0.0,0.0,0.0,0.0,0.0,0.0,0.0,0.0,0.0,0.0,0.0,0.0,0.0,0.7898,0.7898,0.7923,0.8065,0.8392,0.8061,0.7965,0.8245,0.7982,0.0,0.0,0.6788,0.5898,0.3973,0.2785,0.1505,0.0123,-0.3304,-0.5327,-0.6089,-0.8263,-0.9087,-0.8585,-0.4638,-0.295,-0.3019,0.0,0.0,0.0,0.0,0.0,0.0,0.0,0.0,0.0,0.0,0.0,0.0,0.0,0.0,0.0,0.0,0.0,0.0,0.0,0.0,0.0,0.0,0.0,0.0,0.0,0.0,0.0,0.0,0.0,0.0,0.0,0.0,0.0,0.0,0.0,0.0,0.0,0.0,0.0,0.0,0.0,1.446,1.4564,0.0,0.0,0.0,0.0,0.0,0.0,0.0,0.0,0.0,0.0,0.0,0.0,0.0,0.0,2.3706,2.5278,2.6178,2.6411,2.6996,2.7459,2.7763,2.7647,2.7718,2.7906,2.7336,0.0,2.5032,2.41,0.0,0.0,0.0,0.0,0.0,0.0,0.0,0.0,0.0,0.0,0.0,0.0,0.0,0.0,0.0,0.0,0.0,0.0,0.0,0.0,0.0,0.7141,0.6769,0.6855,0.6517,0.6424,0.6685,0.6642,0.661,0.663,0.5159,0.3081,0.0416,-0.019,-0.1875,-0.4752,-0.8278,-1.0203,-1.0606,-1.1155,-1.1569,-1.1736,-0.9391,-0.7657,-0.642,-0.4593,0.0,0.0,0.0,0.0,0.0,0.0,0.0,0.0,0.0,0.0,0.0,0.0,0.0,0.0,0.0,0.0,0.0,0.0,0.0,0.0,0.0,0.0,0.0,0.0,0.0,0.0,0.0,0.0,0.0,0.0,0.0,0.0,0.0,0.0,0.0,0.0,0.0,0.0,0.0,1.4008,1.5735,1.5736,1.6711,1.6739,0.0,0.0,0.0,0.0,0.0,0.0,0.0,0.0,0.0,2.455,2.5028,2.5636,2.6476,2.7682,2.8546,2.9051,2.9881,3.0547,3.102,3.102,3.102,3.102,3.1028,3.0345,2.9079,2.6757,2.5386,2.4626,0.0,0.0,0.0,0.0,0.0,2.3422,0.0,0.0,0.0,0.0,0.0,0.0,0.0,0.0,0.0,0.0,0.0,0.0,0.6391,0.5827,0.5357,0.5346,0.5039,0.5051,0.5554,0.5377,0.5115,0.4869,0.2821,0.0132,-0.3221,-0.4194,-0.6331,-0.9738,-1.2437,-1.3903,-1.4225,-1.3893,-1.3834,-1.3974,-1.3408,-1.1795,-0.931,-0.7165,-0.5845,-0.5046,0.0,0.0,0.0,0.0,0.0,0.0,0.0,0.0,0.0,0.0,0.0,0.0,0.0,0.0,0.0,0.0,0.0,0.0,0.0,0.0,0.0,0.0,0.0,0.0,0.0,0.0,0.0,0.0,0.0,0.0,0.0,0.0,0.0,0.0,0.0,0.0,0.0,1.5142,1.6937,1.7256,1.8461,1.8592,0.0,0.0,0.0,0.0,0.0,0.0,2.3844,2.4175,2.5294,2.7473,2.7765,2.8279,2.9091,2.9972,3.0723,3.1365,3.2026,3.2675,3.3297,3.3297,3.3297,3.3297,3.3307,3.2973,3.2215,2.9384,2.8005,2.7537,2.6239,2.6,2.6371,2.6342,2.626,2.6351,0.0,0.0,0.0,0.0,0.0,0.0,0.0,0.0,0.0,0.0,0.0,0.122,0.2793,0.3518,0.3948,0.4068,0.3946,0.4277,0.527,0.4141,0.2197,-0.0585,-0.107,-0.326,-0.7497,-1.097,-1.3277,-1.4475,-1.5699,-1.6179,-1.5982,-1.6996,-1.7164,-1.6701,-1.6857,-1.4995,-1.1679,-1.0578,-0.9979,-0.9545,-0.6926,0.0,0.0,0.0,0.0,0.0,0.0,0.0,0.0,0.0,0.0,0.0,0.0,0.0,0.0,0.0,0.0,0.0,0.0,0.0,0.0,0.0,0.0,0.0,0.0,0.0,0.0,0.0,0.0,0.0,0.0,0.0,0.0,0.0,0.0,0.0,0.0,0.0,0.0,1.9855,2.0144,0.0,0.0,0.0,0.0,2.1604,2.3667,2.5322,2.6352,2.7311,2.8281,2.9244,3.0081,3.0923,3.179,3.2672,3.3142,3.3166,3.3205,3.3267,3.3302,3.3302,3.3302,3.3302,3.3302,3.3314,3.3262,3.2246,3.0897,2.9457,2.9379,2.8869,2.8162,2.8108,2.8037,2.7984,0.0,0.0,0.0,0.0,0.0,-0.7374,-0.6341,-0.4663,-0.3799,-0.4606,-0.3742,-0.5305,-1.1273,-0.8093,-0.5841,-0.6614,-0.5156,-0.4111,-0.398,-0.332,-0.3369,-0.4349,-0.5676,-0.8559,-1.3194,-1.4867,-1.6346,-1.7758,-1.7913,-1.8082,-1.8271,-1.7824,-1.7368,-1.687,-1.6373,-1.5348,-1.3911,-1.2936,-1.2101,-1.1242,-0.894,-0.7588,0.0,0.0,0.0,0.0,0.0,0.0,0.0,0.0,0.0,0.0,0.0,0.0,0.0,0.0,0.0,0.0,0.0,0.0,0.0,0.0,0.0,0.0,0.0,0.0,0.0,0.0,0.0,0.0,0.0,0.0,0.0,0.0,0.0,0.0,0.0,0.0,0.0,2.0975,2.1962,0.0,0.0,2.2826,2.3565,2.4165,2.573,2.7309,2.8844,2.9464,3.0436,3.186,3.2205,3.2525,3.2822,3.3698,3.4135,3.4147,3.471,3.497,3.4979,3.4979,3.4949,3.49,3.4959,3.4961,3.4931,3.4697,3.36,3.2051,3.2051,3.1822,3.1504,3.1486,3.1398,3.1263,0.0,0.0,0.0,0.0,-0.8415,-0.754,-0.6462,-0.5489,-0.5138,-0.5911,-0.6352,-0.9048,-1.555,-1.2247,-1.0298,-1.2037,-1.0578,-0.9669,-0.9989,-1.0513,-0.9724,-0.7351,-0.9737,-1.2769,-1.6289,-1.7261,-1.8291,-1.9451,-1.9295,-1.9273,-1.9347,-1.8574,-1.784,-1.7259,-1.6731,-1.6232,-1.5708,-1.4959,-1.3997,-1.2819,-1.1355,-1.0211,-0.9192,0.0,0.0,0.0,0.0,0.0,0.0,0.0,0.0,0.0,0.0,0.0,0.0,0.0,0.0,0.0,0.0,0.0,0.0,0.0,0.0,0.0,0.0,0.0,0.0,0.0,0.0,0.0,0.0,0.0,0.0,0.0,0.0,0.0,0.0,0.0,2.0083,2.1394,2.2491,2.3234,2.3408,2.4304,2.5237,2.608,2.7587,2.9144,3.0648,3.1244,3.2205,3.363,3.3677,3.3852,3.4134,3.474,3.5048,3.5087,3.5634,3.5911,3.5935,3.5918,3.5877,3.5829,3.5821,3.5832,3.5838,3.5935,3.5291,3.4218,3.3926,3.3594,3.3287,3.3226,3.3098,3.3015,0.0,0.0,0.0,-0.9179,-0.9528,-0.975,-0.9891,-0.9977,-0.9571,-0.8366,-0.9208,-0.9753,-0.9245,-0.826,-0.8691,-1.1345,-1.1506,-1.157,-1.181,-1.6408,-1.6218,-0.9731,-1.3164,-1.568,-1.6613,-1.8346,-1.934,-1.9546,-1.9863,-1.9705,-1.9139,-1.9228,-1.8822,-1.8028,-1.8226,-1.7814,-1.6993,-1.6685,-1.5734,-1.4495,-1.4221,-1.313,-1.1594,0.0,0.0,0.0,0.0,0.0,0.0,0.0,0.0,0.0,0.0,0.0,0.0,0.0,0.0,0.0,0.0,0.0,0.0,0.0,0.0,0.0,0.0,0.0,0.0,0.0,0.0,0.0,0.0,0.0,0.0,0.0,0.0,0.0,1.6014,1.7664,1.9449,2.1222,2.1734,2.2317,2.3273,2.4216,2.5512,2.7318,2.9307,3.0846,3.1768,3.2731,3.3606,3.442,3.4496,3.495,3.5794,3.5861,3.5935,3.5995,3.5937,3.5933,3.5991,3.5929,3.5883,3.5883,3.5753,3.576,3.5883,3.5883,3.5889,3.5811,3.4968,3.413,3.3348,3.316,3.3082,3.3062,0.0,0.0,-0.9002,-0.9199,-0.953,-0.936,-0.8162,-0.806,-0.8165,-0.8194,-0.9696,-1.2039,-1.5355,-1.4168,-1.3684,-1.5048,-1.3668,-1.2732,-1.2811,-1.2819,-1.2807,-1.279,-1.6274,-1.8728,-1.9807,-1.9953,-2.0199,-2.0575,-2.0436,-2.017,-1.9741,-1.9325,-1.8822,-1.8226,-1.8108,-1.7868,-1.7503,-1.7407,-1.6998,-1.6292,-1.4892,-1.3993,-1.331,0.0,0.0,0.0,0.0,0.0,0.0,0.0,0.0,0.0,0.0,0.0,0.0,0.0,0.0,0.0,0.0,0.0,0.0,0.0,0.0,0.0,0.0,0.0,0.0,0.0,0.0,0.0,0.0,0.0,0.0,0.0,0.0,1.4722,1.7099,1.8975,2.0628,2.1958,2.2765,2.3634,2.4804,2.5869,2.6961,2.8037,3.0025,3.1591,3.2477,3.3511,3.4468,3.533,3.5366,3.5524,3.586,3.5896,3.5932,3.6005,3.5926,3.5903,3.5929,3.5807,3.5721,3.5679,3.5676,3.5696,3.5679,3.5729,3.5753,3.5741,3.5599,3.53,3.4962,3.4912,3.4855,3.4815,0.0,-0.8869,-0.9201,-0.9201,-0.9482,-0.9395,-0.8434,-0.8305,-0.8708,-0.9774,-1.1462,-1.3093,-1.4507,-1.4235,-1.3278,-1.1558,-1.1092,-1.0718,-1.0351,-1.1274,-1.3201,-1.6231,-1.8682,-2.0362,-2.1109,-2.1014,-2.1084,-2.1339,-2.1007,-2.0581,-2.0135,-1.9767,-1.9244,-1.8553,-1.85,-1.8279,-1.7895,-1.7962,-1.776,-1.7366,-1.6245,-1.5404,-1.4648,-1.338,-1.2988,-1.2862,-1.1138,-1.0799,-1.0899,-0.9164,0.0,0.0,0.0,0.0,0.0,0.0,0.0,0.0,0.0,0.0,0.0,0.0,0.0,0.0,0.0,0.0,0.0,0.0,0.0,0.0,0.0,0.0,0.0,0.0,1.1716,1.3581,1.5344,1.7638,1.9538,2.063,2.1594,2.2651,2.3812,2.5347,2.6559,2.7252,2.9351,3.111,3.2361,3.3317,3.4378,3.5669,3.569,3.574,3.582,3.5864,3.6026,3.6289,3.6372,3.6515,3.674,3.6726,3.6452,0.0,3.6079,3.5867,3.5481,3.5621,3.5611,0.0,0.0,0.0,0.0,0.0,3.5534,3.5493,0.0,-0.8964,-0.9191,-0.9181,-0.9403,-0.9617,-0.974,-0.9675,-1.0239,-1.2049,-1.357,-1.3334,-1.0357,-1.1231,-1.0157,-0.5529,-0.6817,-0.764,-0.7141,-1.1642,-1.5849,-1.9261,-2.0371,-2.1068,-2.1358,-2.1754,-2.1869,-2.1751,-2.1432,-2.0959,-2.0261,-2.028,-1.9808,-1.8974,-1.9064,-1.8836,-1.8307,-1.8358,-1.8187,-1.7868,-1.7868,-1.7021,-1.5708,-1.5338,-1.4832,-1.4209,-1.3682,-1.2965,-1.2153,-1.0945,0.0,0.0,0.0,0.0,0.0,0.0,0.0,0.0,0.0,0.0,0.0,0.0,0.0,0.0,0.0,0.0,0.0,0.0,0.0,0.0,0.0,0.0,0.0,0.0,1.0219,1.183,1.197,1.4332,1.6536,1.7829,1.8872,1.9927,2.0961,2.2952,2.4537,2.5336,2.7549,2.9736,3.1799,0.0,0.0,0.0,0.0,3.5818,3.5857,3.605,3.6395,3.6867,3.7084,3.7441,3.7919,3.799,3.7539,3.6709,3.6752,3.6296,3.5542,3.5721,3.5689,3.5523,3.5553,3.5543,3.555,3.5482,3.5479,0.0,0.0,-0.8919,-0.9109,-0.9046,-0.9258,-0.9461,-0.9555,-0.958,-1.0238,-1.199,-1.3095,-1.3462,-1.2829,-1.2013,-1.135,-1.0926,-0.9644,-0.9745,-1.189,-1.482,-1.7203,-1.8798,-2.0675,-2.1917,-2.2409,-2.2292,-2.1945,-2.1401,-2.1339,-2.0878,-2.0045,-2.01,-1.9874,-1.9384,-1.9258,-1.9161,-1.9078,-1.8822,-1.8592,-1.8344,-1.8344,-1.7733,-1.6727,-1.6515,-1.6526,-1.6512,-1.548,-1.5558,-1.5866,-1.4006,-1.2955,-1.2127,-1.059,0.0,0.0,0.0,0.0,0.0,0.0,0.0,0.0,0.0,0.0,0.0,0.0,0.0,0.0,0.0,0.0,0.0,0.0,0.0,0.0,0.7263,0.8777,0.968,0.9503,0.999,1.1524,1.4629,1.542,1.6028,1.7017,1.8352,2.0213,2.2972,2.4887,2.764,3.1685,3.26,0.0,3.5635,3.6225,3.6581,3.6757,3.7364,3.7751,3.7906,0.0,0.0,3.7957,3.7615,3.7432,3.7403,3.7243,3.7072,3.692,3.6958,3.6958,3.6806,3.5703,3.5285,3.5285,3.5273,3.5258,3.5258,-0.8669,-0.8891,-0.9035,-0.8953,-0.9109,-0.9313,-0.9482,-0.9437,-0.9905,-1.1323,-1.2547,-1.3051,-1.2363,-1.2036,-1.1504,-1.0672,-1.0545,-1.2064,-1.5756,-1.7538,-1.8936,-2.0062,-2.1512,-2.2341,-2.246,-2.231,-2.1991,-2.1509,-2.1509,-2.1135,-2.0392,-2.041,-2.0154,-1.966,-1.9536,-1.9479,-1.9398,-1.9139,-1.9026,-1.8936,-1.8822,-1.8291,-1.7504,-1.7229,-1.7325,-1.745,-1.6697,-1.6568,-1.6634,-1.5396,-1.4327,-1.3387,-1.2588,-1.1562,-1.036,0.0,0.0,0.0,0.0,0.0,0.0,0.0,0.0,0.0,0.0,0.0,0.0,0.0,0.0,0.0439,0.0,0.0,0.382,0.525,0.658,0.7288,0.692,0.6978,0.8378,1.1904,1.2773,1.3648,1.5095,1.6259,1.7636,1.9247,2.0381,2.3364,2.8801,2.9828,3.2115,3.6173,3.6977,3.7391,3.7498,3.783,3.8122,3.8389,3.8435,3.8536,3.8709,3.8668,3.8379,3.7921,3.8019,3.7771,3.7351,3.7289,3.7312,3.7317,3.6443,3.616,3.6235,3.6235,3.6309,3.6379,-0.8657,-0.8846,-0.8959,-0.8908,-0.9007,-0.9174,-0.9385,-0.9303,-0.9578,-1.0622,-1.1856,-1.2162,-1.0929,-1.1367,-1.11,-0.9472,-1.1413,-1.4483,-1.8572,-1.956,-2.0521,-2.1678,-2.2358,-2.2525,-2.2214,-2.2214,-2.2007,-2.1587,-2.1587,-2.1293,-2.0695,-2.0728,-2.0444,-1.9909,-1.9874,-1.9767,-1.9566,-1.9362,-1.9339,-1.9376,-1.9176,-1.8769,-1.8185,-1.7868,-1.7747,-1.7747,-1.7529,-1.704,-1.6464,-1.6176,-1.518,-1.4047,-1.3972,-1.3437,-1.2524,-1.11,-1.0276,0.0,0.0,0.0,0.0,0.0,0.0,0.0,0.0,0.0,-0.3251,-0.2297,-0.2085,-0.1832,-0.0881,0.0242,0.1443,0.2654,0.3823,0.4384,0.3828,0.3921,0.5061,0.8068,0.9477,1.0704,1.2069,1.3053,1.37,1.3781,1.4807,1.839,2.51,2.6769,3.0416,3.6833,3.7732,3.812,3.8127,3.8157,3.8419,3.8892,3.9088,3.928,3.9457,3.9709,3.9328,3.8437,3.8807,3.8469,3.7737,3.7672,3.774,3.7845,3.7562,3.7539,3.764,3.7341,3.7354,3.7452,0.0,-0.876,-0.8829,-0.8891,-0.9013,-0.9102,-0.9146,-0.9169,-0.9547,-1.0494,-1.0817,-1.0649,-0.9766,-0.9759,-1.027,-1.1445,-1.4101,-1.6848,-1.9491,-2.0308,-2.1255,-2.2522,-2.2634,-2.2525,-2.2214,-2.2214,-2.189,-2.1261,-2.1261,-2.0942,-2.0373,-2.046,-2.0426,-2.0235,-2.0115,-2.001,-1.9935,-1.9487,-1.9339,-1.9376,-1.9176,-1.8936,-1.8731,-1.8669,-1.8305,-1.7841,-1.8228,-1.7699,-1.6849,-1.7016,-1.6312,-1.5325,-1.5056,-1.4582,-1.384,-1.2141,0.0,-1.0192,-0.9265,-0.8444,-0.7728,-0.7111,-0.5944,-0.4799,0.0,0.0,-0.2746,-0.2501,-0.2436,-0.2168,-0.1312,-0.1009,-0.0645,0.0137,0.0345,0.0211,-0.0595,-0.0676,-0.0227,0.0767,0.3459,0.5005,0.4382,0.4449,0.4729,0.5142,0.8331,1.3829,2.2028,2.5683,3.0595,3.7309,3.817,3.8539,3.8531,3.8933,3.9399,3.9928,3.9602,3.9505,3.9576,3.9313,3.9231,3.9276,3.9382,3.9239,3.8931,3.9146,3.9269,3.9269,3.9095,3.907,3.8908,3.7544,3.7047,3.7051,0.0,-0.8693,-0.8729,-0.8681,-0.8869,-0.9063,-0.9092,-0.9133,-0.9337,-0.983,-1.0335,-1.052,-1.0239,-1.0163,-1.0596,-1.1744,-1.3665,-1.5975,-1.8766,-1.997,-2.1132,-2.2419,-2.246,-2.2377,-2.2214,-2.2106,-2.184,-2.137,-2.1182,-2.0893,-2.0509,-2.0441,-2.0373,-2.0304,-2.0235,-2.02,-2.0131,-1.9654,-1.942,-1.9435,-1.9064,-1.8836,-1.8736,-1.8736,-1.8317,-1.765,-1.7611,-1.7279,0.0,0.0,-1.6047,-1.5922,-1.5765,-1.5482,-1.4898,-1.362,-1.2825,0.0,-1.052,-0.9673,-0.9051,0.0,-0.7909,-0.7469,-0.701,-0.6621,-0.6242,-0.5691,-0.5333,-0.502,-0.472,-0.3769,-0.2913,0.0,-0.1973,-0.1723,-0.2652,-0.2858,-0.277,-0.228,-0.1789,-0.0816,0.0914,0.038,0.0,0.0146,0.1614,0.4438,0.8719,1.7704,2.3408,2.5034,3.4374,3.8141,3.5594,3.7939,3.896,3.8655,3.9014,3.9125,3.9008,3.8961,3.899,3.9063,3.9144,3.9261,3.935,3.9376,3.9401,3.9401,3.9427,3.9272,3.8999,3.8428,3.8321,3.8426,0.0,-0.853,-0.8554,-0.8454,-0.8681,-0.8891,-0.8974,-0.905,-0.9161,-0.93,-0.9844,-1.0222,-1.0255,-1.0222,-1.0589,-1.1629,-1.2767,-1.4703,-1.7708,-1.9078,-2.0445,-2.1921,-2.2006,-2.2079,-2.2214,-2.2106,-2.1899,-2.157,-2.1229,-2.0926,-2.0711,-2.0441,-2.0304,-2.0304,-2.0304,-2.0304,-2.027,-1.9747,-1.9479,-1.9457,-1.9011,-1.8798,-1.8798,-1.8589,-1.8209,-1.7664,-1.7226,-1.6855,0.0,0.0,-1.5537,-1.5878,-1.5763,-1.5633,-1.5484,-1.4814,-1.438,-1.3622,-1.1669,0.0,0.0,-1.0041,-0.9868,-0.9792,-0.9455,-0.9343,-0.9098,-0.8516,-0.808,-0.7823,-0.7733,-0.6546,-0.5579,-0.553,-0.4706,-0.4352,-0.5121,-0.5339,-0.5338,-0.5078,-0.638,-0.6321,-0.3784,-0.3723,-0.4173,-0.5078,-0.4141,-0.3044,-0.1955,0.8237,1.4721,1.6249,2.7492,3.343,3.3231,3.5847,3.7298,3.7594,3.7931,3.8272,3.8615,3.8718,3.87,3.8658,3.8868,3.9109,3.9253,3.9227,3.9227,3.9227,3.9287,3.9192,3.9036,3.9073,3.9219,3.9376,0.0,0.0,-0.8306,-0.8306,-0.8422,-0.8559,-0.8691,-0.8925,-0.9109,-0.9109,-0.9188,-0.9219,-0.9143,-0.9147,-0.9776,-1.1374,-1.2137,-1.3796,-1.6752,-1.7696,-1.9104,-2.1136,-2.1237,-2.1539,-2.2197,-2.2214,-2.2036,-2.1694,-2.1371,-2.1071,-2.0794,-2.0475,-2.0304,-2.0304,-2.0304,-2.0304,-2.027,-1.9747,-1.9479,-1.9457,-1.9011,-1.8912,-1.9043,-1.8383,-1.805,-1.7928,-1.7664,0.0,0.0,-1.5244,-1.5119,-1.505,-1.4592,-1.4846,0.0,-1.5442,-1.5241,-1.4552,-1.2721,0.0,-1.3109,-1.2208,-1.1492,-1.1012,-1.1152,-1.0439,-0.9797,-0.9939,-0.9939,-0.9685,-0.9052,-0.8924,-0.875,-0.8523,-0.8454,-0.8603,-0.903,-0.8827,-0.8621,-0.8621,-1.0178,-1.1361,0.0,-0.9062,-0.8719,-1.1919,-0.8486,-0.6018,-0.5672,-0.1427,0.5845,1.6441,1.7246,2.2424,3.2714,3.2595,3.4229,3.7612,3.6376,3.6783,3.8585,3.8615,3.8446,3.8241,3.877,3.8857,3.8646,3.8915,3.9008,3.898,3.8857,3.9017,3.9272,3.9156,3.9101,3.9129,0.0,0.0,0.0,-0.8109,-0.8243,-0.8383,-0.8422,-0.8655,-0.8869,-0.8964,-0.9095,0.0,0.0,0.0,0.0,0.0,-1.1723,-1.3302,-1.5506,-1.7055,-1.8484,-1.9816,-2.073,-2.1312,-2.1539,-2.1973,-2.2094,-2.1899,-2.1448,-2.1119,-2.0926,-2.0494,-2.0304,-2.0304,-2.0304,-2.0304,-2.027,-1.969,-1.9435,-1.9362,-1.8851,-1.8659,-1.8669,-1.847,-1.764,-1.6646,0.0,0.0,-1.5015,-1.4485,-1.4578,-1.4948,-1.5182,0.0,0.0,-1.5465,-1.5196,-1.4734,-1.4176,0.0,-1.3739,-1.2887,-1.2487,-1.2406,-1.2677,-1.2502,-1.2101,-1.1473,-1.1375,-1.1114,-1.0258,-0.9972,-1.0039,-1.0261,-1.0244,-1.0272,-1.0787,-1.0925,-1.061,-0.958,-1.1491,0.0,0.0,0.0,0.0,-1.4458,-1.3153,-1.3901,-1.7726,-0.9143,-0.4137,-0.4161,0.9468,1.9321,2.466,2.9748,3.2609,3.316,3.4723,3.5939,3.6917,3.6917,3.7214,3.7756,3.7928,3.8227,3.8615,3.8688,3.873,3.873,3.8886,3.8847,3.8737,3.8865,3.8855,3.8881,0.0,0.0,0.0,0.0,0.0,0.0,0.0,0.0,0.0,0.0,0.0,0.0,0.0,0.0,0.0,0.0,0.0,-1.2422,-1.431,-1.5654,-1.6946,-1.8249,-1.9182,-1.9779,-2.0059,-2.0475,-2.0752,-2.0962,-2.0463,-2.0372,-2.0702,-2.0269,-2.0159,-2.0304,-2.0304,-2.0304,-2.027,-1.9762,-1.9472,-1.9325,-1.8607,-1.8333,-1.8248,-1.7618,-1.6746,0.0,0.0,-1.437,-1.3841,-1.3375,-1.3783,-1.4541,-1.484,-1.5399,-1.5937,-1.5783,-1.583,-1.5855,-1.5402,-1.5275,-1.5065,-1.4213,-1.4061,-1.4121,-1.393,-1.3698,-1.3355,-1.2471,-1.234,-1.2207,-1.1592,-1.1222,-1.1294,-1.2077,-1.1971,-1.2011,-1.2828,-1.2891,-1.2466,-1.1481,-1.3013,0.0,0.0,0.0,0.0,-1.6062,-1.6208,-1.8621,-2.418,-1.7234,-1.3631,-1.4768,-0.159,1.0385,2.0466,2.5576,2.8826,3.022,3.3469,3.5043,3.5093,3.5762,3.6441,3.7023,3.736,3.7703,3.8013,3.8332,3.8364,3.8231,3.8579,3.8628,3.8491,3.8658,3.8737,3.8773,0.0,0.0,0.0,0.0,0.0,0.0,0.0,0.0,0.0,0.0,0.0,0.0,0.0,0.0,0.0,0.0,0.0,0.0,-1.3124,-1.357,-1.4623,-1.6465,-1.6768,-1.7223,-1.7907,-1.7915,-1.8268,-1.9024,-1.8568,-1.8931,-2.0067,-1.9749,-1.9828,-2.0196,-2.0196,-2.0196,-2.0196,-1.9838,-1.9519,-1.917,-1.8252,-1.7849,-1.7669,-1.5997,-1.5374,-1.5168,0.0,0.0,-1.2277,-1.2159,0.0,0.0,0.0,0.0,-1.7136,-1.6455,-1.7076,-1.7696,-1.6385,-1.6646,-1.7119,-1.6051,-1.6046,-1.6016,-1.4845,-1.4255,-1.3732,-1.3018,-1.3017,-1.3086,0.0,0.0,-1.2573,-1.3879,-1.3599,-1.3696,-1.4951,-1.4583,-1.4231,0.0,0.0,0.0,0.0,0.0,0.0,-1.7097,0.0,-2.0131,-2.4983,-2.53,-2.2376,-1.5894,-1.5114,-0.37,1.9505,2.0301,2.337,2.8865,3.2541,3.3909,3.3216,3.5093,3.5967,3.6069,3.6985,3.719,3.6939,3.781,3.788,3.7542,3.802,3.8354,3.8585,3.8585,3.8658,3.8789,0.0,0.0,0.0,0.0,0.0,0.0,0.0,0.0,0.0,0.0,0.0,0.0,0.0,0.0,0.0,0.0,0.0,0.0,-1.1041,-1.2603,-1.3768,-1.4367,-1.5916,-1.6821,-1.6944,-1.754,-1.7884,-1.7983,-1.7649,-1.7808,-1.8415,-1.8171,-1.8402,-1.9014,-1.881,-1.8841,-1.8983,-1.8293,-1.7726,-1.7184,-1.6546,-1.6018,-1.5552,-1.5134,-1.4573,-1.3923,0.0,0.0,0.0,0.0,0.0,0.0,0.0,-1.6341,-1.6903,0.0,0.0,-1.7805,-1.752,-1.7664,-1.7736,-1.7027,-1.6881,-1.6658,-1.5665,-1.5601,-1.5151,-1.3138,-1.3691,-1.4012,0.0,0.0,0.0,-1.3672,-1.3853,0.0,-1.5204,-1.5558,0.0,-1.541,0.0,-1.6597,-1.6775,-1.7927,0.0,0.0,-1.9788,-2.1572,-2.5826,-2.667,-2.7308,-2.7884,-1.9387,-0.7638,0.7242,1.5787,2.2928,2.8803,2.9791,3.1147,3.2694,3.3176,3.4023,3.5103,3.5718,3.6121,3.6394,3.7285,3.7596,3.7542,3.802,3.8241,3.8289,3.8289,3.8322,3.8401,0.0,0.0,0.0,0.0,0.0,0.0,0.0,0.0,0.0,0.0,0.0,0.0,0.0,0.0,0.0,0.0,0.0,0.0,0.0,-1.1326,-1.2301,-1.2997,-1.4178,-1.4959,-1.5223,-1.5646,-1.5978,-1.6236,-1.6032,-1.6298,-1.7055,-1.6953,-1.7205,-1.7663,-1.7564,-1.7579,-1.7608,-1.7061,-1.6576,0.0,0.0,-1.4819,-1.4375,-1.3999,-1.3532,0.0,0.0,0.0,0.0,0.0,0.0,-1.6655,-1.7287,-1.76,-1.7799,-1.8135,0.0,-1.8541,-1.8201,-1.8294,-1.8375,-1.7765,-1.7433,-1.6981,-1.5924,-1.5549,-1.4985,-1.3342,-1.3695,0.0,-1.2866,0.0,0.0,0.0,0.0,0.0,-1.5946,-1.6496,-1.6702,0.0,-1.7472,0.0,-1.7558,-1.9796,-2.1308,0.0,-2.1005,-2.2603,-2.6518,-2.734,-2.947,-3.3379,-2.1737,-0.8076,0.73,1.5449,2.2074,2.7183,2.8056,2.969,3.1834,3.2321,3.3187,3.4414,0.0,3.5442,3.5925,3.6614,3.7041,3.7283,3.7721,3.802,3.8192,3.8192,3.8192,3.8241,0.0,0.0,0.0,0.0,0.0,0.0,0.0,0.0,0.0,0.0,0.0,0.0,0.0,0.0,0.0,0.0,0.0,0.0,0.0,0.0,0.0,-1.1942,-1.225,-1.2673,-1.3309,-1.3362,-1.3701,-1.4329,0.0,-1.4732,-1.5817,-1.5856,-1.6023,-1.6297,-1.6354,-1.6292,-1.6164,-1.589,-1.5609,-1.5236,-1.4366,-1.3827,-1.3446,0.0,0.0,0.0,0.0,0.0,0.0,0.0,-1.6055,-1.678,-1.8051,-1.8738,-1.9084,-1.8954,-1.9303,-1.9484,-1.8633,-1.869,-1.8869,-1.8375,-1.7832,-1.7105,-1.5983,-1.5039,-1.422,-1.3572,0.0,-1.3576,-1.3426,-1.3194,-1.3369,-1.4532,0.0,-1.5536,-1.6904,-1.7317,-1.7552,-1.7609,-1.8791,-1.9111,-1.8109,-2.1508,-2.3273,-2.2205,-2.1812,-2.3364,-2.7298,-2.7782,-3.01,-3.4917,-2.2218,-0.6118,1.2977,1.6565,2.0587,2.5083,2.6904,2.885,3.1029,3.189,3.2848,3.3818,0.0,0.0,3.5407,3.5865,3.637,3.6939,3.734,3.781,3.8192,3.8192,3.8192,3.8241,0.0,0.0,0.0,0.0,0.0,0.0,0.0,0.0,0.0,0.0,-0.8462,-0.8383,0.0,0.0,0.0,0.0,0.0,0.0,0.0,0.0,0.0,-1.0389,-1.1589,-1.2267,-1.2337,-1.2941,-1.3309,0.0,0.0,0.0,-1.4365,-1.4263,-1.4551,-1.5163,-1.4797,-1.4773,-1.4971,-1.4379,-1.381,-1.3262,-1.2697,-1.2127,-1.1549,0.0,0.0,0.0,0.0,0.0,0.0,0.0,-1.7056,-1.7926,-1.8173,-1.8657,-1.9084,-1.9133,-1.9396,-1.9671,-1.9535,-1.9282,-1.8987,-1.8881,-1.8434,-1.7745,-1.6715,-1.6021,0.0,0.0,-1.3895,-1.3895,-1.3018,-1.3501,-1.4138,-1.4337,0.0,0.0,0.0,0.0,-1.8369,0.0,0.0,0.0,0.0,0.0,0.0,0.0,0.0,0.0,-2.8334,-2.8795,-3.1106,-3.5831,-1.9505,-0.2995,1.3008,1.389,1.7857,2.5083,2.542,2.7512,3.1029,3.119,3.1807,3.2711,0.0,0.0,3.4366,3.5261,3.6113,3.6939,3.734,3.781,3.8192,3.8192,3.8192,3.8225,0.0,0.0,0.0,0.0,0.0,0.0,0.0,-0.8275,-0.8643,-0.901,-0.9017,-0.8942,-0.8822,-0.8568,-0.8422,0.0,0.0,0.0,0.0,0.0,0.0,0.0,0.0,-1.138,-1.2071,0.0,0.0,0.0,0.0,0.0,0.0,0.0,0.0,0.0,0.0,0.0,0.0,0.0,0.0,0.0,0.0,0.0,0.0,0.0,0.0,0.0,0.0,0.0,0.0,0.0,-1.6383,-1.7932,-1.8625,-1.8947,-1.9182,-1.9538,-1.9693,-1.971,-1.9622,-1.9408,-1.9146,-1.904,-1.8386,-1.7531,-1.648,0.0,0.0,0.0,-1.3294,-1.331,-1.2777,-1.312,0.0,0.0,0.0,0.0,0.0,0.0,0.0,0.0,0.0,0.0,0.0,0.0,0.0,0.0,0.0,0.0,-2.9709,-3.1961,-3.4253,-3.6743,-2.1649,-0.7868,0.39,1.0137,1.6141,2.1997,2.413,2.6435,2.9004,3.0346,3.1319,3.1982,3.254,0.0,3.4431,3.464,3.5559,3.69,3.7132,3.7613,3.8192,3.8192,3.8192,3.8192,0.0,0.0,0.0,0.0,0.0,0.0,0.0,-0.8521,-0.8889,-0.9499,-0.9701,-0.9622,-0.9211,-0.8725,-0.8413,0.0,0.0,0.0,0.0,0.0,0.0,0.0,0.0,0.0,0.0,0.0,0.0,0.0,0.0,0.0,0.0,0.0,0.0,0.0,0.0,0.0,0.0,0.0,0.0,0.0,0.0,0.0,0.0,0.0,0.0,0.0,0.0,0.0,0.0,0.0,-1.5255,-1.7008,-1.8275,-1.8875,-1.9195,-1.9669,-1.986,-1.983,-1.9687,-1.953,-1.9344,-1.9052,-1.821,-1.7135,-1.6032,-1.4923,0.0,0.0,-1.2625,-1.254,-1.254,0.0,-1.3196,0.0,-1.4558,0.0,0.0,0.0,0.0,0.0,0.0,0.0,0.0,0.0,0.0,0.0,0.0,0.0,-3.0514,-3.4408,-3.6749,-3.7141,-2.4182,-1.2423,-0.2391,0.7996,1.5212,1.9182,2.3178,2.5765,2.7063,2.9803,3.1115,3.1384,3.2195,0.0,0.0,3.4235,3.5124,3.6643,3.6821,3.7376,3.8054,3.814,3.8192,3.8192,0.0,0.0,0.0,0.0,0.0,0.0,0.0,-0.8832,-0.9444,-1.0045,-1.0235,-1.0074,-0.9451,-0.9072,-0.8606,0.0,0.0,0.0,0.0,0.0,0.0,0.0,0.0,0.0,0.0,0.0,0.0,0.0,0.0,0.0,0.0,0.0,0.0,0.0,0.0,0.0,0.0,0.0,0.0,0.0,0.0,0.0,0.0,0.0,0.0,0.0,0.0,0.0,0.0,0.0,0.0,-1.4641,-1.5995,-1.7627,-1.9086,-1.8985,0.0,0.0,-2.0362,-1.9935,-1.9349,-1.9083,-1.8179,-1.7135,-1.6032,0.0,0.0,-1.283,-1.2323,-1.1952,-1.1952,-1.2806,-1.3766,-1.4456,0.0,-1.5806,0.0,0.0,0.0,0.0,0.0,0.0,0.0,0.0,0.0,0.0,0.0,0.0,0.0,-3.3804,-3.6159,-3.6396,-2.3908,-1.0139,0.4627,1.0355,1.5212,1.9182,2.3178,2.5765,2.7063,2.9803,3.0925,3.0837,0.0,0.0,0.0,3.4366,3.5065,3.5725,3.6545,3.717,3.7632,3.8054,3.8192,3.8192,0.0,0.0,0.0,0.0,0.0,0.0,-0.7906,-0.8328,-0.8927,-0.9896,-1.0107,-1.0052,-0.98,-0.9327,-0.8703,-0.7901,0.0,0.0,0.0,0.0,0.0,0.0,0.0,0.0,0.0,0.0,0.0,0.0,0.0,0.0,0.0,0.0,0.0,0.0,0.0,0.0,0.0,0.0,0.0,0.0,0.0,0.0,0.0,0.0,0.0,0.0,0.0,0.0,0.0,0.0,0.0,0.0,-1.4155,-1.5436,0.0,0.0,-1.8547,-1.8782,-1.994,-2.0061,-1.9693,-1.9131,-1.8664,-1.779,-1.5755,0.0,-1.3556,-1.2442,-1.2037,-1.188,-1.188,-1.2551,-1.3289,-1.3882,-1.4061,-1.4596,-1.5953,0.0,0.0,0.0,0.0,0.0,0.0,0.0,0.0,0.0,0.0,0.0,0.0,-3.2971,-3.5386,-3.6086,-2.375,-1.4087,-0.7886,0.5673,1.3583,1.5771,2.1169,2.4246,2.5247,2.7525,2.9191,3.0377,0.0,0.0,0.0,3.4366,3.5081,3.5593,3.6545,3.7017,3.7246,3.7933,3.802,3.781,0.0,0.0,0.0,0.0,0.0,-0.7091,-0.7706,-0.7922,-0.8374,-0.9373,-0.9595,-0.9673,-0.9616,-0.9096,-0.8507,-0.7903,-0.766,0.0,0.0,0.0,0.0,0.0,0.0,0.0,0.0,0.0,0.0,0.0,0.0,0.0,0.0,0.0,0.0,0.0,0.0,0.0,0.0,0.0,0.0,0.0,0.0,0.0,0.0,0.0,0.0,0.0,0.0,0.0,0.0,0.0,0.0,0.0,0.0,0.0,0.0,0.0,-1.7623,-1.7919,-1.9414,-1.9741,-1.9541,-1.9055,-1.858,-1.7657,0.0,-1.4309,-1.333,-1.1967,-1.1564,-1.1523,-1.1681,-1.2241,-1.2873,-1.357,-1.3689,-1.4137,-1.5389,0.0,0.0,0.0,0.0,0.0,0.0,0.0,0.0,0.0,0.0,0.0,0.0,-3.1433,-3.371,-3.5558,-2.352,-1.6083,-1.4144,0.3267,1.2527,1.3566,1.9832,2.3216,2.4172,2.6324,2.8329,3.0076,0.0,0.0,0.0,3.4119,3.4736,3.517,3.6264,3.6746,3.7017,3.7863,3.7967,3.7756,0.0,0.0,0.0,0.0,0.0,0.0,-0.7706,-0.7798,-0.8009,-0.8549,-0.8785,-0.886,-0.8731,-0.8238,-0.7941,-0.7991,-0.7741,0.0,0.0,0.0,0.0,0.0,0.0,0.0,0.0,0.0,-1.0543,-1.0607,-1.2079,0.0,0.0,0.0,0.0,0.0,0.0,0.0,0.0,0.0,0.0,0.0,0.0,0.0,0.0,0.0,0.0,0.0,0.0,0.0,0.0,0.0,0.0,0.0,0.0,0.0,0.0,0.0,-1.6831,-1.8045,-1.8907,-1.8822,-1.8571,-1.8741,-1.7708,-1.6345,0.0,-1.3779,-1.242,-1.141,-1.0797,-1.059,-1.1204,-1.1851,-1.2647,-1.3704,-1.4437,-1.5082,-1.5612,0.0,0.0,0.0,0.0,0.0,0.0,0.0,0.0,0.0,0.0,0.0,0.0,-2.8844,-3.0875,-3.46,-2.3248,-1.4132,-0.7974,0.5327,1.25,1.3546,1.9822,2.3363,2.4387,2.6917,2.8787,0.0,0.0,0.0,0.0,3.3578,3.4036,3.4169,3.5535,3.6452,3.7017,3.7863,3.8192,3.8192,0.0,0.0,0.0,0.0,0.0,0.0,0.0,-0.6681,-0.7037,-0.7746,-0.7914,-0.8076,-0.8451,-0.7893,-0.7503,-0.7522,-0.7275,0.0,0.0,0.0,0.0,0.0,0.0,0.0,0.0,0.0,-0.9871,-1.0129,-1.1928,-1.2654,0.0,0.0,0.0,0.0,0.0,0.0,0.0,0.0,0.0,0.0,0.0,0.0,0.0,0.0,0.0,0.0,0.0,0.0,0.0,0.0,0.0,0.0,0.0,0.0,0.0,-1.2949,-1.4193,0.0,-1.7405,-1.7771,-1.7652,-1.753,-1.7183,-1.6426,-1.4676,-1.3386,-1.2299,-1.1325,-1.0725,-1.0468,-1.0656,-1.1573,-1.2523,-1.3243,-1.3924,0.0,0.0,0.0,0.0,0.0,0.0,0.0,0.0,0.0,0.0,0.0,0.0,0.0,0.0,-2.8246,-3.0023,-3.3957,-2.2331,-1.664,-1.8064,-0.0136,1.0917,1.4981,1.7403,2.0432,2.3994,2.4762,0.0,0.0,0.0,0.0,0.0,3.3716,3.4235,3.4609,3.5397,3.6045,3.6597,3.7413,3.7721,3.7756,0.0,0.0,0.0,0.0,0.0,0.0,0.0,-0.5998,-0.6252,-0.6751,-0.6932,-0.7236,-0.781,-0.7374,-0.7119,-0.7317,-0.6976,0.0,0.0,0.0,0.0,0.0,0.0,0.0,0.0,-0.8479,-0.9383,-1.001,-1.1556,-1.2283,-1.2253,-1.2727,-1.2539,0.0,0.0,0.0,0.0,0.0,0.0,0.0,0.0,0.0,0.0,0.0,0.0,0.0,0.0,0.0,0.0,0.0,0.0,0.0,0.0,0.0,0.0,0.0,-1.2396,-1.3592,0.0,-1.65,-1.6519,-1.6766,-1.6332,-1.552,-1.4256,-1.291,-1.1759,-1.0985,-1.0452,-1.0192,-1.0428,-1.1337,-1.2214,-1.2743,-1.3735,0.0,0.0,0.0,0.0,0.0,0.0,0.0,0.0,0.0,0.0,0.0,0.0,0.0,0.0,0.0,-2.8794,-3.2074,-2.1366,-1.7502,-2.1601,-0.241,0.9384,1.3684,1.5567,1.9098,2.4002,2.3905,0.0,0.0,0.0,0.0,0.0,3.326,3.3969,3.4816,3.5078,3.5725,3.6597,3.7283,3.7632,3.781,0.0,0.0,0.0,0.0,0.0,0.0,0.0,-0.5667,-0.5659,-0.5692,-0.5977,-0.6352,-0.6853,-0.6699,-0.6746,-0.7255,0.0,0.0,0.0,0.0,0.0,0.0,0.0,0.0,-0.7091,-0.8033,-0.9058,-1.0123,-1.1125,-1.1858,-1.2326,-1.2624,-1.2358,-1.1593,-1.018,0.0,0.0,0.0,0.0,0.0,0.0,0.0,0.0,0.0,0.0,0.0,0.0,0.0,0.0,0.0,0.0,0.0,0.0,0.0,0.0,0.0,0.0,0.0,0.0,-1.4918,-1.5128,-1.6166,-1.5092,-1.3803,-1.3769,-1.2361,0.0,-1.0488,-1.0037,-0.9882,-1.0488,-1.1106,-1.177,-1.2369,-1.3788,0.0,0.0,0.0,0.0,0.0,0.0,0.0,0.0,0.0,0.0,0.0,0.0,0.0,0.0,0.0,-2.7406,-2.9344,-2.0367,-1.667,-1.9064,-0.1884,0.7996,1.0584,1.4275,1.8899,2.4137,2.4033,0.0,0.0,0.0,0.0,0.0,3.2306,3.3264,3.4714,3.4651,3.5545,3.6869,3.7285,3.7756,3.8192,0.0,0.0,0.0,0.0,0.0,0.0,0.0,0.0,0.0,0.0,-0.5767,-0.5837,-0.5917,-0.6015,-0.6121,0.0,0.0,0.0,0.0,0.0,0.0,0.0,0.0,0.0,-0.7026,-0.8144,-0.9012,-0.9603,-1.1684,-1.2654,-1.2536,-1.3583,-1.337,-1.2072,-1.0764,-0.9341,0.0,0.0,0.0,0.0,0.0,0.0,0.0,0.0,0.0,0.0,0.0,0.0,0.0,0.0,0.0,0.0,0.0,0.0,0.0,0.0,-1.0946,-1.1239,-1.232,0.0,-1.3071,-1.3443,-1.2883,-1.2234,0.0,-1.1412,-1.0595,-1.0444,-1.0064,-0.9939,-1.0491,-1.0886,-1.1607,-1.2919,0.0,0.0,0.0,0.0,0.0,0.0,0.0,0.0,0.0,0.0,0.0,0.0,0.0,0.0,0.0,0.0,-2.714,-2.8482,-1.9469,-1.4087,-1.2986,-0.1507,0.6915,1.2257,1.2973,1.6624,2.2714,2.3356,0.0,0.0,0.0,0.0,3.2237,3.1884,3.2512,3.3748,3.3894,3.4831,3.6148,3.6805,3.7541,3.8192,0.0,0.0,0.0,0.0,0.0,0.0,0.0,0.0,0.0,0.0,0.0,-0.5558,-0.5509,-0.5697,0.0,0.0,0.0,0.0,0.0,0.0,0.0,0.0,0.0,-0.6924,-0.6944,-0.7838,-0.8665,-0.9411,-1.1114,-1.2118,-1.2486,-1.3068,-1.2934,-1.2092,-1.0563,-0.8962,0.0,0.0,0.0,0.0,0.0,0.0,0.0,0.0,0.0,0.0,-0.8637,-0.8861,0.0,-0.9698,-1.0063,-1.0329,0.0,0.0,0.0,0.0,-1.0777,-1.0797,-1.1272,-1.2089,-1.2882,-1.3225,-1.2703,-1.2112,-1.1927,-1.0878,-0.9893,-0.9713,-0.9678,-0.9808,-1.0193,-1.0801,0.0,0.0,0.0,0.0,0.0,0.0,0.0,0.0,0.0,0.0,0.0,0.0,0.0,0.0,0.0,0.0,0.0,0.0,-2.6843,-2.74,-2.1204,-1.5357,-1.0136,-0.0116,0.7589,1.2968,1.3517,1.6775,2.2444,2.2983,0.0,0.0,0.0,0.0,3.1855,3.1613,3.2302,3.3482,3.3273,3.4024,3.5337,3.611,3.6702,3.7142,0.0,0.0,0.0,0.0,0.0,0.0,0.0,0.0,0.0,0.0,0.0,0.0,0.0,0.0,0.0,0.0,0.0,0.0,0.0,0.0,0.0,0.0,0.0,-0.6897,-0.6988,-0.7556,-0.8355,-0.936,-1.0416,-1.1427,-1.234,-1.2401,-1.2237,-1.1788,-1.0151,-0.8677,0.0,0.0,0.0,0.0,0.0,0.0,0.0,0.0,0.0,0.0,0.0,0.0,0.0,-0.9384,-0.9804,-0.9963,-1.0467,0.0,0.0,0.0,0.0,0.0,-1.1009,-1.221,-1.3409,-1.3565,-1.3076,-1.243,-1.2021,0.0,0.0,0.0,0.0,0.0,0.0,-1.0877,0.0,0.0,0.0,0.0,0.0,0.0,0.0,0.0,0.0,0.0,0.0,0.0,0.0,0.0,0.0,0.0,0.0,0.0,0.0,-2.6399,-2.3337,-1.789,-0.9973,0.0369,0.7918,1.2615,1.4505,1.7912,2.2685,2.2685,2.4565,0.0,0.0,0.0,3.1292,3.1348,3.2154,3.3291,3.277,3.3383,3.4603,3.534,3.5669,3.591,0.0,0.0,0.0,0.0,0.0,0.0,0.0,0.0,0.0,0.0,0.0,0.0,0.0,0.0,0.0,0.0,0.0,0.0,0.0,0.0,0.0,-0.6313,-0.6535,-0.6865,-0.7313,-0.8122,-0.8766,-0.9241,-1.1412,-1.2471,-1.2593,-1.3819,-1.3249,-1.1198,-1.0404,-0.9067,-0.7406,0.0,0.0,0.0,0.0,0.0,0.0,0.0,0.0,0.0,0.0,0.0,0.0,-0.8496,-0.9267,-1.0143,-1.0241,0.0,0.0,0.0,0.0,0.0,-1.1804,-1.2584,-1.2946,-1.169,-1.1603,-1.1703,-1.1196,-1.0774,-1.0444,0.0,0.0,0.0,0.0,-1.1362,0.0,0.0,0.0,0.0,0.0,0.0,0.0,0.0,0.0,0.0,0.0,0.0,0.0,0.0,0.0,0.0,0.0,0.0,0.0,-2.605,-2.2016,-1.7779,-1.3549,-0.4457,0.3574,1.044,1.3893,1.7979,2.2419,2.2613,2.4651,0.0,0.0,2.9231,3.0817,3.0808,3.1358,3.2179,3.2423,3.3156,3.4157,3.4604,3.5207,3.5838,0.0,0.0,0.0,0.0,0.0,0.0,0.0,0.0,0.0,0.0,0.0,0.0,0.0,0.0,0.0,0.0,0.0,0.0,0.0,0.0,0.0,-0.6448,-0.6548,-0.6847,-0.7393,-0.8359,-0.9093,-0.9566,-1.1276,-1.2239,-1.2554,-1.3231,-1.233,-1.0109,-0.9868,-0.8911,-0.7451,-0.7452,0.0,0.0,0.0,0.0,0.0,0.0,0.0,0.0,0.0,0.0,0.0,0.0,-0.8926,-0.9777,-1.0095,0.0,0.0,0.0,0.0,0.0,-1.0684,-1.1263,-1.1715,-1.1572,-1.2314,-1.2865,-1.2095,-1.1491,-1.1125,0.0,0.0,0.0,0.0,0.0,0.0,0.0,0.0,0.0,0.0,0.0,0.0,0.0,0.0,0.0,0.0,0.0,0.0,0.0,0.0,0.0,0.0,0.0,0.0,0.0,-2.4492,-1.9342,-0.9853,-0.5549,0.1098,1.0109,1.503,1.9328,2.2968,2.278,2.4846,2.8543,0.0,2.9164,3.0692,3.0692,3.1218,3.1984,3.2125,3.2703,3.3484,3.3827,3.4451,3.5095,0.0,0.0,0.0,0.0,0.0,0.0,0.0,0.0,0.0,0.0,0.0,0.0,0.0,0.0,0.0,0.0,0.0,0.0,0.0,0.0,-0.6004,-0.6381,-0.6535,-0.6978,-0.7821,-0.87,-0.9529,-1.0253,-1.1349,-1.2137,-1.2659,-1.2375,-1.1253,-0.9409,-0.9315,-0.8588,-0.7418,-0.7406,-0.7406,0.0,0.0,0.0,0.0,0.0,0.0,0.0,0.0,0.0,0.0,0.0,0.0,0.0,0.0,0.0,0.0,-1.0212,-0.9796,-0.953,-0.9983,-1.0273,-1.068,-1.1797,-1.2914,-1.3568,-1.2974,-1.2196,-1.1648,0.0,0.0,0.0,0.0,0.0,0.0,0.0,0.0,0.0,0.0,0.0,0.0,0.0,0.0,0.0,0.0,0.0,0.0,0.0,0.0,0.0,0.0,0.0,0.0,0.0,-2.5862,-1.9798,-0.54,-0.4757,0.1101,1.2222,1.7314,2.1086,2.356,2.3694,2.5646,2.8951,2.8606,2.9345,3.0821,3.0757,3.1338,3.2265,3.2056,3.2403,3.3037,3.3316,3.3791,3.4244,0.0,0.0,0.0,0.0,0.0,0.0,0.0,0.0,0.0,0.0,0.0,0.0,0.0,0.0,0.0,0.0,0.0,0.0,0.0,0.0,-0.5652,-0.5759,-0.6306,-0.7406,-0.9138,-0.9471,-1.0195,-1.1295,-1.2442,-1.305,-1.3124,-1.2059,-1.0926,-0.9741,-0.9179,-0.8254,-0.7123,-0.7123,-0.7123,-0.7137,0.0,0.0,0.0,0.0,0.0,0.0,0.0,0.0,0.0,0.0,0.0,0.0,0.0,0.0,-0.9845,-1.0189,-0.9915,-0.9812,-1.1255,-1.0945,-1.0504,-1.1701,-1.2164,-1.2444,-1.2884,-1.2476,-1.1988,-1.2131,0.0,0.0,0.0,0.0,0.0,0.0,0.0,0.0,0.0,0.0,0.0,0.0,0.0,0.0,0.0,0.0,0.0,0.0,0.0,0.0,0.0,0.0,0.0,0.0,0.0,-1.7112,-0.3537,-0.2385,0.4843,1.8112,2.1063,2.2898,2.3738,2.5885,2.7684,2.9074,2.8935,2.9756,3.1215,3.0931,3.1699,3.305,3.2437,3.2521,3.3037,3.3375,3.3488,3.3484,0.0,0.0,0.0,0.0,0.0,0.0,0.0,0.0,0.0,0.0,0.0,0.0,0.0,0.0,0.0,0.0,0.0,0.0,0.0,-0.5224,-0.5421,-0.5684,-0.6024,-0.6956,-0.8513,-0.9212,-0.9997,-1.0837,-1.1785,-1.1983,-1.1513,-1.087,-1.0035,-0.9037,-0.8557,-0.8063,-0.7574,-0.7329,-0.7417,-0.7683,-0.7316,0.0,0.0,0.0,0.0,0.0,0.0,0.0,0.0,0.0,-0.8036,-0.8615,-0.8775,-0.9441,-1.0036,-0.9474,-0.9026,-0.8957,-0.9931,-1.0001,-1.0169,-1.1596,-1.246,-1.2977,-1.3002,-1.3167,-1.3518,-1.4095,-1.3577,0.0,0.0,0.0,0.0,0.0,0.0,0.0,0.0,0.0,0.0,0.0,0.0,0.0,0.0,0.0,0.0,0.0,0.0,0.0,0.0,0.0,0.0,0.0,0.0,-1.4935,0.1993,-0.0345,0.7291,2.4787,2.3054,2.276,2.3811,2.4653,2.6927,3.0159,2.9377,3.0093,3.1827,3.1308,3.1951,3.3202,3.3154,3.3232,3.3415,3.3671,3.3726,3.3726,0.0,0.0,0.0,0.0,0.0,0.0,0.0,0.0,0.0,0.0,0.0,0.0,0.0,0.0,0.0,0.0,0.0,0.0,-0.4961,-0.5059,-0.5234,-0.5537,-0.5855,-0.6508,-0.7534,-0.8651,-0.9638,-1.0456,-1.0995,-1.099,-1.044,-0.9929,-0.936,-0.8727,-0.8326,-0.8133,-0.8095,-0.7623,-0.7662,-0.7987,-0.7331,-0.7058,0.0,0.0,0.0,0.0,0.0,0.0,0.0,0.0,-0.7807,-0.8303,-0.8522,-0.913,-0.9648,-0.9031,-0.886,-0.8955,-0.9383,-0.9691,-1.0177,-1.1487,-1.2496,-1.3162,-1.3041,-1.3539,-1.419,-1.4731,-1.4045,-1.339,0.0,0.0,0.0,0.0,0.0,0.0,0.0,0.0,0.0,0.0,0.0,0.0,0.0,0.0,0.0,0.0,0.0,0.0,0.0,0.0,0.0,0.0,0.0,-1.0994,0.602,0.3509,1.081,2.7831,2.4961,2.3948,2.4767,2.5756,2.7897,3.0781,3.0187,3.0881,3.2347,3.181,3.2246,3.3273,3.3597,3.3698,3.3661,3.3807,3.3868,3.3921,0.0,0.0,0.0,0.0,0.0,0.0,0.0,0.0,0.0,0.0,0.0,0.0,0.0,0.0,0.0,0.0,0.0,0.0,-0.4711,-0.4941,-0.5127,-0.5184,-0.5776,-0.6192,-0.6381,-0.7838,-0.9187,-1.0379,-1.0326,-1.0274,-1.0249,-0.9391,-0.9031,-0.9078,-0.8688,-0.8537,-0.8565,-0.7966,-0.7774,-0.7822,-0.7092,-0.6841,0.0,0.0,0.0,0.0,0.0,0.0,0.0,0.0,-0.7621,-0.7227,-0.9092,-0.9092,-0.852,-0.9029,-0.9613,-1.0085,-1.0085,-1.0305,-1.0663,-1.1408,-1.2209,0.0,-1.2987,-1.3314,-1.3619,-1.3691,-1.3516,-1.3413,-1.3669,0.0,0.0,0.0,0.0,0.0,0.0,0.0,0.0,0.0,0.0,0.0,0.0,0.0,0.0,0.0,0.0,0.0,0.0,0.0,0.0,0.0,0.0,0.0,0.7711,0.9472,1.5741,2.6485,2.6971,2.7031,2.6786,3.0066,3.1207,3.0647,3.1464,3.2174,3.2764,3.2444,3.2692,3.335,3.368,3.3753,3.3698,3.3698,3.3807,3.3895,0.0,0.0,0.0,0.0,0.0,0.0,0.0,0.0,0.0,0.0,0.0,0.0,0.0,0.0,0.0,0.0,0.0,0.0,-0.4843,-0.4912,-0.4971,-0.4981,-0.5294,-0.5512,-0.5621,-0.6662,-0.7826,-0.9147,-0.9355,-0.9306,-0.9022,-0.8525,-0.8496,-0.8802,-0.8356,-0.8187,-0.8214,-0.7711,-0.7528,-0.7566,-0.6918,-0.6757,0.0,0.0,0.0,0.0,0.0,0.0,0.0,0.0,0.0,0.0,-0.7793,-0.8825,-0.9698,-0.8506,-0.9105,-1.0046,-0.9429,-0.9943,-1.0774,-1.1259,0.0,0.0,0.0,-1.3581,0.0,0.0,-1.429,-1.4468,0.0,0.0,0.0,0.0,0.0,0.0,0.0,0.0,0.0,0.0,0.0,0.0,0.0,0.0,0.0,0.0,0.0,0.0,0.0,0.0,0.0,0.0,0.0,0.0,0.3595,0.794,1.4955,2.4641,2.7569,2.8016,2.6318,2.7734,2.9125,3.0459,3.0363,3.0909,3.1846,3.2328,3.2966,3.3652,3.3762,3.3807,3.3807,3.3921,3.4124,3.434,0.0,0.0,0.0,0.0,0.0,0.0,0.0,0.0,0.0,0.0,0.0,0.0,0.0,0.0,0.0,0.0,0.0,0.0,0.0,-0.4971,-0.501,-0.5098,-0.5214,-0.5439,-0.5773,-0.6283,-0.7014,-0.7915,-0.8344,-0.8423,-0.8181,-0.8262,-0.8475,-0.8742,-0.8776,-0.8709,-0.8505,-0.8018,-0.7839,-0.788,-0.7261,-0.7073,-0.7179,0.0,0.0,0.0,0.0,0.0,0.0,0.0,0.0,0.0,-0.7362,-0.8306,-0.9285,-0.8495,-0.9185,-1.0139,-0.9788,-1.0543,-1.1537,-1.1833,-1.2921,-1.3817,-1.3531,0.0,0.0,0.0,0.0,0.0,0.0,0.0,0.0,0.0,0.0,0.0,0.0,0.0,0.0,0.0,0.0,0.0,0.0,0.0,0.0,0.0,0.0,0.0,0.0,0.0,0.0,0.0,0.0,0.0,0.2579,0.967,1.6776,2.381,2.7889,2.8967,2.7427,2.8075,2.9154,3.0448,3.0559,3.1002,3.1668,3.2072,3.273,3.3423,3.3338,3.3592,3.3947,3.3972,3.425,3.4607,0.0,0.0,0.0,0.0,0.0,0.0,0.0,0.0,0.0,0.0,-0.5108,0.0,0.0,0.0,0.0,0.0,0.0,0.0,0.0,0.0,-0.5204,-0.5385,-0.5385,-0.5709,-0.6379,-0.6411,-0.6535,-0.6799,-0.7352,-0.7642,-0.7675,-0.8393,-0.8766,-0.8839,-0.9579,-0.9615,-0.908,-0.8542,-0.835,-0.8355,-0.7733,-0.7509,-0.7509,-0.7452,0.0,0.0,0.0,0.0,0.0,0.0,0.0,0.0,-0.7457,-0.7705,-0.794,-0.867,-0.95,-1.0247,-1.0604,-1.1561,-1.2474,-1.2726,-1.3097,0.0,-1.3611,-1.3893,-1.4265,-1.4842,0.0,0.0,0.0,0.0,0.0,0.0,0.0,0.0,0.0,0.0,0.0,0.0,0.0,0.0,0.0,0.0,0.0,0.0,0.0,0.0,0.0,0.0,0.0,0.0,0.0,0.0,0.3131,1.2926,1.9626,0.0,2.7652,2.9658,2.9487,3.0151,3.0456,3.0466,3.1383,3.1819,3.1853,3.1682,3.2098,3.2776,3.2594,3.316,3.4061,3.381,3.42,3.4773,0.0,0.0,0.0,0.0,0.0,0.0,0.0,0.0,0.0,0.0,0.0,0.0,0.0,0.0,0.0,0.0,0.0,0.0,0.0,0.0,-0.5272,-0.533,-0.533,-0.5389,-0.555,-0.5706,-0.586,-0.5963,-0.6704,-0.7176,-0.7392,-0.7971,-0.8483,-0.8887,-0.9119,-0.8881,-0.8289,-0.776,-0.7306,-0.6931,-0.6789,-0.6792,-0.6885,-0.688,-0.6894,0.0,0.0,0.0,0.0,0.0,0.0,0.0,-0.7018,-0.769,-0.8253,-0.7446,-0.8435,-0.9763,-0.9485,-1.0207,0.0,-1.2369,-1.3089,-1.3637,-1.3847,-1.3952,-1.4104,0.0,0.0,0.0,0.0,0.0,0.0,0.0,0.0,0.0,0.0,0.0,0.0,0.0,0.0,0.0,0.0,0.0,0.0,0.0,0.0,0.0,0.0,0.0,0.0,0.0,0.0,-0.0711,-0.1174,1.0112,1.6931,0.0,2.5115,2.8636,2.9862,2.9986,2.9931,2.9813,3.002,3.0373,3.0823,3.0951,3.1374,3.1941,3.1913,3.2437,3.325,3.3202,3.3914,3.487,0.0,0.0,0.0,0.0,0.0,0.0,0.0,0.0,0.0,0.0,0.0,0.0,0.0,0.0,0.0,0.0,0.0,0.0,0.0,-0.5387,-0.5406,-0.5444,-0.5472,-0.5491,-0.5491,-0.5603,-0.5715,-0.5852,-0.6253,-0.675,-0.7301,-0.7842,-0.8428,-0.8995,-0.9078,-0.8765,-0.8159,-0.7658,-0.7275,-0.7024,-0.7024,-0.7042,-0.7078,-0.7078,-0.6953,-0.6765,-0.6765,0.0,0.0,0.0,0.0,0.0,0.0,0.0,-0.7656,-0.7465,-0.8211,-0.9169,-0.9563,0.0,0.0,-1.2783,0.0,-1.3668,-1.3926,-1.402,-1.3989,0.0,0.0,0.0,0.0,0.0,0.0,0.0,0.0,0.0,0.0,0.0,0.0,0.0,0.0,0.0,0.0,0.0,0.0,0.0,0.0,0.0,0.0,0.0,0.0,0.0,-0.2256,-0.0253,-0.0314,0.9917,1.5993,1.7775,2.4389,2.8452,3.0131,2.9975,2.9906,2.9924,2.9902,3.008,3.0404,3.0374,3.0772,3.1406,3.1304,3.1806,3.2574,3.2534,3.3271,3.4264,0.0,0.0,0.0,0.0,0.0,0.0,0.0,0.0,0.0,0.0,0.0,0.0,0.0,0.0,0.0,0.0,0.0,0.0,0.0,-0.5539,-0.5558,-0.5603,-0.5667,-0.5704,-0.5704,-0.5704,-0.5808,-0.5991,-0.6009,-0.6524,-0.7571,-0.7971,-0.854,-0.9194,-0.9118,-0.8813,-0.8296,-0.7675,-0.7432,-0.7451,-0.7451,-0.7413,-0.7395,-0.7395,-0.7029,-0.6527,-0.6527,-0.6535,-0.6547,-0.6668,0.0,0.0,0.0,0.0,-0.6832,-0.7668,-0.8041,-0.8434,-0.9729,0.0,-1.2231,-1.3221,-1.3558,0.0,-1.401,-1.4067,0.0,0.0,0.0,0.0,0.0,0.0,0.0,0.0,0.0,0.0,0.0,0.0,0.0,0.0,0.0,0.0,0.0,0.0,0.0,0.0,0.0,0.0,0.0,0.0,-0.4953,-0.4343,-0.1385,0.0791,0.2005,1.0225,1.5285,1.7088,2.4157,2.8506,3.0281,3.0063,3.0072,3.0229,3.0222,3.0241,3.0234,3.0037,3.0333,3.089,3.0715,3.1167,3.1938,3.1901,3.2638,3.3675,0.0,0.0,0.0,0.0,0.0,0.0,0.0,0.0,0.0,0.0,0.0,-0.5625,-0.5576,-0.5622,0.0,0.0,0.0,0.0,-0.5667,0.0,0.0,-0.5686,-0.5686,-0.5734,-0.5782,-0.5782,-0.5848,-0.6007,-0.6002,-0.6888,-0.8606,-0.8437,-0.8813,-0.9595,-0.8952,-0.8593,-0.8383,-0.7168,-0.6721,-0.6821,-0.6821,-0.689,-0.6979,-0.6979,-0.6855,-0.6672,-0.6672,-0.6672,-0.6685,-0.6689,-0.6625,0.0,0.0,0.0,0.0,-0.6757,-0.6991,-0.7415,-0.8475,0.0,-1.2086,0.0,-1.332,-1.3716,0.0,0.0,0.0,0.0,0.0,0.0,0.0,0.0,0.0,0.0,0.0,0.0,0.0,0.0,0.0,0.0,0.0,0.0,0.0,0.0,0.0,0.0,0.0,0.0,0.0,-0.56,-0.4455,-0.251,-0.0719,0.0791,0.2005,0.8651,1.2826,1.4676,2.2949,2.808,3.0218,3.0239,3.0131,2.9969,3.019,3.019,3.0041,3.0177,3.0196,3.0147,3.0054,3.0553,3.1326,3.1381,3.2473,3.3952,0.0,0.0,0.0,0.0,0.0,0.0,0.0,0.0,0.0,0.0,0.0,-0.5689,-0.5659,-0.5686,0.0,0.0,0.0,0.0,-0.5763,-0.59,0.0,-0.5874,-0.5948,-0.5984,-0.5959,-0.6014,-0.605,-0.6104,-0.6141,-0.7143,-0.9028,-0.8905,-0.9533,-1.0715,-0.9801,-0.9213,-0.8873,-0.7714,-0.7079,-0.6874,-0.6944,-0.7444,-0.8054,-0.7225,-0.7315,-0.7763,-0.6971,-0.6689,-0.6689,0.0,-0.6655,0.0,0.0,0.0,0.0,0.0,-0.6975,-0.7653,-0.9116,-1.0311,-1.1457,0.0,-1.3082,-1.3439,-1.4215,0.0,0.0,0.0,0.0,0.0,0.0,0.0,0.0,0.0,0.0,0.0,0.0,0.0,0.0,0.0,0.0,0.0,0.0,0.0,0.0,0.0,0.0,0.0,-0.498,-0.4901,-0.3403,-0.0113,0.0403,0.1901,0.4635,0.9173,1.3585,1.7909,2.2625,2.6091,2.8299,2.8334,2.9008,3.0191,3.0296,3.0327,3.0298,3.0392,3.0364,3.0276,3.0164,3.0314,3.0586,3.0707,3.1451,3.2535,0.0,0.0,0.0,0.0,0.0,0.0,0.0,0.0,0.0,0.0,0.0,0.0,-0.5778,0.0,0.0,0.0,0.0,0.0,-0.5904,0.0,0.0,0.0,0.0,-0.6177,-0.6122,-0.6183,-0.6218,-0.6218,-0.6313,-0.7313,-0.9147,-0.9124,-1.0083,-1.1774,-1.0716,-0.9906,-0.9249,-0.8275,-0.7679,-0.7376,-0.7467,-0.8077,-0.886,-0.8036,-0.8306,-0.8943,-0.7605,-0.714,0.0,0.0,0.0,0.0,0.0,0.0,0.0,0.0,0.0,0.0,0.0,0.0,-1.0556,-1.1974,-1.2546,-1.3055,0.0,0.0,0.0,0.0,0.0,0.0,0.0,0.0,0.0,0.0,0.0,0.0,0.0,0.0,0.0,0.0,0.0,0.0,0.0,0.0,0.0,0.0,0.0,0.0,-0.482,-0.4618,-0.2998,0.05,0.0778,0.2432,0.5653,0.929,1.425,2.043,2.202,2.3981,2.6246,2.6814,2.8057,2.9799,3.0208,3.0414,3.049,3.0494,3.0508,3.049,3.0385,3.026,3.0163,3.0301,3.0758,3.1451,0.0,0.0,0.0,0.0,0.0,0.0,0.0,0.0,0.0,0.0,0.0,0.0,-0.5998,-0.6099,-0.6165,-0.6165,0.0,0.0,0.0,0.0,0.0,0.0,0.0,0.0,-0.6183,-0.6254,-0.6295,-0.6295,-0.6425,-0.7353,-0.9018,-0.8947,-1.0162,-1.2316,-1.1372,-1.0328,-0.9236,-0.8418,-0.8177,-0.8329,-0.8329,-0.8409,-0.8627,-0.9631,-1.002,-0.988,-0.8664,0.0,0.0,0.0,0.0,0.0,0.0,0.0,0.0,0.0,0.0,0.0,0.0,-0.8541,0.0,-1.0448,-1.1619,0.0,0.0,0.0,0.0,0.0,0.0,0.0,0.0,0.0,0.0,0.0,0.0,0.0,0.0,0.0,0.0,0.0,0.0,0.0,0.0,0.0,0.0,0.0,0.0,0.0,-0.615,-0.5336,-0.4055,-0.227,-0.0166,0.1501,0.272,0.7916,1.348,1.9295,2.0519,2.2338,2.4683,2.6871,2.7907,2.8116,2.9643,3.0344,3.0409,3.0476,3.0498,3.0508,3.0497,3.0414,3.0306,3.0432,3.0946,3.1718,0.0,0.0,0.0,0.0,0.0,0.0,0.0,0.0,0.0,0.0,0.0,0.0,0.0,-0.6236,-0.6272,-0.6272,-0.6295,0.0,0.0,0.0,0.0,0.0,0.0,0.0,0.0,-0.6395,-0.6425,-0.6425,-0.6483,-0.7174,-0.8495,-0.8508,-0.9166,-1.0349,-1.0258,-1.0208,-1.0122,-0.8912,0.0,0.0,0.0,-0.9718,-1.0394,-1.0173,-1.0571,-1.1086,0.0,0.0,0.0,0.0,0.0,0.0,0.0,-0.6862,-0.6668,-0.6668,-0.6961,0.0,0.0,0.0,0.0,-0.9907,-1.0669,0.0,0.0,0.0,0.0,0.0,0.0,0.0,0.0,0.0,0.0,0.0,0.0,0.0,0.0,0.0,0.0,0.0,0.0,0.0,0.0,0.0,0.0,0.0,0.0,0.0,-0.5701,-0.5269,-0.4045,-0.1935,-0.0277,0.2203,0.5548,0.9545,1.2725,1.512,1.6855,1.9111,2.1837,2.2965,2.5098,2.7938,2.851,2.9373,3.0405,3.0521,3.0584,3.0624,3.0582,3.057,3.0568,3.0603,3.0806,3.1164,0.0,0.0,0.0,0.0,0.0,0.0,0.0,0.0,0.0,-0.6302,0.0,0.0,0.0,0.0,-0.636,-0.636,-0.6413,-0.643,-0.643,-0.6478,0.0,0.0,0.0,0.0,0.0,-0.6483,-0.65,-0.65,-0.6522,-0.7031,-0.7964,-0.7989,-0.8442,-0.9218,-0.9077,-0.9579,-1.0451,0.0,0.0,-0.9156,0.0,0.0,-1.1281,-1.1337,-1.1789,0.0,0.0,0.0,0.0,0.0,0.0,0.0,0.0,-0.7081,-0.6564,-0.6564,-0.688,0.0,-0.7348,0.0,0.0,0.0,0.0,0.0,0.0,0.0,0.0,0.0,0.0,0.0,0.0,0.0,0.0,0.0,0.0,0.0,0.0,0.0,0.0,0.0,0.0,0.0,0.0,0.0,0.0,0.0,0.0,0.0,-0.5919,-0.4992,-0.3324,-0.0719,0.0055,0.2522,0.6992,0.9899,1.1762,1.2578,1.4868,1.7083,1.9207,2.0522,2.2902,2.6012,2.7009,2.8565,3.039,3.0497,3.0574,3.0632,3.064,3.0642,3.0677,3.0693,3.0707,3.0837,0.0,0.0,0.0,0.0,0.0,0.0,0.0,0.0,-0.6507,-0.6507,0.0,0.0,0.0,0.0,0.0,-0.6507,-0.6507,-0.6507,-0.6507,-0.6507,0.0,0.0,0.0,0.0,-0.6507,-0.6505,-0.651,-0.651,-0.6569,-0.691,-0.7465,-0.7407,-0.8051,-0.92,-0.8024,-0.8453,-1.0046,0.0,-1.0046,-1.0136,0.0,-1.0805,-1.1083,0.0,0.0,0.0,-1.2551,-1.2153,0.0,-1.0355,0.0,0.0,0.0,-0.7183,-0.6314,-0.6302,-0.6514,0.0,0.0,0.0,0.0,0.0,0.0,0.0,0.0,0.0,0.0,0.0,0.0,0.0,0.0,0.0,0.0,0.0,0.0,0.0,0.0,0.0,0.0,0.0,0.0,0.0,0.0,0.0,0.0,0.0,0.0,-0.648,-0.7085,-0.4718,-0.1944,0.1113,0.0666,0.2364,0.6343,0.8571,1.0491,1.2059,1.4766,1.6346,1.6972,1.9884,2.155,2.2222,2.5156,2.7859,3.0164,3.0298,3.0419,3.0513,3.0648,3.0653,3.0603,3.0678,3.0706,3.0824,0.0,0.0,0.0,0.0,0.0,-0.6507,-0.6507,-0.6507,-0.6507,0.0,0.0,0.0,-0.6505,-0.6535,-0.6599,-0.6651,-0.6651,-0.6651,-0.6651,-0.6651,-0.6616,-0.6564,-0.6564,-0.6564,-0.6564,-0.6569,-0.6569,-0.6569,-0.6599,-0.6709,-0.6931,-0.6913,-0.7344,-0.8133,-0.7791,-0.8159,-0.8991,-0.8546,0.0,-1.0186,-1.0263,-1.1069,0.0,0.0,0.0,0.0,0.0,-1.3448,-1.3141,0.0,-1.1602,-1.0516,0.0,0.0,-0.6669,-0.6391,-0.6897,0.0,-0.662,0.0,0.0,0.0,0.0,0.0,0.0,0.0,0.0,0.0,0.0,0.0,0.0,0.0,0.0,0.0,0.0,0.0,0.0,0.0,0.0,0.0,0.0,0.0,0.0,0.0,0.0,0.0,-0.6696,-0.648,-0.7085,-0.521,-0.3329,-0.1662,0.0055,0.1719,0.3366,0.6037,0.8248,0.9969,1.2157,1.4156,1.5868,1.7073,1.8786,2.0873,2.225,2.4346,2.6968,2.8688,2.98,3.0438,3.0524,3.0581,3.0611,3.0618,3.0637,3.0669,0.0,0.0,0.0,-0.653,-0.6564,-0.6582,-0.6582,-0.6582,-0.6582,0.0,0.0,0.0,-0.6591,-0.684,-0.6938,-0.6715,-0.6689,-0.6689,-0.6689,-0.6689,-0.6685,-0.6651,-0.6651,-0.6651,-0.6651,-0.6651,-0.6651,-0.6651,-0.6651,-0.6668,-0.6689,-0.6689,-0.6932,-0.7325,-0.7325,-0.7525,-0.7867,-0.7522,0.0,0.0,-1.0611,0.0,0.0,-1.3353,-1.3978,0.0,0.0,0.0,-1.4213,-1.3889,-1.2824,0.0,0.0,0.0,0.0,0.0,0.0,0.0,0.0,0.0,0.0,0.0,0.0,0.0,0.0,0.0,0.0,0.0,0.0,0.0,0.0,0.0,0.0,0.0,0.0,0.0,0.0,0.0,0.0,0.0,0.0,0.0,0.0,0.0,0.0,0.0,-0.6421,-0.5764,-0.5647,-0.4824,-0.366,-0.1994,0.0056,0.1558,0.2506,0.5163,0.703,0.8072,1.0565,1.2579,1.4065,1.5277,1.6881,1.8664,1.9882,2.1856,2.4347,2.6242,2.8012,2.9569,2.996,3.0175,3.026,3.051,3.0598,3.0605,0.0,0.0,-0.6616,-0.6616,-0.6718,-0.6808,-0.6808,-0.6808,-0.6834,0.0,-0.6897,-0.6897,-0.6897,-0.7317,-0.7406,-0.6936,-0.6783,-0.6744,-0.6808,-0.6744,-0.6706,-0.6689,-0.6689,-0.6689,-0.6689,-0.6689,-0.6689,-0.6689,-0.6689,-0.6706,-0.6706,-0.6706,-0.674,-0.6807,-0.6807,-0.6841,-0.6908,-0.7039,0.0,-0.9629,-1.1067,-1.2152,0.0,0.0,-1.5158,0.0,-1.5783,-1.5549,-1.5079,-1.4887,-1.3631,0.0,0.0,0.0,0.0,0.0,-0.8335,0.0,0.0,0.0,0.0,0.0,0.0,0.0,-0.9514,-0.9109,0.0,0.0,0.0,0.0,0.0,0.0,0.0,0.0,0.0,0.0,0.0,0.0,0.0,0.0,0.0,0.0,0.0,0.0,-0.7563,-0.7192,-0.6046,-0.4941,-0.3941,-0.411,-0.3327,-0.133,0.0278,0.1616,0.2681,0.4953,0.624,0.6561,0.9504,1.1294,1.1972,1.4076,1.5301,1.5929,1.7781,1.9808,2.1932,2.3278,2.5579,2.831,2.912,2.9491,2.9604,3.0248,3.0488,3.0496,0.0,-0.6685,-0.6685,-0.6685,-0.7106,-0.7419,-0.7419,-0.7419,-0.7605,-0.808,-0.8144,-0.8144,-0.8144,-0.7823,-0.7752,-0.812,-0.732,-0.6997,-0.7475,-0.7062,-0.6757,-0.6689,-0.6689,-0.6689,-0.6689,-0.6689,-0.6689,-0.6689,-0.6689,-0.6723,-0.6774,-0.6774,-0.6824,-0.6891,-0.6891,-0.6891,-0.696,0.0,0.0,-0.9524,-0.9769,0.0,-1.3624,-1.3766,-1.4745,-1.5995,-1.5979,-1.6194,-1.6395,0.0,-1.4585,-1.325,0.0,0.0,0.0,0.0,0.0,-0.9622,-0.9068,0.0,0.0,0.0,0.0,0.0,0.0,-0.8175,0.0,0.0,0.0,0.0,0.0,0.0,0.0,0.0,0.0,0.0,0.0,0.0,0.0,0.0,0.0,0.0,0.0,0.0,-0.7771,-0.7616,-0.6642,-0.5932,-0.571,-0.3993,-0.3222,-0.3715,-0.0668,0.1118,0.1448,0.289,0.4583,0.6508,0.7967,0.9416,1.0864,1.2104,1.2946,1.358,1.5348,1.688,1.834,2.0705,2.4099,2.7805,2.8268,2.8489,2.8599,2.9466,2.9806,2.9861,-0.6702,-0.6689,-0.6795,-0.7094,-0.7425,-0.7746,-0.8017,-0.8089,-0.8309,-0.8913,-0.9237,-0.9176,-0.8606,-0.855,-0.842,-0.8122,-0.7577,-0.727,-0.7301,-0.7027,-0.6841,-0.6807,-0.6807,-0.6807,-0.6807,-0.6807,-0.6807,-0.6807,-0.6807,-0.6824,-0.6858,-0.6858,-0.7001,-0.7279,-0.7009,-0.7048,-0.7319,0.0,-0.8246,-0.9148,-1.0248,0.0,-1.4219,-1.4436,-1.54,-1.6686,-1.6563,-1.6674,-1.6709,-1.5293,-1.4458,0.0,0.0,-1.2094,-1.1766,0.0,-1.0915,-1.1017,0.0,0.0,0.0,-0.9574,0.0,0.0,0.0,0.0,0.0,0.0,0.0,0.0,0.0,0.0,0.0,0.0,0.0,0.0,0.0,0.0,0.0,0.0,0.0,0.0,0.0,-0.7841,-0.7629,-0.7009,-0.675,-0.6534,-0.6209,-0.482,-0.399,-0.3935,-0.1388,0.0335,0.1006,0.2289,0.3503,0.4743,0.6391,0.7909,0.927,1.0588,1.163,1.2502,1.3896,1.5347,1.6883,1.875,2.1347,2.4414,2.638,2.7148,2.7333,2.8691,2.9193,2.927,-0.6723,-0.6706,-0.6864,-0.7379,-0.77,-0.8031,-0.8459,-0.8662,-0.8991,-0.959,-1.0153,-1.0181,-0.9348,-0.9616,-0.956,-0.8825,-0.8372,-0.7983,-0.7658,-0.7297,-0.7082,-0.7048,-0.696,-0.6947,-0.7048,-0.696,-0.6908,-0.6908,-0.6908,-0.6908,-0.6908,-0.6908,-0.7127,-0.7522,-0.7205,-0.7292,0.0,0.0,0.0,-0.9256,0.0,-1.2768,-1.4193,-1.5003,-1.5931,-1.6775,-1.687,-1.6918,-1.6616,-1.4787,0.0,-1.4117,-1.2791,-1.2711,0.0,0.0,0.0,0.0,0.0,0.0,0.0,0.0,0.0,-0.967,0.0,0.0,0.0,-0.8392,0.0,0.0,0.0,0.0,0.0,0.0,0.0,0.0,0.0,0.0,0.0,0.0,0.0,0.0,0.0,-0.7585,-0.7236,-0.6284,-0.6586,-0.6596,-0.6147,-0.5521,-0.4594,-0.3377,-0.1885,-0.0445,0.0898,0.1958,0.2627,0.2905,0.495,0.6493,0.7612,0.927,1.0495,1.1484,1.2735,1.4146,1.5614,1.6737,1.8232,2.0203,2.3911,2.543,2.5813,2.7602,2.8385,2.8645,-0.6807,-0.6791,-0.682,-0.6953,-0.7809,-0.8526,-0.8592,-0.9044,-0.958,-1.013,-1.082,-1.1362,-1.1577,-1.1361,-1.1549,-1.2484,0.0,0.0,-1.0241,0.0,-0.7729,-0.7614,-0.7153,-0.7127,-0.7601,-0.714,-0.6908,-0.6908,-0.6908,-0.6908,-0.6908,-0.6908,-0.6934,-0.6996,-0.7423,0.0,0.0,0.0,-0.9383,0.0,-1.1201,-1.1697,0.0,-1.4088,-1.4911,-1.5375,-1.6254,-1.6693,-1.6731,0.0,-1.5064,-1.463,0.0,-1.3159,0.0,0.0,0.0,0.0,0.0,0.0,0.0,0.0,-1.1133,0.0,0.0,0.0,-0.8692,-0.7614,0.0,0.0,0.0,0.0,0.0,0.0,0.0,0.0,0.0,0.0,0.0,0.0,0.0,0.0,0.0,0.0,-0.6513,-0.639,-0.5874,-0.5688,-0.592,-0.5023,-0.3996,-0.2834,-0.2058,-0.0837,0.0898,0.1065,0.1736,0.2905,0.4091,0.5066,0.6009,0.797,0.9051,0.9436,1.1323,1.2278,1.2618,1.4118,1.5336,1.6791,2.0924,2.304,2.3915,2.5746,2.6934,2.7762,-0.6874,-0.6858,-0.6962,-0.7306,-0.7827,-0.8412,-0.9039,-1.0467,-1.1359,-1.0978,-1.2021,-1.2803,0.0,0.0,0.0,0.0,0.0,-1.0969,0.0,0.0,-0.8731,-0.824,-0.7685,-0.7507,-0.7811,-0.7227,-0.6924,-0.696,-0.6924,-0.6908,-0.6908,-0.6908,-0.7245,-0.7881,-0.7757,0.0,-0.9191,0.0,-0.9227,0.0,0.0,0.0,0.0,-1.4124,-1.5479,-1.6046,-1.6388,-1.638,-1.6102,0.0,-1.4346,0.0,0.0,0.0,0.0,0.0,0.0,0.0,0.0,0.0,0.0,0.0,0.0,0.0,0.0,0.0,-0.8411,0.0,0.0,0.0,0.0,0.0,0.0,0.0,0.0,0.0,0.0,0.0,0.0,0.0,0.0,0.0,0.0,0.0,0.0,0.0,0.0,-0.582,-0.5803,-0.5449,-0.474,-0.3666,-0.2806,-0.1782,-0.067,0.0392,0.1344,0.2293,0.306,0.4155,0.5529,0.6758,0.7676,0.833,1.0077,1.1023,1.1455,1.2567,1.3573,1.4686,1.7119,1.9653,2.215,2.392,2.5307,2.6384,-0.6944,0.0,-0.7022,-0.7423,-0.7688,-0.8293,-0.9593,-1.1388,-1.2425,-1.2018,-1.3001,0.0,-1.3938,-1.3754,0.0,0.0,-1.3495,-1.2633,0.0,0.0,-1.0006,-0.9479,-0.8496,0.0,0.0,-0.7561,-0.7082,-0.696,-0.6911,-0.6908,-0.6908,-0.6908,-0.7336,-0.8142,-0.8181,-0.8891,-1.0039,0.0,-0.9841,-1.0742,-1.13,-1.17,-1.2195,-1.4272,-1.5676,-1.6509,-1.6293,-1.6076,-1.57,-1.4595,-1.3806,0.0,-1.3245,0.0,0.0,0.0,0.0,0.0,-1.1828,0.0,0.0,0.0,0.0,0.0,0.0,0.0,0.0,0.0,0.0,0.0,0.0,0.0,0.0,0.0,0.0,0.0,0.0,0.0,0.0,0.0,0.0,0.0,0.0,0.0,0.0,0.0,0.0,0.0,-0.5297,-0.5575,-0.5169,-0.3856,-0.3224,-0.2504,-0.1563,-0.0224,0.0784,0.1568,0.2179,0.3229,0.4659,0.5634,0.6553,0.7368,0.8744,0.9666,1.0226,1.0839,1.1724,1.2898,1.3993,1.649,1.9733,2.1816,2.3524,2.496,-0.7058,-0.6993,0.0,-0.6921,-0.7358,-0.8339,-1.0264,-1.1285,-1.221,-1.319,0.0,0.0,0.0,0.0,0.0,0.0,0.0,-1.5291,-1.4571,0.0,-1.1636,-1.1609,-0.9648,-0.8912,0.0,0.0,-0.7423,-0.6908,-0.6908,-0.6908,-0.6908,-0.6908,-0.6921,-0.7026,-0.8699,-0.9472,-0.959,-1.0664,-1.2089,-1.3605,-1.2717,-1.3479,-1.5073,0.0,-1.4911,-1.6156,-1.5691,0.0,0.0,-1.4454,-1.3979,0.0,0.0,0.0,0.0,0.0,0.0,0.0,0.0,0.0,0.0,-0.9903,0.0,0.0,0.0,0.0,-0.8918,0.0,0.0,0.0,0.0,0.0,0.0,-0.7106,0.0,0.0,0.0,0.0,0.0,0.0,0.0,0.0,0.0,0.0,0.0,0.0,0.0,0.0,-0.42,-0.5038,-0.4626,-0.2603,-0.3229,-0.2728,-0.0953,-0.0898,-0.0224,0.0954,0.1568,0.2237,0.3014,0.4604,0.5697,0.6293,0.7315,0.8006,0.8376,0.8429,0.943,1.1106,1.2139,1.3972,1.6327,1.9144,2.1583,2.3625,0.0,0.0,0.0,0.0,0.0,-0.8662,-1.0504,-1.2321,-1.3649,0.0,0.0,0.0,0.0,-1.6619,-1.6771,0.0,0.0,-1.6312,-1.5319,-1.4214,0.0,0.0,0.0,-1.08,0.0,0.0,-0.8598,-0.7694,-0.7508,-0.724,-0.6908,-0.6908,-0.7087,-0.7475,0.0,-0.954,0.0,0.0,0.0,0.0,0.0,-1.4101,-1.585,0.0,0.0,-1.578,-1.5635,-1.5367,0.0,-1.4923,-1.4294,-1.353,-1.3568,-1.3167,-1.2677,-1.2746,-1.2771,0.0,0.0,0.0,-1.2817,-1.0929,0.0,0.0,0.0,0.0,0.0,0.0,0.0,0.0,0.0,0.0,0.0,-0.7626,0.0,0.0,0.0,0.0,0.0,0.0,0.0,0.0,0.0,0.0,0.0,0.0,0.0,0.0,0.0,-0.4476,-0.4416,-0.3571,-0.3126,-0.2834,-0.2672,-0.151,-0.0504,0.0335,0.0896,0.1734,0.2792,0.3837,0.4494,0.4941,0.5977,0.6735,0.7208,0.7427,0.8153,0.929,1.053,1.1834,1.3507,1.7004,1.9716,2.1962,-0.839,0.0,0.0,0.0,0.0,-0.9668,-1.1031,0.0,0.0,0.0,-1.5744,0.0,-1.7497,0.0,-1.7398,0.0,-1.7814,-1.7158,-1.5889,-1.5494,0.0,-1.4809,-1.3402,0.0,0.0,-1.1325,-0.9963,0.0,0.0,-0.7706,-0.6927,-0.6924,-0.7087,-0.7462,0.0,-0.9645,-1.0965,0.0,-1.2981,0.0,0.0,-1.4839,0.0,0.0,-1.5412,-1.5412,0.0,-1.5153,-1.488,-1.5051,-1.4519,-1.3833,-1.4136,-1.3584,-1.2848,-1.323,-1.3104,-1.2843,-1.2719,-1.3008,0.0,-1.1556,-1.1175,0.0,-0.9121,0.0,0.0,0.0,0.0,0.0,0.0,0.0,0.0,-0.8117,-0.7271,0.0,0.0,0.0,0.0,0.0,0.0,0.0,0.0,0.0,-0.5392,-0.5167,0.0,0.0,0.0,0.0,-0.3922,-0.3736,-0.3105,-0.2951,-0.3227,-0.2111,-0.1119,-0.0336,0.028,0.1119,0.2069,0.301,0.3564,0.3953,0.4835,0.5546,0.6027,0.6249,0.6838,0.7788,0.8815,0.9941,1.1481,1.5185,1.8283,2.0941,0.0,0.0,0.0,0.0,-1.0178,0.0,0.0,0.0,-1.5033,0.0,-1.6326,-1.6958,-1.7576,-1.7646,-1.7885,-1.8461,-1.8517,0.0,-1.6589,-1.6556,0.0,0.0,-1.4919,-1.4287,-1.3845,-1.305,0.0,0.0,0.0,0.0,-0.7033,-0.6941,-0.6908,-0.6956,-0.8686,0.0,-1.043,-1.2737,-1.4441,-1.5516,-1.5981,-1.5748,-1.5108,-1.5108,-1.5108,-1.5108,-1.5108,-1.5108,-1.5062,-1.48,-1.4708,-1.4697,-1.4663,-1.4362,-1.4067,-1.4291,-1.4373,-1.4136,-1.3138,-1.3194,-1.3183,-1.1737,0.0,0.0,0.0,0.0,-1.0779,0.0,0.0,0.0,0.0,0.0,0.0,0.0,0.0,0.0,0.0,0.0,0.0,0.0,0.0,0.0,0.0,0.0,-0.5099,-0.5058,-0.4418,0.0,0.0,0.0,-0.3314,-0.3044,-0.3273,-0.3129,-0.2552,-0.2638,-0.2124,-0.1009,-0.0391,0.028,0.0897,0.2068,0.2845,0.3234,0.3843,0.4398,0.4842,0.4842,0.5542,0.6617,0.7175,0.8337,1.0216,1.3782,1.7231,2.0341,-0.9258,-0.9967,-1.0716,0.0,-1.1123,-1.1594,0.0,0.0,0.0,0.0,-1.6972,-1.7604,-1.8208,-1.8278,-1.8349,-1.8503,-1.8517,0.0,0.0,0.0,0.0,-1.7712,-1.6704,-1.6047,-1.5927,-1.4276,0.0,-1.1152,0.0,0.0,-0.765,-0.7206,-0.6908,-0.6821,0.0,0.0,-0.9979,-1.1974,-1.3829,-1.5408,-1.5374,-1.5424,0.0,0.0,-1.5108,-1.5108,-1.5108,-1.5108,-1.5108,-1.5017,-1.4834,-1.4651,-1.4512,-1.4244,-1.3962,-1.3858,-1.381,-1.3732,-1.3476,-1.3481,-1.3392,-1.2597,-1.2175,-1.1777,0.0,0.0,0.0,0.0,0.0,0.0,0.0,0.0,0.0,0.0,0.0,0.0,0.0,0.0,0.0,0.0,0.0,0.0,0.0,0.0,-0.5073,-0.4623,0.0,0.0,0.0,0.0,0.0,-0.3547,-0.3679,-0.3565,-0.3189,-0.2966,-0.2683,-0.2348,-0.1397,-0.0615,0.0112,0.0896,0.1567,0.2235,0.2847,0.3345,0.3732,0.4177,0.4948,0.5937,0.6558,0.8033,1.0191,1.3568,1.6137,1.8216,-0.9995,0.0,0.0,-1.2523,0.0,0.0,-1.391,0.0,0.0,-1.6564,-1.7225,0.0,-1.8082,-1.8349,-1.8517,-1.8517,-1.8307,0.0,-1.7724,0.0,0.0,-1.7697,-1.7388,-1.7042,-1.678,-1.5428,0.0,-1.198,0.0,0.0,-0.7927,-0.7205,-0.6874,0.0,0.0,-0.914,-1.0199,-1.2596,-1.4287,-1.5347,-1.5333,0.0,0.0,-1.5153,-1.5108,-1.5108,-1.5108,-1.5108,-1.5108,-1.5108,-1.5017,-1.4834,-1.4605,-1.4384,-1.4104,-1.3858,-1.3668,-1.3621,-1.3621,-1.3621,-1.3511,-1.3207,-1.296,-1.2652,-1.2103,-1.2118,-1.2132,0.0,0.0,0.0,0.0,0.0,0.0,0.0,0.0,0.0,0.0,0.0,0.0,0.0,0.0,0.0,0.0,0.0,0.0,0.0,0.0,0.0,0.0,0.0,0.0,-0.3803,-0.3846,-0.3837,-0.3728,-0.3649,-0.3411,-0.2961,-0.2402,-0.162,-0.067,0.0,0.0672,0.1344,0.2291,0.2847,0.3067,0.3683,0.4349,0.5066,0.5878,0.7454,0.959,1.1711,1.4026,1.6327,0.0,0.0,0.0,0.0,0.0,0.0,0.0,-1.5241,0.0,-1.6719,0.0,-1.7731,-1.7731,-1.8117,-1.84,-1.84,0.0,-1.7544,-1.6875,-1.7503,-1.7571,-1.6862,-1.753,-1.7637,-1.7043,-1.6298,0.0,0.0,0.0,-0.9667,-0.8024,-0.7118,0.0,0.0,0.0,0.0,0.0,-1.3639,-1.494,-1.5193,-1.5421,-1.5367,-1.5108,-1.5108,-1.5108,-1.5108,-1.5108,-1.5108,-1.5108,-1.5108,-1.5108,-1.5062,-1.4789,-1.4569,-1.4384,-1.4114,-1.3821,-1.3621,-1.3621,-1.3621,-1.3621,-1.3621,-1.3621,-1.347,-1.3022,-1.2894,-1.2848,-1.2746,-1.2308,-1.2168,0.0,0.0,0.0,0.0,0.0,0.0,0.0,0.0,0.0,0.0,0.0,0.0,0.0,0.0,0.0,0.0,0.0,0.0,0.0,0.0,0.0,-0.4029,-0.4069,0.0,-0.4253,0.0,-0.4151,-0.335,-0.3239,-0.2625,-0.1564,-0.0726,-0.0056,0.056,0.19,0.2514,0.2625,0.3244,0.3744,0.4288,0.5175,0.6689,0.8484,0.9194,1.1365,1.4294,0.0,0.0,0.0,0.0,0.0,-1.4854,-1.5387,-1.6049,-1.6747,-1.7351,-1.7983,-1.8349,-1.8349,-1.8066,-1.7922,-1.7922,-1.7841,0.0,0.0,0.0,0.0,-1.7652,-1.808,-1.8173,-1.7638,-1.6132,-1.487,0.0,-1.0978,-0.9111,-0.8223,-0.7117,-0.6765,0.0,0.0,0.0,-1.1592,-1.3179,0.0,-1.4592,-1.5002,-1.5153,-1.5108,-1.5108,-1.5108,-1.5108,-1.5108,-1.5108,-1.5108,-1.5108,-1.5108,-1.5062,-1.4789,-1.4662,-1.4569,-1.4114,-1.3973,-1.3868,-1.3668,-1.3621,-1.3621,-1.3621,-1.3621,-1.36,-1.347,-1.3355,-1.3297,-1.325,-1.3067,-1.2715,-1.2128,0.0,0.0,0.0,0.0,0.0,0.0,0.0,0.0,0.0,0.0,0.0,0.0,0.0,0.0,0.0,0.0,0.0,0.0,0.0,0.0,0.0,0.0,0.0,0.0,0.0,-0.4676,-0.4721,-0.3901,-0.3347,-0.301,-0.1675,-0.1006,-0.0727,0.0616,0.1511,0.2014,0.2625,0.3403,0.4233,0.4787,0.5462,0.6354,0.8012,0.9413,1.094,0.0,0.0,0.0,0.0,0.0,0.0,0.0,-1.6585,0.0,-1.6883,-1.732,-1.7667,-1.7667,-1.7745,-1.7787,-1.7787,-1.738,-1.7131,-1.7131,-1.7352,-1.7475,-1.7475,-1.7475,0.0,-1.7475,-1.6346,-1.5201,-1.4098,-1.1922,-1.0156,-0.8854,-0.7531,-0.7043,-0.7318,0.0,-1.0461,0.0,0.0,0.0,-1.4623,-1.4946,-1.5108,-1.5108,-1.5108,-1.5108,-1.5108,-1.5108,-1.5108,-1.5108,-1.5108,-1.5108,-1.5062,-1.4971,-1.48,-1.4662,-1.443,-1.4197,-1.3962,-1.3821,-1.3716,-1.3621,-1.3621,-1.3621,-1.3621,-1.3621,-1.3563,-1.3515,-1.3515,-1.3382,-1.2929,-1.1905,-1.0869,0.0,0.0,0.0,0.0,0.0,0.0,0.0,0.0,0.0,0.0,0.0,0.0,0.0,0.0,0.0,0.0,0.0,0.0,0.0,0.0,0.0,0.0,0.0,0.0,0.0,-0.5218,-0.4728,-0.4122,-0.3458,-0.2676,-0.1898,-0.1174,-0.0112,0.0728,0.14,0.2347,0.3289,0.4233,0.4453,0.4956,0.5771,0.705,0.8311,0.9846,0.0,-1.5423,0.0,0.0,-1.6357,0.0,-1.6697,-1.6992,-1.705,-1.6504,-1.6745,-1.6941,-1.6941,-1.7317,-1.7503,-1.7503,-1.6892,-1.6522,-1.6522,-1.6607,-1.6778,-1.7031,-1.685,-1.685,-1.7031,-1.653,-1.5531,0.0,0.0,-1.1285,-0.9526,-0.8238,-0.7821,0.0,0.0,0.0,0.0,0.0,-1.4387,-1.4881,-1.5037,-1.5108,-1.5108,-1.5108,-1.5108,-1.5108,-1.5108,-1.5108,-1.5108,-1.5108,-1.5108,-1.5108,-1.5108,-1.4971,-1.4789,-1.4708,-1.443,-1.4114,-1.402,-1.3868,-1.3668,-1.361,-1.3621,-1.3621,-1.3621,-1.3621,-1.3621,-1.3621,-1.3515,-1.3003,-1.1763,-1.113,0.0,0.0,0.0,0.0,0.0,0.0,0.0,0.0,0.0,0.0,0.0,0.0,0.0,0.0,0.0,0.0,-0.4041,-0.4335,0.0,0.0,0.0,-0.5401,-0.6096,0.0,-0.5737,0.0,-0.5171,-0.4677,-0.3793,-0.3456,-0.2732,-0.162,-0.0782,0.0112,0.1009,0.2068,0.3067,0.3901,0.3901,0.4453,0.5385,0.6145,0.7339,0.902,0.0,0.0,0.0,0.0,0.0,0.0,-1.7316,-1.7352,-1.7316,-1.7125,-1.7149,-1.7162,-1.7162,-1.6824,-1.6595,-1.6595,-1.6565,-1.6522,-1.6522,-1.6905,-1.6934,-1.6565,-1.7297,-1.7338,-1.6565,-1.6434,-1.5815,0.0,0.0,0.0,0.0,0.0,0.0,0.0,0.0,0.0,0.0,-1.4105,-1.4647,-1.5084,-1.5085,-1.5108,-1.5108,-1.5108,-1.5108,-1.5108,-1.5108,-1.5108,-1.5108,-1.5108,-1.5108,-1.5108,-1.5108,-1.5062,-1.5017,-1.4754,-1.4662,-1.4523,-1.4114,-1.3973,-1.3915,-1.3668,-1.3621,-1.3621,-1.3621,-1.3621,-1.3621,-1.3621,-1.3515,-1.2956,-1.1595,-1.2158,-1.2047,0.0,0.0,0.0,0.0,0.0,0.0,0.0,0.0,0.0,0.0,0.0,0.0,0.0,0.0,0.0,0.0,-0.4322,-0.4547,-0.4995,0.0,-0.5418,-0.6081,-0.5294,0.0,-0.5277,-0.4791,-0.4515,-0.4405,-0.368,-0.3236,-0.285,-0.1564,-0.028,0.0953,0.1623,0.2235,0.2847,0.2847,0.3456,0.4435,0.5325,0.6164,0.729,0.0,0.0,0.0,0.0,0.0,0.0,0.0,-1.7616,-1.7399,-1.7334,-1.7546,-1.7727,-1.7727,-1.7301,-1.6967,-1.6967,-1.6448,-1.6088,-1.6088,-1.6262,-1.6392,-1.6522,-1.6552,-1.6552,-1.6522,-1.6464,-1.603,0.0,0.0,0.0,0.0,0.0,0.0,0.0,0.0,-1.3189,-1.4086,-1.4293,-1.4672,-1.5108,-1.5108,-1.5108,-1.5108,-1.5108,-1.5108,-1.5108,-1.5108,-1.5108,-1.5108,-1.5108,-1.5108,-1.5108,-1.5108,-1.5108,-1.5062,-1.4971,-1.4846,-1.4662,-1.4477,-1.4197,-1.3962,-1.3868,-1.3716,-1.3621,-1.3621,-1.3621,-1.3621,-1.3621,-1.3515,-1.3212,-1.2579,-1.2118,-1.1723,0.0,0.0,0.0,0.0,0.0,0.0,0.0,0.0,0.0,0.0,0.0,0.0,0.0,0.0,0.0,0.0,-0.4477,0.0,-0.4745,0.0,-0.5744,-0.5957,-0.5763,-0.5535,-0.5277,-0.5062,-0.4791,-0.4519,-0.4184,-0.3683,-0.3019,-0.1676,-0.0559,0.0392,0.1008,0.1846,0.2681,0.2681,0.3292,0.4324,0.5207,0.5872,0.6652,-1.7775,0.0,-1.7932,0.0,-1.8121,-1.8001,-1.8374,-1.8109,-1.7881,-1.7881,-1.8166,-1.8227,-1.7918,-1.7535,-1.7313,-1.7313,-1.6548,-1.602,-1.602,-1.5876,-1.5969,-1.6262,-1.6088,0.0,-1.6306,-1.6436,-1.615,-1.5429,-1.5004,0.0,0.0,0.0,0.0,0.0,-1.3291,-1.3859,-1.4603,-1.4603,-1.4798,-1.5108,-1.5108,-1.5108,-1.5108,-1.5108,-1.5108,-1.5108,-1.5108,-1.5108,-1.5108,-1.5108,-1.5108,-1.5108,-1.5108,-1.5108,-1.5108,-1.5108,-1.4971,-1.4789,-1.4651,-1.4384,-1.4067,-1.3915,-1.3716,-1.3621,-1.3621,-1.3621,-1.3621,-1.3621,-1.3515,-1.3379,-1.3094,-1.2218,-1.1548,-1.1611,0.0,0.0,0.0,0.0,0.0,0.0,0.0,-0.7136,0.0,0.0,0.0,0.0,0.0,0.0,0.0,0.0,0.0,0.0,0.0,0.0,0.0,-0.5973,-0.5747,-0.5277,-0.5117,-0.4846,-0.4519,-0.4463,-0.3962,-0.3128,-0.2066,-0.1228,-0.0559,0.0112,0.0951,0.1898,0.2124,0.2847,0.3875,0.467,0.5446,0.6172,-1.8097,-1.8193,-1.8362,-1.8891,-1.8975,-1.8975,-1.8987,-1.8975,-1.8975,-1.8975,-1.8975,-1.8578,-1.7532,-1.7412,-1.74,-1.74,-1.6919,-1.6572,-1.6572,-1.608,-1.5792,0.0,0.0,-1.6262,-1.5836,-1.6262,-1.6262,-1.578,0.0,0.0,-1.4265,0.0,-1.3698,-1.4476,-1.4476,-1.469,-1.5096,-1.5096,-1.5096,-1.5108,-1.5108,-1.5108,-1.5108,-1.5108,-1.5108,-1.5108,-1.5108,-1.5108,-1.5108,-1.5108,-1.5108,-1.5108,-1.5108,-1.5108,-1.5108,-1.5108,-1.5108,-1.4971,-1.4512,-1.4373,-1.428,-1.3752,-1.3621,-1.3621,-1.3621,-1.3621,-1.3621,-1.3621,-1.3621,-1.3381,-1.2746,-1.261,-1.2087,-1.0587,0.0,0.0,0.0,0.0,0.0,0.0,-0.7086,-0.6268,-0.7384,0.0,0.0,0.0,0.0,0.0,0.0,0.0,0.0,-0.5664,-0.5691,0.0,-0.6088,-0.5426,-0.5202,-0.5277,-0.4791,-0.4519,-0.4519,-0.4301,-0.3855,-0.3287,-0.3014,-0.2516,-0.1903,-0.1177,-0.0504,0.0112,0.0672,0.1679,0.2813,0.3535,0.453,0.5738,-1.8879,-1.8799,-1.8794,-1.8963,-1.8987,-1.8987,-1.8987,-1.8987,-1.8987,-1.8987,-1.8987,-1.8867,-1.853,-1.8169,-1.7953,0.0,-1.7472,-1.7159,0.0,-1.7003,-1.6907,-1.6907,-1.6696,-1.6502,-1.6332,-1.6151,-1.5969,-1.5792,0.0,0.0,0.0,-1.5036,-1.5088,-1.5321,-1.5222,-1.5182,-1.521,-1.5153,-1.5108,-1.5108,-1.5108,-1.5108,-1.5108,-1.5108,-1.5108,-1.5108,-1.5108,-1.5108,-1.5108,-1.5108,-1.5108,-1.5108,-1.5108,-1.5108,-1.5108,-1.5108,-1.5108,-1.5062,-1.4926,-1.4651,-1.4384,-1.4186,-1.3858,-1.3621,-1.3621,-1.3621,-1.3621,-1.3621,-1.3621,-1.3521,-1.3189,-1.2625,-1.1991,-1.1442,-1.0599,0.0,0.0,0.0,0.0,0.0,0.0,-0.7151,0.0,-0.646,0.0,0.0,0.0,0.0,0.0,0.0,0.0,0.0,-0.6151,0.0,-0.5962,-0.6141,-0.5896,-0.5277,-0.5117,-0.4842,-0.4463,-0.4018,-0.363,-0.3352,-0.2685,-0.2238,-0.1959,-0.1177,-0.056,0.0112,0.1119,0.2014,0.2813,0.396,0.4904,0.5616,-1.9275,-1.917,-1.9052,-1.9052,-1.904,-1.8987,-1.8987,-1.8987,-1.8987,-1.8987,-1.8987,-1.8987,-1.8987,-1.8698,0.0,-1.8506,-1.8013,-1.7712,-1.7712,-1.752,-1.7412,-1.7412,-1.7099,-1.6871,-1.6871,0.0,0.0,-1.6092,-1.5855,-1.5715,-1.5715,-1.5671,-1.5614,-1.5614,-1.5558,-1.5435,-1.5312,-1.521,-1.5165,-1.5108,-1.5108,-1.5108,-1.5108,-1.5108,-1.5108,-1.5108,-1.5108,-1.5108,-1.5108,-1.5108,-1.5108,-1.5108,-1.5108,-1.5108,-1.5108,-1.5108,-1.5108,-1.5062,-1.4971,-1.4754,-1.4477,-1.4291,-1.401,-1.3716,-1.3621,-1.3621,-1.3621,-1.3621,-1.3621,-1.3521,-1.3252,-1.2393,-1.1677,-1.1561,-1.0315,-0.9509,-0.9991,0.0,0.0,0.0,0.0,0.0,0.0,-0.6763,0.0,0.0,0.0,0.0,0.0,0.0,0.0,-0.6054,-0.6755,0.0,-0.6277,-0.6766,-0.6554,-0.571,-0.5492,-0.5062,-0.4463,-0.4125,-0.3796,-0.3466,-0.2907,-0.2408,-0.2015,-0.1289,-0.0728,-0.0224,0.0727,0.1621,0.2479,0.3361,0.4354,0.5319,-1.942,-1.93,0.0,0.0,-1.9141,0.0,-1.9047,-1.9047,-1.9059,-1.9095,-1.9071,-1.9047,-1.9047,-1.9011,-1.8987,-1.8987,0.0,0.0,0.0,-1.7796,-1.752,-1.752,-1.7484,-1.7472,-1.7472,-1.7436,-1.7171,-1.6678,-1.6107,-1.5823,-1.5778,-1.5676,-1.5619,-1.5619,-1.5574,-1.5541,-1.5417,-1.5371,-1.5314,-1.5211,-1.5211,-1.5211,-1.5211,-1.5211,-1.5211,-1.5211,-1.5177,-1.5165,-1.5154,-1.5119,-1.5108,-1.5108,-1.5108,-1.5108,-1.5108,-1.5062,-1.5062,-1.5017,-1.4743,-1.4697,-1.4569,-1.4114,-1.3973,-1.3926,-1.3668,-1.3621,-1.3621,-1.3621,-1.3621,-1.3439,-1.2925,-1.199,-1.1277,-1.114,-0.9881,-0.9088,-0.95,0.0,0.0,0.0,0.0,0.0,0.0,-0.6965,-0.6795,0.0,0.0,0.0,0.0,0.0,-0.6675,-0.7263,-0.7455,-0.734,-0.6923,-0.7319,-0.7117,-0.6362,-0.5706,-0.5113,-0.4519,-0.446,-0.4128,-0.3569,-0.3411,-0.291,-0.2184,-0.1401,-0.101,-0.0842,-0.0168,0.0728,0.1749,0.2042,0.3193,0.4771,0.0,0.0,-1.9655,-1.9243,-1.9443,-1.9588,-1.9588,-1.9588,-1.9744,-2.0177,-1.9853,-1.9588,-1.9588,-1.9239,-1.8987,-1.8987,-1.8867,-1.8806,-1.8806,-1.8686,-1.8614,-1.8614,-1.8229,-1.8013,-1.8013,-1.7616,-1.7352,-1.7231,-1.7051,-1.6956,-1.6824,-1.6812,-1.6752,-1.6656,-1.6522,-1.6474,-1.6437,-1.6328,-1.6267,-1.6267,-1.6267,-1.6267,-1.6267,-1.6267,-1.6267,-1.6221,-1.5854,-1.5716,-1.5659,-1.5246,-1.5108,-1.5108,-1.5108,-1.5108,-1.5062,-1.4834,-1.4789,-1.4743,-1.4512,-1.4466,-1.4384,-1.4067,-1.3868,-1.3668,-1.361,-1.3621,-1.3621,-1.3621,-1.3621,-1.3579,-1.3429,-1.2232,-1.1276,-1.1277,-0.973,-0.8692,-0.9088,-0.8778,0.0,0.0,-0.8312,-0.8028,-0.7508,-0.7332,-0.7075,0.0,0.0,0.0,0.0,-0.7012,-0.7231,-0.7282,-0.773,-0.7672,-0.707,-0.7331,-0.6918,-0.5778,-0.5175,-0.4739,-0.4463,-0.4015,-0.3735,-0.3572,-0.2963,-0.2633,-0.2354,-0.1457,-0.1066,-0.0954,0.0224,0.0841,0.1243,0.2345,0.3317,0.4203,-2.0469,-2.0568,-2.0527,-2.0232,-2.0306,-2.0378,-2.0266,-2.0266,-2.0318,-2.0562,-2.0346,-2.0165,-2.0165,-1.9889,-1.9708,-1.9708,-1.9263,-1.8987,-1.8987,-1.8987,-1.8987,-1.8987,-1.871,-1.8566,-1.8566,-1.8277,-1.8013,-1.7772,-1.7471,-1.7253,-1.7216,-1.7069,-1.702,-1.6971,-1.6834,-1.6796,-1.6796,-1.6734,-1.6685,-1.6623,-1.6623,-1.6623,-1.6623,-1.6623,-1.6623,-1.6589,-1.6325,-1.6233,-1.6153,-1.5647,-1.5464,-1.5406,-1.5188,-1.5108,-1.5062,-1.4789,-1.4708,-1.4662,-1.4569,-1.4466,-1.4337,-1.4067,-1.3821,-1.3563,-1.3372,-1.3467,-1.3515,-1.319,-1.3382,-1.3515,-1.3362,-1.2119,-1.1183,-1.1271,-0.9563,-0.8324,-0.87,-0.8537,0.0,-0.8143,-0.8397,-0.8377,-0.7801,-0.7935,-0.778,-0.7114,0.0,0.0,-0.7017,-0.7446,-0.7643,-0.7583,-0.8026,-0.7955,-0.7402,-0.7281,-0.6756,-0.5786,-0.5399,-0.5014,-0.4574,-0.4184,-0.3849,-0.3569,-0.3186,-0.2629,-0.2015,-0.1456,-0.1008,-0.0617,0.0168,0.0673,0.1016,0.1835,0.2671,0.3581,-2.1493,-2.1456,-2.1381,-2.1294,-2.1243,-2.1133,-2.0949,-2.0949,-2.0904,-2.0861,-2.0767,-2.073,-2.073,-2.0634,-2.0574,-2.0574,-1.9756,-1.9203,-1.9119,-1.9035,-1.8987,-1.8987,-1.8987,-1.8987,-1.8987,-1.8987,-1.877,-1.8326,-1.7757,-1.748,-1.7431,-1.7232,-1.7143,-1.7205,-1.7066,-1.7016,-1.7027,-1.7027,-1.6915,-1.6802,-1.6802,-1.6802,-1.6802,-1.6802,-1.6802,-1.6841,-1.6773,-1.6738,-1.6669,-1.6187,-1.6003,-1.5889,-1.5383,-1.5234,-1.5165,-1.4868,-1.4754,-1.4697,-1.4616,-1.4419,-1.4233,-1.4067,-1.3821,-1.3515,-1.3112,-1.3314,-1.3382,-1.2666,-1.3045,-1.342,-1.3064,-1.1843,-1.0971,-1.1183,-0.9427,-0.807,-0.825,0.0,-0.8183,-0.7903,-0.8364,-0.8606,-0.8394,-0.857,-0.8521,-0.8089,-0.8037,-0.7909,0.0,-0.7876,-0.7948,-0.7846,-0.8234,-0.8242,-0.7717,-0.7128,-0.6534,-0.6,-0.5778,-0.534,-0.4688,-0.4574,-0.4239,-0.3738,-0.3627,-0.2956,-0.19,-0.1509,-0.0951,-0.0392,-0.0168,0.028,0.0732,0.0929,0.1796,0.2964,-2.1493,-2.1756,-2.1828,-2.1368,-2.1551,-2.1685,-2.1496,-2.1496,-2.1607,-2.1946,-2.156,-2.1284,-2.1284,-2.0875,-2.061,-2.061,-2.0454,-2.0165,-1.9696,-1.9239,-1.8987,-1.8987,-1.8987,-1.8987,-1.8987,-1.8987,-1.8951,-1.8867,-1.8782,-1.8641,-1.8548,-1.8495,-1.839,-1.8177,-1.8189,-1.807,-1.7909,-1.7909,-1.7909,-1.7855,-1.7855,-1.7855,-1.7855,-1.7855,-1.7855,-1.7798,-1.7415,-1.7255,-1.7186,-1.6681,-1.6508,-1.6417,-1.5934,-1.5785,-1.5693,-1.52,-1.4891,-1.4616,-1.4208,-1.3915,-1.3763,-1.3962,-1.3821,-1.3515,-1.3112,-1.3314,-1.3382,-1.2666,-1.2842,-1.3064,-1.3016,-1.1649,-1.0561,-1.0775,-0.9215,-0.7946,-0.7836,0.0,-0.8025,-0.8563,-0.8422,-0.852,-0.9096,-0.8874,-0.8616,-0.845,-0.8397,-0.8311,-0.8044,-0.8331,-0.8191,-0.7578,-0.832,-0.8435,-0.7871,-0.6853,-0.6209,-0.6,-0.5454,-0.5014,-0.4691,-0.4688,-0.4577,-0.4349,-0.3793,-0.3458,-0.3181,-0.2011,-0.151,-0.1286,-0.0616,-0.028,-0.0113,0.0464,0.1257,0.222,-2.2268,-2.2468,-2.2568,-2.2201,-2.2303,-2.2344,-2.2236,-2.2116,-2.208,-2.2161,-2.1981,-2.1825,-2.1825,-2.1608,-2.1464,-2.1464,-2.1211,-2.0935,-2.067,-2.0153,-1.9732,-1.9432,-1.942,-1.9287,-1.8999,-1.8987,-1.8987,-1.8987,-1.8987,-1.8999,-1.8893,-1.8851,-1.8744,-1.8637,-1.8476,-1.8367,-1.8259,-1.815,-1.8084,-1.8084,-1.8084,-1.8084,-1.8084,-1.8084,-1.8084,-1.805,-1.7474,-1.7503,-1.7661,-1.6834,-1.6768,-1.6945,-1.6451,-1.5901,-1.5485,-1.5508,-1.506,-1.4477,-1.4114,-1.3821,-1.3621,-1.3763,-1.3668,-1.3467,-1.2842,-1.3025,-1.3074,-1.2314,-1.2461,-1.2793,-1.2967,-1.1837,-1.0938,-1.1168,-0.9795,0.0,0.0,-0.8139,-0.8235,-0.8437,-0.8647,-0.8875,-0.9199,-0.9227,-0.9116,-0.89,-0.883,-0.8678,-0.8539,-0.858,-0.8531,-0.832,-0.8298,-0.8203,-0.7925,-0.7074,-0.6485,-0.6105,-0.5399,-0.5014,-0.4794,-0.4743,-0.4632,-0.4463,-0.4184,-0.3904,-0.3569,-0.279,-0.2178,-0.1566,-0.1063,-0.0672,-0.0337,-0.0057,0.0591,0.1478,-2.2969,-2.3017,-2.3017,-2.2909,-2.2836,-2.2763,-2.2678,-2.2482,-2.2359,-2.2185,-2.2197,-2.2197,-2.2197,-2.2197,-2.2197,-2.2197,-2.1825,-2.1584,-2.1584,-2.1211,-2.0682,-1.9997,-1.9973,-1.972,-1.9191,-1.9179,-1.9119,-1.8987,-1.8987,-1.8987,-1.8987,-1.8893,-1.8851,-1.8798,-1.8583,-1.8476,-1.8367,-1.8259,-1.8139,-1.8084,-1.8084,-1.8084,-1.8084,-1.8084,-1.803,-1.7843,-1.7379,-1.7435,-1.7567,-1.6743,-1.6785,-1.707,-1.6535,-1.5857,-1.5278,-1.5548,-1.4967,-1.4221,-1.3936,-1.3668,-1.3515,-1.3467,-1.3515,-1.343,-1.2666,-1.2745,-1.2774,-1.1918,-1.2076,-1.2421,-1.2686,-1.1949,-1.1358,-1.1462,0.0,0.0,0.0,-0.8654,-0.8595,-0.8459,-0.8868,-0.9204,-0.927,-0.9482,-0.9519,-0.9292,-0.9213,-0.9105,-0.8998,-0.8861,-0.8871,-0.9001,-0.8415,-0.809,-0.809,-0.7563,-0.6972,-0.6426,-0.5668,-0.523,-0.4956,-0.4794,-0.4688,-0.4519,-0.4519,-0.4239,-0.3793,-0.3345,-0.2623,-0.1789,-0.1398,-0.0952,-0.0505,-0.0505,0.0,0.0852,-2.3078,-2.2957,-2.2909,-2.2909,-2.2787,-2.2616,-2.2482,-2.242,-2.2359,-2.2185,-2.2197,-2.2197,-2.2197,-2.2197,-2.2197,-2.2197,-2.2149,-2.2137,-2.2137,-2.2101,-2.162,-2.0598,-2.055,-2.0298,-1.9732,-1.972,-1.948,-1.8987,-1.8987,-1.8987,-1.8987,-1.8987,-1.8946,-1.8798,-1.8798,-1.8637,-1.8422,-1.8367,-1.8259,-1.8084,-1.8084,-1.8084,-1.8084,-1.8084,-1.7733,-1.7257,-1.7202,-1.6866,-1.6415,-1.6327,-1.6373,-1.629,-1.5797,-1.5641,-1.5473,-1.5028,-1.4369,-1.3781,-1.3532,-1.3314,-1.3218,-1.3064,-1.3314,-1.343,-1.2666,-1.2745,-1.2677,-1.156,-1.1678,-1.1977,-1.1968,-1.1631,-1.1264,-1.1084,0.0,0.0,-0.9198,-0.9059,-0.9088,-0.9114,-0.9146,-0.9285,-0.9555,-0.9599,-0.9607,-0.9585,-0.9577,-0.9481,-0.9377,-0.9325,-0.9235,-0.9008,-0.8798,-0.8752,-0.8752,-0.815,-0.7557,-0.7031,-0.6426,-0.5773,-0.5069,-0.4956,-0.4794,-0.4688,-0.4574,-0.446,-0.4349,-0.3236,-0.2681,-0.2514,-0.14,-0.0898,-0.0842,-0.0842,-0.0229,0.0648,-2.2957,-2.3017,-2.2969,-2.28,-2.2678,-2.2543,-2.242,-2.2297,-2.2247,-2.2197,-2.2197,-2.2197,-2.2197,-2.2197,-2.2197,-2.2197,-2.2197,-2.2197,-2.2197,-2.2197,-2.1873,-2.1139,-2.0791,-2.0514,-2.0298,-2.0298,-2.0201,-1.9997,-1.9973,-1.9805,-1.948,-1.948,-1.9312,-1.8946,-1.8851,-1.8691,-1.8518,-1.8007,-1.7678,-1.7501,-1.7101,-1.7213,-1.7556,-1.7556,-1.7611,-1.7678,-1.6933,-1.6754,-1.6754,-1.5968,-1.5968,-1.628,-1.6115,-1.5589,-1.4999,-1.4443,-1.3955,-1.3488,-1.3322,-1.3096,-1.2852,-1.2706,-1.2939,-1.3025,-1.2314,-1.2412,-1.251,-1.1819,-1.1628,-1.1678,-1.2175,-1.1751,-1.1349,-1.1545,0.0,-1.0441,-0.9977,-0.9739,-0.9547,-0.9449,-0.9429,-0.949,-0.9599,-0.9614,-0.9614,-0.9614,-0.9614,-0.9562,-0.951,-0.9465,-0.9256,-0.9008,-0.8956,-0.8692,-0.8256,-0.7337,-0.6745,-0.6539,-0.5946,-0.5458,-0.5069,-0.5069,-0.4904,-0.4688,-0.4632,-0.4574,-0.446,-0.4015,-0.3569,-0.3181,-0.2347,-0.179,-0.14,-0.1065,-0.063,-0.0118,-2.2969,-2.3017,-2.2969,-2.2739,-2.2543,-2.242,-2.2359,-2.2247,-2.2197,-2.2197,-2.2197,-2.2197,-2.2197,-2.2197,-2.2197,-2.2197,-2.2197,-2.2197,-2.2197,-2.2197,-2.2029,-2.1668,-2.1308,-2.1031,-2.0863,-2.0863,-2.0779,-2.061,-2.0586,-2.0394,-2.0045,-1.9797,-1.9495,-1.9152,-1.8821,-1.8765,-1.8753,-1.7956,-1.7603,-1.7649,-1.6958,-1.6911,-1.7305,-1.7305,-1.7345,-1.734,-1.6519,-1.6253,-1.6255,-1.541,-1.541,-1.5748,-1.5748,-1.5253,-1.4601,-1.4115,-1.379,-1.3461,-1.3091,-1.2776,-1.2541,-1.241,-1.2608,-1.2696,-1.2017,-1.2126,-1.2175,-1.1769,-1.1469,-1.1477,-1.2026,-1.1778,-1.1528,-1.1678,-1.1358,-1.0939,-1.0598,-1.0294,-0.9998,-0.9765,-0.9643,-0.9614,-0.9614,-0.9614,-0.9614,-0.9614,-0.9614,-0.9614,-0.9614,-0.9458,-0.9309,-0.9061,-0.8844,-0.8461,-0.7925,-0.7122,-0.6529,-0.6209,-0.5782,-0.5458,-0.5183,-0.5128,-0.5018,-0.4798,-0.4743,-0.4632,-0.4519,-0.4294,-0.3959,-0.3514,-0.2736,-0.2179,-0.1734,-0.1121,-0.0797,-0.058,-2.3078,-2.2957,-2.2848,-2.2739,-2.2543,-2.2359,-2.2185,-2.2197,-2.2197,-2.2197,-2.2197,-2.2197,-2.2197,-2.2197,-2.2197,-2.2197,-2.2197,-2.2197,-2.2197,-2.2197,-2.2197,-2.2197,-2.2197,-2.1945,-2.1416,-2.1416,-2.1151,-2.0634,-2.0634,-2.0622,-2.0565,-1.9819,-1.9513,-1.9442,-1.8786,-1.8786,-1.9242,-1.8351,-1.828,-1.8693,-1.7852,-1.7492,-1.7492,-1.7492,-1.691,-1.6045,-1.5974,-1.5371,-1.4515,-1.4515,-1.4515,-1.4515,-1.4515,-1.4515,-1.4433,-1.4011,-1.3882,-1.3708,-1.2786,-1.2429,-1.2287,-1.2136,-1.2274,-1.2382,-1.1977,-1.1877,-1.1778,-1.1377,-1.1326,-1.1326,-1.1326,-1.1628,-1.1778,-1.1377,-1.1619,-1.1678,-1.1023,-1.0667,-1.0368,-1.0051,-0.9777,-0.9614,-0.9614,-0.9614,-0.9614,-0.9614,-0.9614,-0.9614,-0.9614,-0.9458,-0.9361,-0.9211,-0.8508,-0.8025,-0.7925,-0.7871,-0.7337,-0.6209,-0.6209,-0.5887,-0.5297,-0.5183,-0.5124,-0.5069,-0.4798,-0.4691,-0.4632,-0.3904,-0.3627,-0.3514,-0.2291,-0.179,-0.1734,-0.1121,-0.0842,-0.0673,-2.2969,-2.2848,-2.2739,-2.2678,-2.2543,-2.242,-2.2359,-2.2247,-2.2197,-2.2197,-2.2197,-2.2197,-2.2197,-2.2197,-2.2197,-2.2197,-2.2197,-2.2197,-2.2197,-2.2197,-2.2197,-2.2197,-2.2197,-2.2125,-2.1957,-2.1957,-2.1873,-2.1716,-2.1716,-2.1271,-2.0412,-2.0159,-1.9603,-1.8797,-1.8616,-1.8544,-1.8523,-1.7729,-1.742,-1.7368,-1.6563,-1.65,-1.6888,-1.6888,-1.6924,-1.694,-1.6264,-1.5785,-1.546,-1.4717,-1.4515,-1.4515,-1.4515,-1.4515,-1.4488,-1.4359,-1.4112,-1.3827,-1.358,-1.2941,-1.2322,-1.1826,-1.1877,-1.1977,-1.1569,-1.1728,-1.1778,-1.1377,-1.1326,-1.1326,-1.1326,-1.1427,-1.1427,-1.1326,-1.1427,-1.1427,-1.1226,-1.0972,-1.0667,-1.0411,-1.0051,-0.9784,-0.9614,-0.9614,-0.9614,-0.9614,-0.9614,-0.9614,-0.9614,-0.9562,-0.9465,-0.9361,-0.904,-0.862,-0.8025,-0.7171,-0.6529,-0.6209,-0.5782,-0.5458,-0.5297,-0.5242,-0.5183,-0.5069,-0.5018,-0.4853,-0.4688,-0.4463,-0.4298,-0.4128,-0.3347,-0.2792,-0.2347,-0.1734,-0.1232,-0.0842,-2.2909,-2.286,-2.2739,-2.2616,-2.2482,-2.2359,-2.2297,-2.2247,-2.2197,-2.2197,-2.2197,-2.2197,-2.2197,-2.2197,-2.2197,-2.2197,-2.2197,-2.2197,-2.2197,-2.2197,-2.2197,-2.2197,-2.1925,-2.1925,-2.2185,-2.2197,-2.2197,-2.2197,-2.2197,-2.1634,-2.0614,-2.0279,-1.9558,-1.8607,-1.8237,-1.8226,-1.8343,-1.7501,-1.7252,-1.7317,-1.6487,-1.6364,-1.6694,-1.6694,-1.685,-1.6978,-1.6344,-1.6018,-1.5747,-1.4995,-1.4643,-1.4515,-1.4515,-1.4515,-1.4515,-1.4515,-1.4332,-1.4093,-1.3928,-1.3469,-1.2833,-1.2289,-1.1959,-1.1678,-1.1377,-1.1477,-1.1569,-1.1368,-1.1326,-1.1326,-1.1326,-1.1326,-1.1326,-1.1326,-1.1326,-1.1326,-1.1326,-1.1074,-1.082,-1.0667,-1.0257,-0.9947,-0.9777,-0.9666,-0.9614,-0.9614,-0.9614,-0.9614,-0.9614,-0.9614,-0.9458,-0.9152,-0.8995,-0.8573,-0.7877,-0.702,-0.6426,-0.6209,-0.5832,-0.5513,-0.5297,-0.5297,-0.5242,-0.5183,-0.5128,-0.5014,-0.4853,-0.4743,-0.4632,-0.4519,-0.3849,-0.3403,-0.2959,-0.2125,-0.1568,-0.1176,-2.3058,-2.2997,-2.2936,-2.2628,-2.2504,-2.2504,-2.2392,-2.2294,-2.2258,-2.2258,-2.2221,-2.2197,-2.2197,-2.2234,-2.2258,-2.2258,-2.2258,-2.2246,-2.2197,-2.2123,-2.2123,-2.2197,-2.1463,-2.1325,-2.2061,-2.2123,-2.2123,-2.2123,-2.2185,-2.1788,-2.0996,-2.0193,-1.941,-1.87,-1.7862,-1.7862,-1.8375,-1.7569,-1.756,-1.8075,-1.7226,-1.6908,-1.6908,-1.6908,-1.6679,-1.6367,-1.6331,-1.6074,-1.568,-1.5249,-1.4864,-1.4561,-1.4524,-1.4515,-1.4515,-1.4515,-1.4515,-1.4433,-1.4047,-1.3853,-1.3621,-1.3267,-1.2387,-1.1565,-1.1437,-1.1352,-1.1326,-1.1326,-1.1326,-1.1326,-1.1326,-1.1326,-1.1326,-1.1326,-1.1326,-1.1326,-1.1326,-1.1074,-1.0922,-1.0922,-1.0411,-1.0051,-0.9999,-0.9777,-0.9614,-0.9614,-0.9614,-0.9614,-0.9614,-0.9614,-0.9354,-0.8883,-0.8573,-0.8156,-0.7574,-0.73,-0.6864,-0.6263,-0.6209,-0.5887,-0.5407,-0.5297,-0.5297,-0.5297,-0.5183,-0.5128,-0.5069,-0.4798,-0.4688,-0.4632,-0.3962,-0.3624,-0.3461,-0.2291,-0.1846,-0.1679,-2.4008,-2.3867,-2.3737,-2.3673,-2.3542,-2.3555,-2.3608,-2.3128,-2.2811,-2.2811,-2.245,-2.2197,-2.2197,-2.2558,-2.2811,-2.2811,-2.2811,-2.263,-2.2221,-2.1663,-2.1588,-2.2185,-2.1008,-2.0613,-2.1325,-2.1325,-2.1325,-2.1325,-2.1925,-2.1537,-2.0291,-2.0096,-1.9299,-1.7901,-1.7706,-1.7657,-1.7657,-1.7382,-1.7295,-1.7364,-1.7038,-1.6908,-1.6908,-1.6908,-1.6853,-1.6743,-1.6431,-1.6257,-1.6074,-1.534,-1.5038,-1.4919,-1.4607,-1.4515,-1.4515,-1.4515,-1.4515,-1.4488,-1.4405,-1.413,-1.3807,-1.3603,-1.3048,-1.2395,-1.2009,-1.1593,-1.1326,-1.1326,-1.1326,-1.1326,-1.1326,-1.1326,-1.1326,-1.1326,-1.1326,-1.1326,-1.1326,-1.1226,-1.1124,-1.0922,-1.0616,-1.0308,-1.0051,-0.9777,-0.9614,-0.9614,-0.9614,-0.9614,-0.9614,-0.9614,-0.9562,-0.9458,-0.8988,-0.8573,-0.8209,-0.7681,-0.7246,-0.6918,-0.6426,-0.6154,-0.5996,-0.5513,-0.5297,-0.5297,-0.5242,-0.5183,-0.5069,-0.4904,-0.4794,-0.4688,-0.4408,-0.4015,-0.3514,-0.2792,-0.2179,-0.1679,-2.4365,-2.4222,-2.4091,-2.3959,-2.3827,-2.3839,-2.3893,-2.3598,-2.3364,-2.3364,-2.3111,-2.2943,-2.2943,-2.3195,-2.3364,-2.3364,-2.3364,-2.3102,-2.2415,-2.2055,-2.1793,-2.1793,-2.0773,-2.0368,-2.0695,-2.0544,-2.0511,-2.0613,-2.1336,-2.0933,-1.9573,-1.9824,-1.9156,-1.7706,-1.7501,-1.7442,-1.7314,-1.7176,-1.7038,-1.7038,-1.6968,-1.6908,-1.6908,-1.6908,-1.6908,-1.6881,-1.667,-1.6477,-1.6257,-1.5826,-1.5542,-1.5313,-1.4919,-1.479,-1.4753,-1.457,-1.4515,-1.4515,-1.4515,-1.435,-1.4185,-1.4127,-1.3645,-1.3028,-1.2254,-1.18,-1.149,-1.131,-1.1326,-1.1326,-1.1326,-1.1326,-1.1326,-1.1326,-1.1326,-1.1326,-1.1326,-1.1326,-1.1226,-1.1124,-1.0871,-1.0514,-1.0051,-0.9777,-0.9614,-0.9614,-0.9614,-0.9614,-0.9614,-0.9614,-0.951,-0.9309,-0.8725,-0.8196,-0.7883,-0.7348,-0.7025,-0.6864,-0.6426,-0.6046,-0.5782,-0.5462,-0.5297,-0.5297,-0.5297,-0.5242,-0.5183,-0.5069,-0.4904,-0.4794,-0.4632,-0.4349,-0.3959,-0.3347,-0.2569,-0.1679,-2.4715,-2.457,-2.4504,-2.4171,-2.4104,-2.4037,-2.4037,-2.3953,-2.3893,-2.3893,-2.3821,-2.3773,-2.3773,-2.3845,-2.3893,-2.3893,-2.3826,-2.3443,-2.265,-2.2366,-2.1943,-2.1457,-2.0613,-2.0186,-2.0329,-1.9827,-1.976,-2.003,-2.0658,-2.0279,-1.9044,-1.9486,-1.8946,-1.7706,-1.7373,-1.7235,-1.7166,-1.6968,-1.6908,-1.6908,-1.6908,-1.6908,-1.6908,-1.6908,-1.6908,-1.6908,-1.6908,-1.6697,-1.6413,-1.634,-1.6083,-1.5725,-1.5322,-1.5157,-1.5038,-1.4708,-1.4561,-1.4515,-1.4515,-1.4515,-1.4515,-1.4515,-1.4132,-1.3516,-1.2527,-1.2104,-1.1756,-1.1439,-1.1319,-1.1326,-1.1326,-1.1326,-1.1326,-1.1326,-1.1326,-1.1326,-1.1326,-1.1326,-1.1326,-1.1326,-1.1074,-1.0667,-1.0051,-0.9777,-0.9666,-0.9614,-0.9614,-0.9614,-0.9614,-0.9614,-0.9465,-0.9106,-0.8362,-0.7818,-0.7391,-0.6858,-0.6588,-0.6485,-0.6213,-0.5891,-0.5462,-0.5352,-0.5297,-0.5297,-0.5297,-0.5297,-0.5297,-0.5128,-0.5014,-0.4901,-0.4743,-0.4632,-0.4463,-0.3849,-0.2847,-0.1734,-2.599,-2.577,-2.562,-2.5399,-2.5247,-2.5107,-2.5107,-2.4711,-2.4422,-2.4422,-2.4037,-2.3773,-2.3773,-2.4157,-2.4422,-2.4422,-2.3792,-2.3179,-2.2673,-2.1376,-2.0825,-2.1387,-2.0124,-1.9703,-2.0257,-1.9643,-1.9474,-1.9781,-2.0106,-1.9835,-1.8977,-1.91,-1.8566,-1.7706,-1.752,-1.7392,-1.7166,-1.6968,-1.6908,-1.6908,-1.6908,-1.6908,-1.6908,-1.6908,-1.6908,-1.6908,-1.6908,-1.6872,-1.6771,-1.6431,-1.6285,-1.6156,-1.5744,-1.5377,-1.5093,-1.5038,-1.4781,-1.4515,-1.4515,-1.4515,-1.4515,-1.4515,-1.435,-1.406,-1.3354,-1.2633,-1.2,-1.1781,-1.1499,-1.1326,-1.1326,-1.1326,-1.1326,-1.1326,-1.1326,-1.1326,-1.1326,-1.1326,-1.1326,-1.1326,-1.1074,-1.0667,-1.0051,-0.9947,-0.9836,-0.9614,-0.9614,-0.9614,-0.9614,-0.9614,-0.9562,-0.951,-0.8732,-0.815,-0.7818,-0.7074,-0.6436,-0.59,-0.5845,-0.595,-0.605,-0.5513,-0.5297,-0.5297,-0.5297,-0.5297,-0.5297,-0.5128,-0.5069,-0.5069,-0.4798,-0.4688,-0.4577,-0.3849,-0.2847,-0.179,-2.627,-2.6131,-2.598,-2.5676,-2.5535,-2.5453,-2.5312,-2.5107,-2.4963,-2.4963,-2.4771,-2.4626,-2.4626,-2.4831,-2.4963,-2.4963,-2.4671,-2.4002,-2.2921,-2.2179,-2.1523,-2.0944,-2.0367,-2.0141,-2.0432,-1.9905,-1.9688,-1.9773,-2.0097,-1.9869,-1.9194,-1.9346,-1.895,-1.8191,-1.7762,-1.752,-1.7323,-1.7176,-1.6968,-1.6908,-1.6908,-1.6908,-1.6908,-1.6908,-1.6908,-1.6908,-1.6908,-1.6908,-1.6881,-1.6707,-1.6642,-1.6578,-1.6166,-1.5918,-1.5689,-1.523,-1.4974,-1.479,-1.457,-1.4515,-1.4515,-1.4515,-1.4455,-1.4282,-1.3847,-1.3252,-1.2622,-1.1927,-1.166,-1.1524,-1.131,-1.1326,-1.1326,-1.1326,-1.1326,-1.1326,-1.1326,-1.1326,-1.1326,-1.1326,-1.1074,-1.0718,-1.0308,-1.0102,-0.9888,-0.9614,-0.9614,-0.9614,-0.9614,-0.9614,-0.9614,-0.9614,-0.9047,-0.8685,-0.8521,-0.7503,-0.681,-0.6431,-0.6009,-0.5791,-0.5673,-0.5407,-0.5297,-0.5297,-0.5297,-0.5297,-0.5297,-0.5242,-0.5183,-0.5069,-0.4963,-0.4853,-0.4632,-0.3849,-0.3236,-0.2736]},{"header":{"parameterUnit":"m.s-1","parameterCategory":1,"la1":30.6,"la2":28.766,"lo1":-90.7593,"lo2":-88.6598,"dy":0.0162,"dx":0.0183,"nx":116,"ny":114,"refTime":"2024-05-24T12:00:00:Z","depth":0,"parameterNumber":3,"parameterNumberName":"V-component_of_WINDS"},"data":[0.0,0.0,0.0,0.0,0.0,0.0,0.0,0.0,0.0,0.0,0.0,0.0,0.0,0.0,0.0,0.0,0.0,0.0,0.0,0.0,0.0,0.0,0.0,0.0,0.0,0.0,0.0,0.0,0.0,0.0,0.0,0.0,0.0,0.0,0.0,0.0,0.0,0.0,0.0,0.0,0.0,0.0,0.0,0.0,0.0,0.0,0.0,0.0,0.0,0.0,0.0,0.0,0.0,0.0,0.0,0.0,0.0,0.0,0.0,0.0,0.0,0.0,0.0,0.0,0.0,0.0,0.0,0.0,0.0,0.0,0.0,0.0,0.0,0.0,0.0,0.0,0.0,0.0,0.0,0.0,0.0,0.0,0.0,0.0,0.0,0.0,0.0,0.0,0.0,0.0,0.0,0.0,0.0,0.0,0.0,0.0,0.0,0.0,0.0,0.0,0.0,0.0,0.0,0.0,0.0,0.0,0.0,0.0,0.0,0.0,0.0,0.0,0.0,0.0,0.0,0.0,0.0,0.0,0.0,0.0,0.0,0.0,0.0,0.0,0.0,0.0,0.0,0.0,0.0,0.0,0.0,0.0,0.0,0.0,0.0,0.0,0.0,0.0,0.0,0.0,0.0,0.0,0.0,0.0,0.0,0.0,0.0,0.0,0.0,0.0,0.0,0.0,0.0,0.0,0.0,0.0,0.0,0.0,0.0,0.0,0.0,0.0,0.0,0.0,0.0,0.0,0.0,0.0,0.0,0.0,0.0,0.0,0.0,0.0,0.0,0.0,0.0,0.0,0.0,0.0,0.0,0.0,0.0,0.0,0.0,0.0,0.0,0.0,0.0,0.0,0.0,0.0,0.0,0.0,0.0,0.0,0.0,0.0,0.0,0.0,0.0,0.0,0.0,0.0,0.0,0.0,0.0,0.0,0.0,0.0,0.0,0.0,0.0,0.0,0.0,0.0,0.0,0.0,0.0,0.0,0.0,0.0,0.0,0.0,0.0,0.0,0.0,0.0,0.0,0.0,0.0,0.0,0.0,0.0,0.0,0.0,0.0,0.0,0.0,0.0,0.0,0.0,0.0,0.0,0.0,0.0,0.0,0.0,0.0,0.0,0.0,0.0,0.0,0.0,0.0,0.0,0.0,0.0,0.0,0.0,0.0,0.0,0.0,0.0,0.0,0.0,0.0,0.0,0.0,0.0,0.0,0.0,0.0,0.0,0.0,0.0,0.0,0.0,0.0,0.0,0.0,0.0,0.0,0.0,0.0,0.0,0.0,0.0,0.0,0.0,0.0,0.0,0.0,0.0,0.0,0.0,0.0,0.0,0.0,0.0,0.0,0.0,0.0,0.0,0.0,0.0,0.0,0.0,0.0,0.0,0.0,0.0,0.0,0.0,0.0,0.0,0.0,0.0,0.0,0.0,0.0,0.0,0.0,0.0,0.0,0.0,0.0,0.0,0.0,0.0,0.0,0.0,0.0,0.0,0.0,0.0,0.0,0.0,0.0,0.0,0.0,0.0,0.0,0.0,0.0,0.0,0.0,0.0,0.0,0.0,0.0,0.0,0.0,0.0,0.0,0.0,0.0,0.0,0.0,0.0,0.0,0.0,0.0,0.0,0.0,0.0,0.0,0.0,0.0,0.0,0.0,0.0,0.0,0.0,0.0,0.0,0.0,0.0,0.0,0.0,0.0,0.0,0.0,0.0,0.0,0.0,0.0,0.0,0.0,0.0,0.0,0.0,0.0,0.0,0.0,0.0,0.0,0.0,0.0,0.0,0.0,0.0,0.0,0.0,0.0,0.0,0.0,0.0,0.0,0.0,0.0,0.0,0.0,0.0,0.0,0.0,0.0,0.0,0.0,0.0,0.0,0.0,0.0,0.0,0.0,0.0,0.0,0.0,0.0,0.0,0.0,0.0,0.0,0.0,0.0,0.0,0.0,0.0,0.0,0.0,0.0,0.0,0.0,0.0,0.0,0.0,0.0,0.0,0.0,0.0,0.0,0.0,0.0,0.0,0.0,0.0,0.0,0.0,0.0,0.0,0.0,0.0,0.0,0.0,0.0,0.0,0.0,0.0,0.0,0.0,0.0,0.0,0.0,0.0,0.0,0.0,0.0,0.0,0.0,0.0,0.0,0.0,0.0,0.0,0.0,0.0,0.0,0.0,0.0,0.0,0.0,0.0,0.0,0.0,0.0,0.0,0.0,0.0,0.0,0.0,0.0,0.0,0.0,0.0,0.0,0.0,0.0,0.0,0.0,0.0,0.0,0.0,0.0,0.0,0.0,0.0,0.0,0.0,0.0,0.0,0.0,0.0,0.0,0.0,0.0,0.0,0.0,0.0,0.0,0.0,0.0,0.0,0.0,0.0,0.0,0.0,0.0,0.0,0.0,0.0,0.0,0.0,0.0,0.0,0.0,0.0,0.0,0.0,0.0,0.0,0.0,0.0,0.0,0.0,0.0,0.0,0.0,0.0,0.0,0.0,0.0,0.0,0.0,0.0,0.0,0.0,0.0,0.0,0.0,0.0,0.0,0.0,0.0,0.0,0.0,0.0,0.0,0.0,0.0,0.0,0.0,0.0,0.0,0.0,0.0,0.0,0.0,0.0,0.0,0.0,0.0,0.0,0.0,0.0,0.0,0.0,0.0,0.0,0.0,0.0,0.0,0.0,0.0,0.0,0.0,0.0,0.0,0.0,0.0,0.0,0.0,0.0,0.0,0.0,0.0,0.0,0.0,0.0,0.0,0.0,0.0,0.0,0.0,0.0,0.0,0.0,0.0,0.0,0.0,0.0,0.0,0.0,0.0,0.0,0.0,0.0,0.0,0.0,0.0,0.0,0.0,0.0,0.0,0.0,0.0,0.0,0.0,0.0,0.0,0.0,0.0,0.0,0.0,0.0,0.0,0.0,0.0,0.0,0.0,0.0,0.0,0.0,0.0,0.0,0.0,0.0,0.0,0.0,0.0,0.0,0.0,0.0,0.0,0.0,0.0,0.0,0.0,0.0,0.0,0.0,0.0,0.0,0.0,0.0,0.0,0.0,0.0,0.0,0.0,0.0,0.0,0.0,0.0,0.0,0.0,0.0,0.0,0.0,0.0,0.0,0.0,0.0,0.0,0.0,0.0,0.0,0.0,0.0,0.0,0.0,0.0,0.0,0.0,0.0,0.0,0.0,0.0,0.0,0.0,0.0,0.0,0.0,0.0,0.0,0.0,0.0,0.0,0.0,0.0,0.0,0.0,0.0,0.0,0.0,0.0,0.0,0.0,0.0,0.0,0.0,0.0,0.0,0.0,0.0,0.0,0.0,0.0,0.0,0.0,0.0,0.0,0.0,0.0,0.0,0.0,0.0,0.0,0.0,0.0,0.0,0.0,0.0,0.0,0.0,0.0,0.0,0.0,0.0,0.0,0.0,0.0,0.0,0.0,0.0,0.0,0.0,0.0,0.0,0.0,0.0,0.0,0.0,0.0,0.0,0.0,0.0,0.0,0.0,0.0,0.0,0.0,0.0,0.0,0.0,0.0,0.0,0.0,0.0,0.0,0.0,0.0,0.0,0.0,0.0,0.0,0.0,0.0,0.0,0.0,0.0,0.0,0.0,0.0,0.0,0.0,0.0,0.0,0.0,0.0,0.0,0.0,0.0,0.0,0.0,0.0,0.0,0.0,0.0,0.0,0.0,0.0,0.0,0.0,0.0,0.0,0.0,0.0,0.0,0.0,0.0,0.0,0.0,0.0,0.0,0.0,0.0,0.0,0.0,0.0,0.0,0.0,0.0,0.0,0.0,0.0,0.0,0.0,0.0,0.0,0.0,0.0,0.0,0.0,0.0,0.0,0.0,0.0,0.0,0.0,0.0,0.0,0.0,0.0,0.0,0.0,0.0,0.0,0.0,0.0,0.0,0.0,0.0,0.0,0.0,0.0,0.0,0.0,0.0,0.0,0.0,0.0,0.0,0.0,0.0,0.0,0.0,0.0,0.0,0.0,0.0,0.0,0.0,0.0,0.0,0.0,0.0,0.0,0.0,0.0,0.0,0.0,0.0,0.0,0.0,0.0,0.0,0.0,0.0,0.0,0.0,0.0,0.0,0.0,0.0,0.0,0.0,0.0,0.0,0.0,0.0,0.0,0.0,0.0,0.0,0.0,0.0,0.0,0.0,0.0,0.0,0.0,0.0,0.0,0.0,0.0,0.0,0.0,0.0,0.0,0.0,0.0,0.0,0.0,0.0,0.0,0.0,0.0,0.0,0.0,0.0,0.0,0.0,0.0,0.0,0.0,0.0,0.0,0.0,0.0,0.0,0.0,0.0,0.0,0.0,0.0,0.0,0.0,0.0,0.0,0.0,0.0,0.0,0.0,0.0,0.0,0.0,0.0,0.0,0.0,0.0,0.0,0.0,0.0,0.0,0.0,0.0,0.0,0.0,0.0,0.0,0.0,0.0,0.0,0.0,0.0,0.0,0.0,0.0,0.0,0.0,0.0,0.0,0.0,0.0,0.0,0.0,0.0,0.0,0.0,0.0,0.0,0.0,0.0,0.0,0.0,0.0,0.0,0.0,0.0,0.0,0.0,0.0,0.0,0.0,0.0,0.0,0.0,0.0,0.0,0.0,0.0,0.0,0.0,0.0,0.0,0.0,0.0,0.0,0.0,0.0,0.0,0.0,0.0,0.0,0.0,0.0,0.0,0.0,0.0,0.0,0.0,0.0,0.0,0.0,0.0,0.0,0.0,0.0,0.0,0.0,0.0,0.0,0.0,0.0,0.0,0.0,0.0,0.0,0.0,0.0,0.0,0.0,0.0,0.0,0.0,0.0,0.0,0.0,0.0,0.0,0.0,0.0,0.0,0.0,0.0,0.0,0.0,0.0,0.0,0.0,0.0,0.0,0.0,0.0,0.0,0.0,0.0,0.0,0.0,0.0,0.0,0.0,0.0,0.0,0.0,0.0,0.0,0.0,0.0,0.0,0.0,0.0,0.0,0.0,0.0,0.0,0.0,0.0,0.0,0.0,0.0,0.0,0.0,0.0,0.0,0.0,0.0,0.0,0.0,0.0,0.0,0.0,0.0,0.0,0.0,0.0,0.0,0.0,0.0,0.0,0.0,0.0,0.0,0.0,0.0,0.0,0.0,0.0,0.0,0.0,0.0,0.0,0.0,0.0,0.0,0.0,0.0,0.0,0.0,0.0,0.0,0.0,0.0,0.0,0.0,0.0,0.0,0.0,0.0,0.0,0.0,0.0,0.0,0.0,0.0,0.0,0.0,0.0,0.0,0.0,0.0,0.0,0.0,0.0,0.0,0.0,0.0,0.0,0.0,0.0,0.0,0.0,0.0,0.0,0.0,0.0,0.0,0.0,0.0,0.0,0.0,0.0,0.0,0.0,0.0,0.0,0.0,0.0,0.0,0.0,0.0,0.0,0.0,0.0,0.0,0.0,0.0,0.0,0.0,0.0,0.0,0.0,0.0,0.0,0.0,0.0,0.0,0.0,0.0,0.0,0.0,0.0,0.0,0.0,0.0,0.0,0.0,0.0,0.0,0.0,0.0,0.0,0.0,0.0,0.0,0.0,0.0,0.0,0.0,0.0,0.0,0.0,0.0,0.0,0.0,0.0,0.0,0.0,0.0,0.0,0.0,0.0,0.0,0.0,0.0,0.0,0.0,0.0,0.0,0.0,0.0,0.0,0.0,0.0,0.0,0.0,0.0,0.0,0.0,0.0,0.0,0.0,0.0,0.0,0.0,0.0,0.0,0.0,0.0,0.0,0.0,0.0,0.0,0.0,0.0,0.0,0.0,0.0,0.0,0.0,0.0,0.0,0.0,0.0,0.0,0.0,0.0,0.0,0.0,0.0,0.0,0.0,0.0,0.0,0.0,0.0,0.0,0.0,0.0,0.0,0.0,0.0,0.0,0.0,0.0,0.0,0.0,0.0,0.0,0.0,0.0,0.0,0.0,0.0,0.0,0.0,0.0,0.0,0.0,0.0,0.0,0.0,0.0,0.0,0.0,0.0,0.0,0.0,0.0,0.0,0.0,0.0,0.0,0.0,0.0,0.0,0.0,0.0,0.0,0.0,0.0,0.0,0.0,0.0,0.0,0.0,0.0,0.0,0.0,0.0,0.0913,0.0,0.0,0.0,0.0,0.0,0.0,0.0,0.0,0.0,0.0,0.0,0.0,0.0,0.0,0.0,0.0,0.0,0.0,0.0,0.0,0.0,0.0,0.0,0.0,0.142,0.033,0.0298,-0.0273,-0.0714,-0.0886,0.0,0.0,0.0,0.0,0.0,0.1643,0.2983,0.4665,0.6716,0.741,0.8779,1.0749,1.0798,1.0468,0.9859,0.0,0.0,0.0,0.0,0.0,0.0,0.0,0.0,0.0,0.0,0.0,0.0,0.0,0.0,0.0,0.0,0.0,0.0,0.0,0.0,0.0,0.0,0.0,0.0,0.0,0.0,0.0,0.0,0.0,0.0,0.0,0.0,0.0,0.0,0.0,0.0,0.0,0.0,0.0,0.0,0.0,0.0,0.0,0.0,0.0,0.0,0.0,0.0,0.0,0.0,0.0,0.0,0.0,0.0,0.0,0.0,0.0,0.0,0.0,0.0,0.0,0.0,0.0,0.0,0.0,0.0,0.0,0.0,0.0,0.0,0.0,0.0962,0.0,0.0,0.0,0.0,0.0,0.0,0.0,0.0,0.0,0.0,0.0,0.0,0.0,0.0,0.0,0.0,0.0,0.0,0.0,0.0,0.0,0.0939,0.0881,-0.1095,-0.226,-0.1835,-0.2284,-0.2444,-0.2047,-0.1869,0.0,0.0,0.0,-0.036,0.0096,0.1983,0.4499,0.7614,0.8561,1.038,1.2946,1.4279,1.394,1.2171,1.1883,0.0,0.0,0.0,0.0,0.0,0.0,0.0,0.0,0.0,0.0,0.0,0.0,0.0,0.0,0.0,0.0,0.0,0.0,0.0,0.0,0.0,0.0,0.0,0.0,0.0,0.0,0.0,0.0,0.0,0.0,0.0,0.0,0.0,0.0,0.0,0.0,0.0,0.0,0.0,0.0,0.0,0.0,0.0,0.0,0.0,0.0,0.0,0.0,0.0,0.0,0.0,0.0,0.0,0.0,0.0,0.0,0.0,0.0,0.0,0.0,0.0,0.0,0.0,0.0,0.1626,0.1991,0.2101,0.2422,0.2769,0.1941,0.1544,0.1464,0.0,0.0,0.0,0.0,0.0,0.0,0.0,0.0,0.0,0.0,0.0,0.0,0.0,0.0,0.0,0.0,0.0,0.0,0.0,0.0,-0.2797,-0.2797,-0.3121,-0.3869,-0.5219,-0.4631,-0.4833,-0.6355,-0.5694,0.0,0.0,-0.4536,-0.3136,-0.0295,0.1284,0.4025,0.8026,1.2015,1.4439,1.536,1.6482,1.6824,1.6405,1.4491,1.4029,1.4514,0.0,0.0,0.0,0.0,0.0,0.0,0.0,0.0,0.0,0.0,0.0,0.0,0.0,0.0,0.0,0.0,0.0,0.0,0.0,0.0,0.0,0.0,0.0,0.0,0.0,0.0,0.0,0.0,0.0,0.0,0.0,0.0,0.0,0.0,0.0,0.0,0.0,0.0,0.0,0.0,0.0,0.6975,0.6986,0.0,0.0,0.0,0.0,0.0,0.0,0.0,0.0,0.0,0.0,0.0,0.0,0.0,0.0,0.1087,0.1657,0.1945,0.1963,0.2481,0.2765,0.2857,0.2845,0.2913,0.2995,0.2813,0.0,0.1148,0.1,0.0,0.0,0.0,0.0,0.0,0.0,0.0,0.0,0.0,0.0,0.0,0.0,0.0,0.0,0.0,0.0,0.0,0.0,0.0,0.0,0.0,-0.6718,-0.765,-0.7886,-0.8808,-0.8924,-0.7827,-0.7812,-0.7373,-0.6264,-0.4544,-0.2911,-0.1405,0.1669,0.5407,0.9851,1.4705,1.6814,1.6331,1.7765,1.8335,1.8159,1.7569,1.6514,1.5034,1.3827,0.0,0.0,0.0,0.0,0.0,0.0,0.0,0.0,0.0,0.0,0.0,0.0,0.0,0.0,0.0,0.0,0.0,0.0,0.0,0.0,0.0,0.0,0.0,0.0,0.0,0.0,0.0,0.0,0.0,0.0,0.0,0.0,0.0,0.0,0.0,0.0,0.0,0.0,0.0,0.6607,0.7295,0.7338,0.7266,0.6848,0.0,0.0,0.0,0.0,0.0,0.0,0.0,0.0,0.0,0.1394,0.1586,0.1849,0.2142,0.2483,0.2686,0.2733,0.3075,0.3278,0.326,0.326,0.326,0.326,0.2783,0.1989,0.1143,0.1051,0.0499,-0.0376,0.0,0.0,0.0,0.0,0.0,-0.2307,0.0,0.0,0.0,0.0,0.0,0.0,0.0,0.0,0.0,0.0,0.0,0.0,-0.8143,-1.0145,-1.1294,-1.1083,-1.2394,-1.2347,-1.023,-0.9904,-0.9134,-0.7643,-0.4911,-0.2751,-0.1309,0.363,0.8066,1.1918,1.6355,1.8037,1.7104,1.8437,1.904,1.9059,1.9509,1.8515,1.6455,1.5365,1.4111,1.2728,0.0,0.0,0.0,0.0,0.0,0.0,0.0,0.0,0.0,0.0,0.0,0.0,0.0,0.0,0.0,0.0,0.0,0.0,0.0,0.0,0.0,0.0,0.0,0.0,0.0,0.0,0.0,0.0,0.0,0.0,0.0,0.0,0.0,0.0,0.0,0.0,0.0,0.7882,0.8445,0.8416,0.8658,0.8278,0.0,0.0,0.0,0.0,0.0,0.0,0.2401,0.2221,0.2213,0.2404,0.2429,0.2598,0.3122,0.315,0.3094,0.2951,0.3013,0.3002,0.284,0.284,0.284,0.284,0.2183,0.1512,0.0844,0.0769,0.0367,-0.03,-0.0744,-0.0908,-0.0921,-0.115,-0.1894,-0.2653,0.0,0.0,0.0,0.0,0.0,0.0,0.0,0.0,0.0,0.0,0.0,-0.8684,-1.1522,-1.2685,-1.3883,-1.545,-1.4229,-1.399,-1.5413,-1.2558,-1.0335,-0.9239,-0.7265,-0.3868,0.1104,0.7861,1.2166,1.3857,1.6471,1.789,1.8144,1.8467,1.8896,1.9383,1.9222,1.9808,2.0747,1.7432,1.6608,1.7219,1.3305,0.0,0.0,0.0,0.0,0.0,0.0,0.0,0.0,0.0,0.0,0.0,0.0,0.0,0.0,0.0,0.0,0.0,0.0,0.0,0.0,0.0,0.0,0.0,0.0,0.0,0.0,0.0,0.0,0.0,0.0,0.0,0.0,0.0,0.0,0.0,0.0,0.0,0.0,1.1233,1.0994,0.0,0.0,0.0,0.0,0.676,0.541,0.4522,0.4292,0.3535,0.316,0.3332,0.3228,0.325,0.3411,0.3434,0.3045,0.2247,0.2249,0.1889,0.109,0.109,0.109,0.109,0.109,0.0654,-0.0,0.0,-0.0337,-0.0964,-0.0962,-0.1008,-0.1106,-0.1781,-0.2453,-0.3003,0.0,0.0,0.0,0.0,0.0,0.1367,-0.0291,-0.2705,-0.5134,-0.7371,-0.7344,-0.7682,-0.9169,-0.8717,-0.8499,-0.8979,-0.9446,-0.9287,-0.8251,-0.7821,-0.6832,-0.507,-0.2753,0.1127,0.6759,1.0605,1.3178,1.4444,1.6559,1.7461,1.7263,1.8138,1.8788,1.9236,1.9687,2.0276,2.0819,1.8647,1.7444,1.6824,1.4953,1.348,0.0,0.0,0.0,0.0,0.0,0.0,0.0,0.0,0.0,0.0,0.0,0.0,0.0,0.0,0.0,0.0,0.0,0.0,0.0,0.0,0.0,0.0,0.0,0.0,0.0,0.0,0.0,0.0,0.0,0.0,0.0,0.0,0.0,0.0,0.0,0.0,0.0,1.1388,1.1739,0.0,0.0,0.9455,0.8635,0.7793,0.6356,0.537,0.5021,0.3944,0.34,0.3489,0.3385,0.3132,0.2655,0.2726,0.2387,0.1491,0.1591,0.145,0.1221,0.1221,0.0915,0.0381,0.0381,-0.0076,-0.0838,-0.0833,-0.0953,-0.1119,-0.1119,-0.1459,-0.1927,-0.2202,-0.3023,-0.4046,0.0,0.0,0.0,0.0,0.2795,0.0759,-0.0894,-0.2692,-0.4626,-0.674,-0.5846,-0.6075,-0.8887,-0.8456,-0.8602,-1.0236,-1.1098,-1.0977,-0.9562,-0.7922,-0.6255,-0.4527,0.0425,0.5256,0.9788,1.1919,1.3535,1.4657,1.6262,1.6976,1.6892,1.7626,1.8313,1.8835,1.9332,1.9778,2.0196,1.9319,1.8408,1.7483,1.6369,1.5281,1.4222,0.0,0.0,0.0,0.0,0.0,0.0,0.0,0.0,0.0,0.0,0.0,0.0,0.0,0.0,0.0,0.0,0.0,0.0,0.0,0.0,0.0,0.0,0.0,0.0,0.0,0.0,0.0,0.0,0.0,0.0,0.0,0.0,0.0,0.0,0.0,1.4458,1.3564,1.3986,1.3892,1.2842,1.2184,1.1501,1.0736,0.8368,0.6863,0.6584,0.4739,0.3741,0.3832,0.3763,0.3409,0.2911,0.2125,0.1454,0.0842,0.0855,0.0705,0.0392,0.0157,-0.0313,-0.086,-0.1173,-0.1408,-0.1721,-0.1726,-0.1695,-0.1644,-0.163,-0.1981,-0.2474,-0.298,-0.3844,-0.464,0.0,0.0,0.0,0.4207,0.3515,0.2911,0.2306,0.2098,0.1366,-0.0457,-0.1131,-0.4015,-1.0777,-1.2074,-1.4465,-1.9453,-1.9244,-1.9161,-1.995,-1.3287,-0.8852,-0.7845,0.1762,0.7989,0.9933,1.1914,1.3479,1.4596,1.5659,1.6534,1.7157,1.7086,1.7475,1.8266,1.8068,1.8447,1.9207,1.9449,1.9604,1.95,1.7562,1.6882,1.6869,0.0,0.0,0.0,0.0,0.0,0.0,0.0,0.0,0.0,0.0,0.0,0.0,0.0,0.0,0.0,0.0,0.0,0.0,0.0,0.0,0.0,0.0,0.0,0.0,0.0,0.0,0.0,0.0,0.0,0.0,0.0,0.0,0.0,1.6439,1.691,1.7512,1.7886,1.7758,1.7593,1.7537,1.6488,1.571,1.5534,1.1397,0.8918,0.9034,0.5919,0.4201,0.4455,0.4159,0.3982,0.4157,0.1644,0.0392,0.0314,0.0078,-0.0549,-0.1335,-0.2198,-0.2588,-0.2588,-0.3443,-0.3365,-0.2588,-0.2588,-0.251,-0.2504,-0.2522,-0.2461,-0.2698,-0.4145,-0.4723,-0.4867,0.0,0.0,0.4786,0.4486,0.373,0.2574,0.0822,0.0317,-0.0553,-0.2525,-0.132,-0.0868,-0.2432,-0.3796,-0.5116,-0.6388,-0.9004,-1.0684,-1.0893,-0.8728,-0.5469,-0.1035,0.5406,0.9749,1.1551,1.2773,1.3817,1.4676,1.533,1.5901,1.6491,1.6947,1.7475,1.8068,1.8187,1.8422,1.8769,1.8831,1.9045,1.9245,1.8975,1.8485,1.7825,0.0,0.0,0.0,0.0,0.0,0.0,0.0,0.0,0.0,0.0,0.0,0.0,0.0,0.0,0.0,0.0,0.0,0.0,0.0,0.0,0.0,0.0,0.0,0.0,0.0,0.0,0.0,0.0,0.0,0.0,0.0,0.0,1.9987,1.7862,1.881,1.9405,1.8589,1.9358,1.9569,1.8522,1.7946,1.7259,1.6515,1.2131,0.9433,0.9466,0.6211,0.4385,0.4416,0.3172,0.2406,0.235,0.0392,-0.0627,-0.0864,-0.149,-0.196,-0.2198,-0.3054,-0.3754,-0.4302,-0.3986,-0.3988,-0.4302,-0.3677,-0.3443,-0.3363,-0.2724,-0.3244,-0.437,-0.4751,-0.5287,-0.5904,0.0,0.5146,0.4613,0.4613,0.3903,0.2872,0.143,0.1112,0.0628,-0.0469,0.0978,0.0916,-0.2298,-0.3286,-0.5031,-0.8282,-0.9266,-0.9608,-0.9403,-0.5837,-0.1039,0.4962,0.8171,1.0543,1.2187,1.3068,1.3758,1.4258,1.4709,1.5299,1.5944,1.6367,1.6951,1.776,1.7787,1.8042,1.845,1.8358,1.8553,1.8869,1.9105,1.9192,1.909,1.8332,1.7236,1.6098,1.5614,1.5352,1.5209,1.5252,0.0,0.0,0.0,0.0,0.0,0.0,0.0,0.0,0.0,0.0,0.0,0.0,0.0,0.0,0.0,0.0,0.0,0.0,0.0,0.0,0.0,0.0,0.0,0.0,2.2151,2.2714,2.1611,2.1781,2.1987,2.1835,2.2264,2.2454,2.2205,2.1174,2.0379,2.0074,1.5854,1.2728,1.1301,0.8384,0.6139,0.4696,0.2809,0.1248,0.0078,-0.1017,-0.2203,-0.3574,-0.2863,-0.3034,-0.378,-0.4266,-0.488,0.0,-0.5151,-0.5121,-0.5461,-0.4611,-0.453,0.0,0.0,0.0,0.0,0.0,-0.5867,-0.6338,0.0,0.502,0.4633,0.4653,0.4089,0.35,0.3141,0.3214,0.3376,0.3541,0.4246,0.1815,-0.5889,-0.6715,-0.9555,-1.6645,-1.4536,-1.2407,-1.1429,-0.3924,0.3117,0.893,0.9826,1.0793,1.2146,1.2942,1.3467,1.3658,1.4118,1.4744,1.5688,1.5632,1.6256,1.731,1.724,1.7488,1.8069,1.7962,1.8108,1.8422,1.8422,1.9155,2.0196,1.9544,1.8898,1.8269,1.7591,1.7205,1.6881,1.6458,0.0,0.0,0.0,0.0,0.0,0.0,0.0,0.0,0.0,0.0,0.0,0.0,0.0,0.0,0.0,0.0,0.0,0.0,0.0,0.0,0.0,0.0,0.0,0.0,2.4222,2.5516,2.6419,2.5462,2.5102,2.6186,2.5857,2.597,2.7072,2.5379,2.4324,2.4682,2.0949,1.7168,1.3662,0.0,0.0,0.0,0.0,0.0391,-0.1722,-0.2442,-0.4066,-0.6418,-0.4225,-0.4018,-0.5667,-0.5847,-0.6198,-0.6638,-0.6729,-0.6727,-0.6507,-0.5817,-0.5892,-0.6504,-0.5631,-0.5312,-0.5392,-0.6177,-0.6416,0.0,0.0,0.5098,0.4793,0.4911,0.4317,0.3799,0.3668,0.3487,0.35,0.3867,0.4192,0.2892,-0.1038,-0.4225,-0.6553,-0.7722,-1.0207,-1.0003,-0.5961,-0.1362,0.2494,0.5302,0.8776,1.1107,1.2104,1.2677,1.3382,1.4165,1.4258,1.4892,1.6088,1.5988,1.6238,1.685,1.6964,1.7102,1.7253,1.7475,1.772,1.7948,1.7948,1.8525,1.9413,1.9337,1.9095,1.8745,1.8448,1.8459,1.8659,1.8841,1.8587,1.8323,1.9007,0.0,0.0,0.0,0.0,0.0,0.0,0.0,0.0,0.0,0.0,0.0,0.0,0.0,0.0,0.0,0.0,0.0,0.0,0.0,0.0,2.5753,2.6617,2.7527,2.9031,2.9012,2.8522,2.7659,2.8698,2.9368,2.9033,2.8394,2.7441,2.5965,2.2507,1.8468,1.3777,1.1385,0.0,0.5087,0.1344,-0.0319,0.0241,-0.3187,-0.4886,-0.4906,0.0,0.0,-0.6182,-0.791,-0.8384,-0.778,-0.8598,-0.89,-0.8864,-0.8702,-0.8702,-0.8751,-0.7508,-0.7019,-0.7019,-0.7176,-0.7253,-0.7253,0.5549,0.5185,0.4931,0.5039,0.4666,0.4244,0.3903,0.3909,0.3952,0.401,0.4474,0.3436,-0.0108,-0.2149,-0.3905,-0.5555,-0.546,-0.312,0.197,0.417,0.6062,0.7903,1.0203,1.1816,1.2578,1.2881,1.3344,1.4035,1.4035,1.4593,1.5647,1.5591,1.5888,1.6497,1.6612,1.671,1.6863,1.7157,1.7282,1.7352,1.7475,1.7974,1.8688,1.8968,1.8907,1.8712,1.879,1.9059,1.939,1.9795,1.972,1.957,2.0047,1.8593,1.658,0.0,0.0,0.0,0.0,0.0,0.0,0.0,0.0,0.0,0.0,0.0,0.0,0.0,0.0,2.2339,0.0,0.0,2.6346,2.8326,2.8789,2.9504,3.1215,3.1802,3.1543,3.022,3.0648,3.1017,3.0949,3.0419,2.9643,2.867,2.6803,2.276,1.5965,1.4629,1.1294,0.5325,0.1049,-0.0898,-0.0327,-0.406,-0.6379,-0.7115,-0.6864,-0.7491,-0.8759,-0.9194,-0.9391,-0.9455,-0.9303,-0.933,-0.9399,-0.9644,-0.9476,-0.9131,-0.9086,-0.8848,-0.8532,-0.8532,-0.8216,-0.7899,0.5568,0.5263,0.5068,0.5117,0.4941,0.4624,0.413,0.4313,0.4416,0.4157,0.47,0.3574,-0.0429,-0.067,-0.1708,-0.4594,-0.0548,0.4051,0.8513,0.9121,1.0009,1.1648,1.1951,1.2421,1.3085,1.3085,1.3354,1.3952,1.3952,1.4362,1.5244,1.5198,1.5546,1.6194,1.6238,1.6367,1.6637,1.6905,1.696,1.6918,1.7115,1.7503,1.8027,1.8422,1.8539,1.8539,1.8798,1.9008,1.9277,1.9798,1.9962,1.9968,2.0235,1.937,1.8054,1.7174,1.6287,0.0,0.0,0.0,0.0,0.0,0.0,0.0,0.0,0.0,2.0525,2.3325,2.4442,2.5403,2.69,2.7733,2.8733,3.0333,3.0582,3.1197,3.2962,3.3757,3.3862,3.2972,3.2514,3.246,3.2936,3.2306,3.1697,3.1321,3.1044,2.7009,1.8153,1.7802,1.3701,0.4522,0.0412,-0.1831,-0.2415,-0.5788,-0.8166,-0.9517,-0.8398,-0.8978,-1.1128,-1.0269,-1.0262,-1.0931,-0.9856,-0.968,-0.9935,-1.0182,-0.9848,-0.9436,-1.0505,-1.0587,-0.9998,-0.9831,-0.9227,-0.8733,0.0,0.5368,0.5253,0.5185,0.497,0.4764,0.4635,0.4547,0.4528,0.4617,0.4508,0.318,-0.0021,-0.0362,-0.0247,0.0,0.4379,0.7678,0.9037,0.9686,1.0597,1.1975,1.2098,1.2421,1.3085,1.3085,1.3546,1.4408,1.4408,1.4869,1.5703,1.5558,1.5603,1.5881,1.6001,1.6132,1.6287,1.6791,1.696,1.6918,1.7115,1.7352,1.7544,1.7639,1.7988,1.8475,1.8149,1.7932,1.799,1.8898,1.9099,1.918,2.0348,2.0162,1.9493,1.9429,0.0,1.7389,1.7703,1.8108,1.8658,1.9672,1.975,2.0581,0.0,0.0,2.4102,2.6582,2.7157,2.7551,2.8622,2.8908,2.9563,3.1347,3.1639,3.2265,3.4077,3.4407,3.4648,3.5167,3.5123,3.5055,3.5059,3.4972,3.4186,3.2466,3.2504,2.8198,1.8078,1.7734,1.2595,0.1058,-0.2,-0.4221,-0.593,-0.9347,-1.0373,-0.9035,-1.0058,-1.0585,-1.0697,-1.1832,-1.1901,-1.1262,-1.1107,-1.153,-1.2275,-1.1503,-1.1075,-1.1075,-1.1673,-1.1759,-1.1617,-1.0854,-1.0536,-1.0449,0.0,0.5511,0.5454,0.553,0.5224,0.4921,0.4783,0.4704,0.4604,0.4428,0.4494,0.3986,0.2529,0.251,0.279,0.3257,0.5695,0.7791,0.9153,1.0066,1.1177,1.2491,1.2578,1.2725,1.3085,1.3152,1.3515,1.4212,1.449,1.4903,1.5525,1.5614,1.5703,1.5792,1.5881,1.5925,1.6013,1.6565,1.6808,1.682,1.724,1.7488,1.7625,1.7625,1.7611,1.765,1.7688,1.766,0.0,0.0,1.8218,1.856,1.9125,1.9204,1.9069,1.8833,1.8487,0.0,1.9889,2.0509,2.1068,0.0,2.2808,2.351,2.5276,2.5603,2.5999,2.7663,2.8092,2.8467,2.9389,2.9624,3.0251,0.0,3.2264,3.2884,3.4664,3.4393,3.4244,3.4789,3.4133,3.3994,3.491,3.4822,3.4355,3.3554,3.3594,3.0144,2.2134,2.0011,1.3243,0.0492,-0.2328,-0.6383,-1.2169,-1.2236,-1.2378,-1.256,-1.2207,-1.2242,-1.2674,-1.2942,-1.2857,-1.2504,-1.2248,-1.2003,-1.1843,-1.1757,-1.1671,-1.1671,-1.1585,-1.21,-1.2766,-1.2116,-1.1533,-1.1109,0.0,0.5726,0.5689,0.5837,0.553,0.5185,0.5,0.4863,0.4693,0.4411,0.4538,0.4605,0.4432,0.4605,0.4882,0.5238,0.6124,0.7411,0.9169,1.0091,1.1217,1.2656,1.2705,1.2812,1.3085,1.3152,1.342,1.3941,1.4387,1.4858,1.5255,1.5614,1.5792,1.5792,1.5792,1.5792,1.5836,1.6423,1.671,1.6765,1.7269,1.7529,1.7529,1.741,1.713,1.691,1.7301,1.7227,0.0,0.0,1.718,1.7557,1.7661,1.7983,1.8291,1.8212,1.8656,1.9455,2.073,0.0,0.0,2.3512,2.4577,2.5509,2.5803,2.6383,2.719,2.8297,2.8648,2.8942,2.9633,2.9837,3.047,3.2184,3.2454,3.3055,3.4781,3.4195,3.3701,3.3978,3.2823,3.2516,3.3871,3.3996,3.3983,3.3978,3.4341,3.1612,2.4845,2.263,1.4529,-0.0816,-0.3011,-0.8335,-1.7669,-1.6242,-1.5449,-1.5189,-1.4655,-1.4309,-1.4055,-1.3711,-1.3704,-1.388,-1.3099,-1.2425,-1.2095,-1.218,-1.218,-1.218,-1.1918,-1.2357,-1.2966,-1.279,-1.2272,-1.1757,0.0,0.0,0.5979,0.5979,0.5815,0.5611,0.5404,0.5049,0.4793,0.4793,0.4682,0.4622,0.4684,0.4762,0.5035,0.564,0.6251,0.7335,0.9096,0.9608,1.0535,1.2141,1.22,1.2498,1.3075,1.3085,1.3306,1.3821,1.428,1.4686,1.5108,1.557,1.5792,1.5792,1.5792,1.5792,1.5836,1.6423,1.671,1.6765,1.7269,1.7406,1.7146,1.6625,1.6468,1.6572,1.691,0.0,0.0,1.5716,1.5863,1.5929,1.6349,1.6855,0.0,1.8403,1.9595,2.0496,1.9778,0.0,2.317,2.284,2.4229,2.5943,2.6922,2.7374,2.7859,2.8864,2.9071,2.9156,2.9379,2.9418,3.002,3.1808,3.2109,3.2676,3.43,3.3828,3.3337,3.3337,3.2035,3.1427,0.0,3.2956,3.3412,3.3427,3.468,3.2077,2.4328,2.5135,1.6391,-0.4214,-0.4904,-1.0279,-2.1346,-2.2298,-2.0163,-1.5196,-1.7644,-1.7152,-1.4139,-1.4055,-1.4566,-1.5257,-1.3444,-1.319,-1.3971,-1.3021,-1.2674,-1.276,-1.319,-1.2772,-1.21,-1.2534,-1.2705,-1.2619,0.0,0.0,0.0,0.6307,0.6099,0.587,0.5815,0.5461,0.5146,0.502,0.4735,0.0,0.0,0.0,0.0,0.0,0.6365,0.7223,0.7943,0.9357,1.0404,1.0984,1.1788,1.2305,1.2498,1.2878,1.321,1.342,1.4129,1.4582,1.4858,1.5513,1.5792,1.5792,1.5792,1.5792,1.5836,1.6522,1.682,1.6905,1.7502,1.7706,1.7639,1.7451,1.6594,1.5455,0.0,0.0,1.4564,1.4296,1.4452,1.4883,1.5449,0.0,0.0,1.7403,1.8682,2.0003,2.1017,0.0,2.416,2.5021,2.5745,2.6454,2.7341,2.7593,2.7665,2.7698,2.7633,2.7508,2.7255,2.7776,2.8747,3.0446,3.1296,3.2333,3.3953,3.3375,3.2655,3.2341,3.1359,0.0,0.0,0.0,0.0,3.2666,3.3822,3.2355,2.7427,2.5998,1.5714,-0.5325,-0.5357,-1.3094,-2.9915,-2.5407,-2.2622,-2.1948,-2.0556,-1.9109,-1.751,-1.751,-1.7058,-1.6221,-1.5613,-1.4866,-1.4055,-1.3795,-1.362,-1.362,-1.3105,-1.3281,-1.3717,-1.3288,-1.3379,-1.3483,0.0,0.0,0.0,0.0,0.0,0.0,0.0,0.0,0.0,0.0,0.0,0.0,0.0,0.0,0.0,0.0,0.0,0.6675,0.7449,0.8499,0.9393,1.0064,1.0797,1.1248,1.1349,1.1762,1.2102,1.2286,1.3099,1.3806,1.4361,1.4998,1.5469,1.5792,1.5792,1.5792,1.5836,1.6436,1.6778,1.6947,1.7276,1.7397,1.7316,1.6646,1.5548,0.0,0.0,1.34,1.3192,1.286,1.331,1.4042,1.452,1.5399,1.6431,1.73,1.8535,1.9932,2.1593,2.3078,2.4464,2.5641,2.6169,2.6557,2.7339,2.7325,2.7081,2.6898,2.6463,2.603,2.5732,2.6278,2.7265,2.8801,3.0005,3.1289,3.2774,3.2518,3.2056,3.1758,3.0844,0.0,0.0,0.0,0.0,3.2039,3.3231,3.2415,2.8816,2.7715,1.6833,-0.578,-0.5883,-1.4831,-3.4231,-2.9551,-2.688,-2.6503,-2.2575,-2.0745,-2.0775,-1.9722,-1.8567,-1.756,-1.6927,-1.6198,-1.5455,-1.481,-1.4727,-1.4963,-1.4041,-1.3964,-1.4391,-1.388,-1.3717,-1.373,0.0,0.0,0.0,0.0,0.0,0.0,0.0,0.0,0.0,0.0,0.0,0.0,0.0,0.0,0.0,0.0,0.0,0.0,0.7463,0.7178,0.7694,0.9411,0.9391,0.9498,0.9875,0.9981,1.023,1.0599,1.1379,1.2412,1.3663,1.4087,1.4806,1.5708,1.5708,1.5708,1.5708,1.6065,1.6451,1.6738,1.6507,1.6427,1.619,1.4341,1.3542,1.3185,0.0,0.0,1.1349,1.1589,0.0,0.0,0.0,0.0,1.7362,1.8036,1.9132,2.0356,2.1548,2.2912,2.4111,2.4835,2.5556,2.6264,2.692,2.653,2.61,2.6398,2.5547,2.4741,0.0,0.0,2.5637,2.6948,2.8352,2.971,3.0997,3.1452,3.1591,0.0,0.0,0.0,0.0,0.0,0.0,3.1654,0.0,3.2216,2.8488,3.0018,1.9451,-0.5785,-0.6532,-1.5562,-3.4474,-3.4465,-3.2463,-2.8614,-2.386,-2.2338,-2.3693,-2.0775,-1.9427,-1.9279,-1.7641,-1.7342,-1.7917,-1.6147,-1.5982,-1.6617,-1.5748,-1.4915,-1.4139,-1.4139,-1.388,-1.3451,0.0,0.0,0.0,0.0,0.0,0.0,0.0,0.0,0.0,0.0,0.0,0.0,0.0,0.0,0.0,0.0,0.0,0.0,0.5902,0.6914,0.7592,0.78,0.8913,0.9614,0.9832,1.0127,1.043,1.0646,1.1082,1.1843,1.2894,1.3202,1.3679,1.4263,1.4564,1.4523,1.4305,1.5147,1.5274,1.5004,1.5362,1.5267,1.4823,1.4299,1.3353,1.2264,0.0,0.0,0.0,0.0,0.0,0.0,0.0,1.5918,1.6683,0.0,0.0,2.0572,2.2424,2.3763,2.475,2.5243,2.5505,2.5651,2.5562,2.5212,2.4846,2.458,2.3714,2.2865,0.0,0.0,0.0,2.518,2.7335,0.0,3.083,3.1548,0.0,3.1077,0.0,3.1214,3.1384,3.074,0.0,0.0,3.261,3.1388,2.7939,2.9232,1.8506,-0.6759,-0.6865,-1.676,-3.8147,-3.5666,-3.2442,-2.8677,-2.7418,-2.602,-2.4637,-2.3883,-2.2626,-2.0988,-2.0003,-1.9307,-1.8744,-1.709,-1.6542,-1.6617,-1.5748,-1.5257,-1.5082,-1.5082,-1.4999,-1.4741,0.0,0.0,0.0,0.0,0.0,0.0,0.0,0.0,0.0,0.0,0.0,0.0,0.0,0.0,0.0,0.0,0.0,0.0,0.0,0.6278,0.6854,0.713,0.79,0.8464,0.8789,0.9033,0.9318,0.9611,0.9873,1.0584,1.1667,1.1815,1.2272,1.307,1.3235,1.3247,1.3209,1.3877,1.4033,0.0,0.0,1.4063,1.3821,1.3111,1.2292,0.0,0.0,0.0,0.0,0.0,0.0,1.6295,1.6766,1.7145,1.7722,1.9194,0.0,2.1329,2.2882,2.3949,2.4719,2.5137,2.5013,2.4708,2.4405,2.3716,2.2965,2.2425,2.1497,0.0,2.0195,0.0,0.0,0.0,0.0,0.0,2.9834,3.1024,3.1578,0.0,3.1359,0.0,3.2004,3.0925,3.0715,0.0,3.2191,3.0968,2.8067,2.9064,1.9878,-0.1603,-0.542,-1.7418,-3.8911,-3.6175,-3.3193,-3.019,-2.9435,-2.7929,-2.5894,-2.5252,-2.4002,-2.2242,0.0,-2.0566,-1.9709,-1.8355,-1.7568,-1.7188,-1.6304,-1.5748,-1.5431,-1.5431,-1.5431,-1.5257,0.0,0.0,0.0,0.0,0.0,0.0,0.0,0.0,0.0,0.0,0.0,0.0,0.0,0.0,0.0,0.0,0.0,0.0,0.0,0.0,0.0,0.6895,0.6825,0.6989,0.7453,0.7598,0.7831,0.8189,0.0,0.9116,1.0321,1.0297,1.0858,1.1895,1.1882,1.2,1.2236,1.2527,1.2753,1.2956,1.2766,1.2837,1.2871,0.0,0.0,0.0,0.0,0.0,0.0,0.0,1.5985,1.678,1.7661,1.8495,1.9336,2.0594,2.1438,2.2217,2.3112,2.3815,2.4369,2.4719,2.4319,2.3761,2.3474,2.2297,2.1082,2.0505,0.0,1.86,1.8564,1.9654,2.0986,2.2165,0.0,2.7182,2.8555,3.0146,3.1181,3.1283,3.1273,3.165,3.2502,3.1004,3.0468,3.1566,3.1886,3.0865,2.8268,2.9021,2.147,0.3747,-0.5746,-1.9553,-3.8229,-3.6559,-3.4432,-3.2105,-3.0544,-2.885,-2.6973,-2.5824,-2.4529,-2.3243,0.0,0.0,-2.0857,-1.9778,-1.8833,-1.7917,-1.7017,-1.6147,-1.5431,-1.5431,-1.5431,-1.5257,0.0,0.0,0.0,0.0,0.0,0.0,0.0,0.0,0.0,0.0,0.6522,0.587,0.0,0.0,0.0,0.0,0.0,0.0,0.0,0.0,0.0,0.6029,0.6725,0.719,0.734,0.7776,0.8036,0.0,0.0,0.0,0.9329,0.9485,0.9861,1.0421,1.0999,1.1032,1.0728,1.154,1.1588,1.1177,1.1584,1.1508,1.1152,0.0,0.0,0.0,0.0,0.0,0.0,0.0,1.6834,1.7926,1.8094,1.8576,1.9336,2.0428,2.1354,2.2235,2.3281,2.3918,2.4302,2.4385,2.3915,2.3336,2.3006,2.1651,0.0,0.0,1.9213,1.8191,1.7918,1.9015,2.0286,2.1356,0.0,0.0,0.0,0.0,2.9976,0.0,0.0,0.0,0.0,0.0,0.0,0.0,0.0,0.0,2.7482,2.8296,1.8231,-0.4956,-1.8031,-2.9104,-3.8321,-3.7906,-3.5815,-3.2105,-3.1814,-3.0024,-2.6973,-2.6756,-2.5988,-2.4874,0.0,0.0,-2.2424,-2.0874,-1.9404,-1.7917,-1.7017,-1.6147,-1.5431,-1.5431,-1.5431,-1.5347,0.0,0.0,0.0,0.0,0.0,0.0,0.0,0.765,0.7885,0.8149,0.7667,0.7081,0.6498,0.6083,0.5815,0.0,0.0,0.0,0.0,0.0,0.0,0.0,0.0,0.6771,0.7289,0.0,0.0,0.0,0.0,0.0,0.0,0.0,0.0,0.0,0.0,0.0,0.0,0.0,0.0,0.0,0.0,0.0,0.0,0.0,0.0,0.0,0.0,0.0,0.0,0.0,1.5959,1.7699,1.8303,1.8783,1.935,2.077,2.1585,2.2278,2.3488,2.3967,2.4177,2.4261,2.3533,2.254,2.1672,0.0,0.0,0.0,1.7642,1.7113,1.6955,1.7893,0.0,0.0,0.0,0.0,0.0,0.0,0.0,0.0,0.0,0.0,0.0,0.0,0.0,0.0,0.0,0.0,2.7104,2.4084,1.5072,-0.1042,-1.4671,-2.5145,-3.2344,-3.6246,-3.6684,-3.3712,-3.261,-3.0951,-2.8752,-2.7564,-2.6514,-2.5554,-2.4969,0.0,-2.236,-2.1962,-2.0324,-1.7997,-1.7513,-1.655,-1.5431,-1.5431,-1.5431,-1.5431,0.0,0.0,0.0,0.0,0.0,0.0,0.0,0.8016,0.8253,0.8858,0.8812,0.8401,0.7526,0.6756,0.6197,0.0,0.0,0.0,0.0,0.0,0.0,0.0,0.0,0.0,0.0,0.0,0.0,0.0,0.0,0.0,0.0,0.0,0.0,0.0,0.0,0.0,0.0,0.0,0.0,0.0,0.0,0.0,0.0,0.0,0.0,0.0,0.0,0.0,0.0,0.0,1.454,1.6352,1.7571,1.8467,1.9364,2.0727,2.1485,2.212,2.3152,2.3691,2.3994,2.3952,2.3099,2.1932,2.0613,1.91,0.0,0.0,1.6087,1.5979,1.5979,0.0,1.8079,0.0,2.1183,0.0,0.0,0.0,0.0,0.0,0.0,0.0,0.0,0.0,0.0,0.0,0.0,0.0,2.676,2.0167,1.1852,0.1865,-0.9647,-2.0173,-2.9552,-3.5337,-3.7184,-3.5145,-3.3102,-3.1535,-3.0455,-2.8036,-2.6693,-2.6102,-2.538,0.0,0.0,-2.266,-2.1104,-1.847,-1.8158,-1.7033,-1.5665,-1.5506,-1.5431,-1.5431,0.0,0.0,0.0,0.0,0.0,0.0,0.0,0.8455,0.9001,0.9616,0.9586,0.9272,0.8622,0.7783,0.7031,0.0,0.0,0.0,0.0,0.0,0.0,0.0,0.0,0.0,0.0,0.0,0.0,0.0,0.0,0.0,0.0,0.0,0.0,0.0,0.0,0.0,0.0,0.0,0.0,0.0,0.0,0.0,0.0,0.0,0.0,0.0,0.0,0.0,0.0,0.0,0.0,1.3653,1.4721,1.6948,1.9169,1.9488,0.0,0.0,2.1551,2.2731,2.3788,2.2945,2.255,2.1932,2.0613,0.0,0.0,1.6348,1.5703,1.5298,1.5298,1.6317,1.7699,1.9358,0.0,2.1856,0.0,0.0,0.0,0.0,0.0,0.0,0.0,0.0,0.0,0.0,0.0,0.0,0.0,1.9418,0.8514,-0.6828,-1.2779,-2.3044,-3.8374,-3.8313,-3.7184,-3.5145,-3.3102,-3.1535,-3.0455,-2.8036,-2.7002,-2.6925,0.0,0.0,0.0,-2.2424,-2.1278,-2.011,-1.8621,-1.7432,-1.646,-1.5665,-1.5431,-1.5431,0.0,0.0,0.0,0.0,0.0,0.0,0.8222,0.8438,0.8888,0.9853,0.9889,0.975,0.9505,0.8813,0.7906,0.6718,0.0,0.0,0.0,0.0,0.0,0.0,0.0,0.0,0.0,0.0,0.0,0.0,0.0,0.0,0.0,0.0,0.0,0.0,0.0,0.0,0.0,0.0,0.0,0.0,0.0,0.0,0.0,0.0,0.0,0.0,0.0,0.0,0.0,0.0,0.0,0.0,1.3316,1.4972,0.0,0.0,1.9206,2.0141,2.1197,2.1989,2.2554,2.2599,2.2047,2.1201,1.9986,0.0,1.6592,1.5783,1.5406,1.5206,1.5206,1.5921,1.6857,1.7929,1.8408,1.9546,2.216,0.0,0.0,0.0,0.0,0.0,0.0,0.0,0.0,0.0,0.0,0.0,0.0,1.8749,1.2531,0.612,-0.8294,-1.8951,-2.5201,-3.3903,-3.7831,-3.693,-3.4376,-3.2767,-3.2026,-3.0038,-2.8561,-2.7472,0.0,0.0,0.0,-2.2424,-2.1288,-2.0343,-1.8621,-1.7755,-1.7269,-1.5906,-1.5748,-1.6147,0.0,0.0,0.0,0.0,0.0,0.7807,0.841,0.8422,0.8747,0.9791,0.9849,0.98,0.9828,0.9216,0.8397,0.7305,0.705,0.0,0.0,0.0,0.0,0.0,0.0,0.0,0.0,0.0,0.0,0.0,0.0,0.0,0.0,0.0,0.0,0.0,0.0,0.0,0.0,0.0,0.0,0.0,0.0,0.0,0.0,0.0,0.0,0.0,0.0,0.0,0.0,0.0,0.0,0.0,0.0,0.0,0.0,0.0,1.817,1.9049,2.0458,2.1169,2.1513,2.1633,2.1374,2.0673,0.0,1.7591,1.6171,1.5113,1.4735,1.4617,1.4817,1.532,1.6039,1.6908,1.7287,1.8177,2.0146,0.0,0.0,0.0,0.0,0.0,0.0,0.0,0.0,0.0,0.0,0.0,0.0,1.898,1.5185,1.1725,-0.6247,-1.7022,-1.9467,-3.1746,-3.7988,-3.8044,-3.5231,-3.3623,-3.2966,-3.1096,-2.9336,-2.7802,0.0,0.0,0.0,-2.2798,-2.1811,-2.1028,-1.9079,-1.8221,-1.7755,-1.6072,-1.5824,-1.6221,0.0,0.0,0.0,0.0,0.0,0.0,0.841,0.851,0.8741,0.9412,0.938,0.9336,0.9404,0.8795,0.8404,0.8384,0.7476,0.0,0.0,0.0,0.0,0.0,0.0,0.0,0.0,0.0,0.728,0.7222,0.8148,0.0,0.0,0.0,0.0,0.0,0.0,0.0,0.0,0.0,0.0,0.0,0.0,0.0,0.0,0.0,0.0,0.0,0.0,0.0,0.0,0.0,0.0,0.0,0.0,0.0,0.0,0.0,1.7658,1.8604,1.899,2.0184,2.0991,1.9749,2.0371,2.064,0.0,1.6864,1.5825,1.4408,1.3573,1.3313,1.3898,1.4505,1.5342,1.6698,1.7359,1.8296,2.0073,0.0,0.0,0.0,0.0,0.0,0.0,0.0,0.0,0.0,0.0,0.0,0.0,2.0574,1.4479,0.3179,-0.8924,-1.9451,-2.8272,-3.4118,-3.7359,-3.7989,-3.5214,-3.3521,-3.2808,-3.0558,-2.8913,0.0,0.0,0.0,0.0,-2.3621,-2.2957,-2.2723,-2.0207,-1.8674,-1.7755,-1.6072,-1.5431,-1.5431,0.0,0.0,0.0,0.0,0.0,0.0,0.0,0.8287,0.8424,0.895,0.8984,0.9128,0.9552,0.908,0.8746,0.873,0.7904,0.0,0.0,0.0,0.0,0.0,0.0,0.0,0.0,0.0,0.8137,0.7878,0.9319,0.9754,0.0,0.0,0.0,0.0,0.0,0.0,0.0,0.0,0.0,0.0,0.0,0.0,0.0,0.0,0.0,0.0,0.0,0.0,0.0,0.0,0.0,0.0,0.0,0.0,0.0,1.4069,1.5287,0.0,1.7481,1.8163,1.844,1.8232,1.8427,1.8404,1.726,1.6023,1.492,1.4301,1.3605,1.3161,1.3336,1.4227,1.5191,1.6065,1.6668,0.0,0.0,0.0,0.0,0.0,0.0,0.0,0.0,0.0,0.0,0.0,0.0,0.0,0.0,2.0997,1.7334,1.0707,-0.4849,-1.5115,-1.9287,-3.1132,-3.6855,-3.6392,-3.4906,-3.3018,-3.0849,-3.099,0.0,0.0,0.0,0.0,0.0,-2.339,-2.266,-2.2048,-2.0643,-1.9571,-1.8647,-1.6952,-1.6304,-1.6221,0.0,0.0,0.0,0.0,0.0,0.0,0.0,0.8293,0.8372,0.868,0.8637,0.8817,0.9432,0.8906,0.8636,0.8877,0.8168,0.0,0.0,0.0,0.0,0.0,0.0,0.0,0.0,0.7976,0.8523,0.8817,0.9957,1.0399,1.0191,1.0445,1.0336,0.0,0.0,0.0,0.0,0.0,0.0,0.0,0.0,0.0,0.0,0.0,0.0,0.0,0.0,0.0,0.0,0.0,0.0,0.0,0.0,0.0,0.0,0.0,1.341,1.4323,0.0,1.6645,1.6736,1.6987,1.7135,1.7011,1.6256,1.525,1.4328,1.3872,1.3199,1.2756,1.2993,1.3815,1.4686,1.539,1.6368,0.0,0.0,0.0,0.0,0.0,0.0,0.0,0.0,0.0,0.0,0.0,0.0,0.0,0.0,0.0,2.0068,1.5992,-0.2057,-1.2427,-1.3894,-2.9002,-3.6287,-3.5647,-3.4759,-3.2748,-2.9772,-3.0597,0.0,0.0,0.0,0.0,0.0,-2.3834,-2.3021,-2.1756,-2.1181,-2.011,-1.8647,-1.7188,-1.646,-1.6147,0.0,0.0,0.0,0.0,0.0,0.0,0.0,0.8522,0.8551,0.8599,0.838,0.8468,0.9094,0.8422,0.8183,0.8801,0.0,0.0,0.0,0.0,0.0,0.0,0.0,0.0,0.7407,0.7792,0.8558,0.9733,1.0149,1.0677,1.1295,1.1169,1.079,1.0122,0.9126,0.0,0.0,0.0,0.0,0.0,0.0,0.0,0.0,0.0,0.0,0.0,0.0,0.0,0.0,0.0,0.0,0.0,0.0,0.0,0.0,0.0,0.0,0.0,0.0,1.5515,1.5665,1.5817,1.6184,1.6233,1.5225,1.4537,0.0,1.3245,1.2506,1.2204,1.2894,1.3473,1.409,1.4938,1.6578,0.0,0.0,0.0,0.0,0.0,0.0,0.0,0.0,0.0,0.0,0.0,0.0,0.0,0.0,0.0,2.2392,1.9148,-0.04,-1.1191,-1.1913,-2.7807,-3.5697,-3.5446,-3.4677,-3.257,-2.9411,-2.9546,0.0,0.0,0.0,0.0,0.0,-2.4566,-2.3727,-2.1587,-2.1652,-2.011,-1.7883,-1.709,-1.6221,-1.5431,0.0,0.0,0.0,0.0,0.0,0.0,0.0,0.0,0.0,0.0,0.8549,0.8573,0.8731,0.8472,0.8348,0.0,0.0,0.0,0.0,0.0,0.0,0.0,0.0,0.0,0.7469,0.8508,0.9052,0.9033,1.0896,1.1545,1.1091,1.1912,1.1829,1.0965,0.982,0.8597,0.0,0.0,0.0,0.0,0.0,0.0,0.0,0.0,0.0,0.0,0.0,0.0,0.0,0.0,0.0,0.0,0.0,0.0,0.0,0.0,1.1286,1.1437,1.2428,0.0,1.3714,1.368,1.3997,1.4261,0.0,1.36,1.326,1.313,1.2484,1.2384,1.386,1.4123,1.4924,1.7459,0.0,0.0,0.0,0.0,0.0,0.0,0.0,0.0,0.0,0.0,0.0,0.0,0.0,0.0,0.0,0.0,2.3077,2.1269,0.1789,-0.9502,-1.1289,-2.7596,-3.5166,-3.3907,-3.3577,-3.1597,-2.8301,-2.8586,0.0,0.0,0.0,0.0,-2.1642,-2.2533,-2.1724,-1.9979,-2.0872,-1.9707,-1.7533,-1.7654,-1.6714,-1.5431,0.0,0.0,0.0,0.0,0.0,0.0,0.0,0.0,0.0,0.0,0.0,0.864,0.8648,0.8526,0.0,0.0,0.0,0.0,0.0,0.0,0.0,0.0,0.0,0.7589,0.7545,0.8554,0.9252,0.9619,1.1066,1.1856,1.1953,1.2133,1.1904,1.1375,0.9893,0.8431,0.0,0.0,0.0,0.0,0.0,0.0,0.0,0.0,0.0,0.0,0.8488,0.89,0.0,0.9912,1.0375,1.0742,0.0,0.0,0.0,0.0,1.1015,1.1132,1.1322,1.2409,1.3516,1.3755,1.3924,1.4056,1.4214,1.3433,1.2719,1.2832,1.2785,1.2956,1.3839,1.4798,0.0,0.0,0.0,0.0,0.0,0.0,0.0,0.0,0.0,0.0,0.0,0.0,0.0,0.0,0.0,0.0,0.0,0.0,2.3541,2.289,0.7044,-0.4115,-0.9577,-2.664,-3.4587,-3.3348,-3.2834,-3.0896,-2.7716,-2.7881,0.0,0.0,0.0,0.0,-2.0588,-2.1727,-2.0977,-1.9234,-2.039,-1.9348,-1.7235,-1.7612,-1.6533,-1.5006,0.0,0.0,0.0,0.0,0.0,0.0,0.0,0.0,0.0,0.0,0.0,0.0,0.0,0.0,0.0,0.0,0.0,0.0,0.0,0.0,0.0,0.0,0.0,0.7693,0.7795,0.8466,0.9402,1.0626,1.117,1.1989,1.3061,1.2347,1.1817,1.1383,0.976,0.8306,0.0,0.0,0.0,0.0,0.0,0.0,0.0,0.0,0.0,0.0,0.0,0.0,0.0,0.9343,0.989,1.0227,1.0745,0.0,0.0,0.0,0.0,0.0,1.1252,1.2699,1.4254,1.4483,1.4587,1.4683,1.4845,0.0,0.0,0.0,0.0,0.0,0.0,1.5679,0.0,0.0,0.0,0.0,0.0,0.0,0.0,0.0,0.0,0.0,0.0,0.0,0.0,0.0,0.0,0.0,0.0,0.0,0.0,2.3979,1.2605,0.188,-0.7792,-2.4177,-3.2667,-3.3296,-3.2389,-3.0409,-2.7519,-2.7519,-2.5774,0.0,0.0,0.0,-1.9839,-2.1144,-2.0485,-1.8739,-1.9788,-1.8695,-1.669,-1.7141,-1.6162,-1.4509,0.0,0.0,0.0,0.0,0.0,0.0,0.0,0.0,0.0,0.0,0.0,0.0,0.0,0.0,0.0,0.0,0.0,0.0,0.0,0.0,0.0,0.808,0.7927,0.8109,0.8677,0.9139,0.9821,1.0677,1.1869,1.2636,1.2927,1.358,1.2794,1.0813,1.0004,0.8718,0.712,0.0,0.0,0.0,0.0,0.0,0.0,0.0,0.0,0.0,0.0,0.0,0.0,0.824,0.8988,0.9881,0.9976,0.0,0.0,0.0,0.0,0.0,1.2493,1.4162,1.5091,1.3388,1.4076,1.5047,1.4526,1.4233,1.4115,0.0,0.0,0.0,0.0,1.733,0.0,0.0,0.0,0.0,0.0,0.0,0.0,0.0,0.0,0.0,0.0,0.0,0.0,0.0,0.0,0.0,0.0,0.0,0.0,2.4186,1.3824,0.3095,-0.7783,-1.771,-2.6262,-3.3366,-3.2337,-3.037,-2.7686,-2.7554,-2.5638,0.0,0.0,-2.114,-1.8977,-1.9251,-1.8379,-1.711,-1.8251,-1.7352,-1.5476,-1.6598,-1.5952,-1.4479,0.0,0.0,0.0,0.0,0.0,0.0,0.0,0.0,0.0,0.0,0.0,0.0,0.0,0.0,0.0,0.0,0.0,0.0,0.0,0.0,0.0,0.8835,0.8809,0.8803,0.889,0.9787,1.0599,1.1299,1.2633,1.3474,1.3821,1.3641,1.217,0.9719,0.9406,0.8457,0.7101,0.7072,0.0,0.0,0.0,0.0,0.0,0.0,0.0,0.0,0.0,0.0,0.0,0.0,0.8582,0.936,0.9706,0.0,0.0,0.0,0.0,0.0,1.1508,1.2957,1.4212,1.3976,1.5411,1.6766,1.6271,1.5962,1.5815,0.0,0.0,0.0,0.0,0.0,0.0,0.0,0.0,0.0,0.0,0.0,0.0,0.0,0.0,0.0,0.0,0.0,0.0,0.0,0.0,0.0,0.0,0.0,0.0,0.0,1.8709,1.0176,-0.2207,-0.8923,-1.9344,-3.3325,-3.1868,-2.9763,-2.713,-2.739,-2.5394,-2.1803,0.0,-2.0899,-1.8808,-1.8808,-1.7842,-1.6473,-1.7171,-1.6305,-1.4733,-1.4972,-1.4712,-1.4179,0.0,0.0,0.0,0.0,0.0,0.0,0.0,0.0,0.0,0.0,0.0,0.0,0.0,0.0,0.0,0.0,0.0,0.0,0.0,0.0,0.8695,0.9241,0.942,0.956,0.9701,1.0648,1.1508,1.2328,1.3347,1.4086,1.4435,1.327,1.1451,0.9206,0.8995,0.8257,0.7164,0.712,0.712,0.0,0.0,0.0,0.0,0.0,0.0,0.0,0.0,0.0,0.0,0.0,0.0,0.0,0.0,0.0,0.0,1.0392,1.0413,1.0631,1.1038,1.2082,1.3367,1.4699,1.6455,1.7924,1.8023,1.7663,1.7351,0.0,0.0,0.0,0.0,0.0,0.0,0.0,0.0,0.0,0.0,0.0,0.0,0.0,0.0,0.0,0.0,0.0,0.0,0.0,0.0,0.0,0.0,0.0,0.0,0.0,2.2881,1.6176,0.2947,-0.1263,-1.2589,-3.083,-2.9989,-2.8496,-2.6513,-2.6315,-2.4444,-2.1325,-2.1753,-2.0643,-1.8519,-1.8664,-1.755,-1.5737,-1.6245,-1.5542,-1.4194,-1.363,-1.3653,-1.3836,0.0,0.0,0.0,0.0,0.0,0.0,0.0,0.0,0.0,0.0,0.0,0.0,0.0,0.0,0.0,0.0,0.0,0.0,0.0,0.0,0.8579,0.8578,0.9175,1.0287,1.2018,1.1907,1.2478,1.3824,1.4001,1.4056,1.4013,1.2763,1.1414,1.0088,0.9463,0.851,0.7376,0.7376,0.7376,0.739,0.0,0.0,0.0,0.0,0.0,0.0,0.0,0.0,0.0,0.0,0.0,0.0,0.0,0.0,1.042,1.1168,1.0915,1.085,1.2834,1.3277,1.3505,1.4776,1.5925,1.7128,1.866,1.8583,1.8461,1.932,0.0,0.0,0.0,0.0,0.0,0.0,0.0,0.0,0.0,0.0,0.0,0.0,0.0,0.0,0.0,0.0,0.0,0.0,0.0,0.0,0.0,0.0,0.0,0.0,0.0,1.6889,0.4197,0.2843,-0.6427,-2.3498,-2.5439,-2.6341,-2.6249,-2.3616,-2.1922,-2.1123,-2.1313,-1.9976,-1.7571,-1.822,-1.6766,-1.4114,-1.5471,-1.5338,-1.4194,-1.3484,-1.336,-1.3528,0.0,0.0,0.0,0.0,0.0,0.0,0.0,0.0,0.0,0.0,0.0,0.0,0.0,0.0,0.0,0.0,0.0,0.0,0.0,0.8824,0.8978,0.9413,0.9594,1.0362,1.1825,1.2621,1.3449,1.4382,1.4684,1.4345,1.3361,1.2341,1.1096,0.9733,0.8978,0.8423,0.8052,0.7557,0.7581,0.7921,0.7543,0.0,0.0,0.0,0.0,0.0,0.0,0.0,0.0,0.0,0.8177,0.8921,0.893,0.9862,1.0857,1.0339,1.0113,1.0304,1.1475,1.2132,1.2899,1.4709,1.6092,1.7221,1.7978,1.9248,2.0424,2.1095,2.1108,0.0,0.0,0.0,0.0,0.0,0.0,0.0,0.0,0.0,0.0,0.0,0.0,0.0,0.0,0.0,0.0,0.0,0.0,0.0,0.0,0.0,0.0,0.0,0.0,1.9115,1.0754,0.5438,-0.2582,-1.3249,-2.0041,-2.3879,-2.4982,-2.4761,-2.2694,-1.9399,-2.0666,-1.9357,-1.6392,-1.7444,-1.6192,-1.3753,-1.3818,-1.368,-1.3331,-1.2673,-1.2526,-1.2526,0.0,0.0,0.0,0.0,0.0,0.0,0.0,0.0,0.0,0.0,0.0,0.0,0.0,0.0,0.0,0.0,0.0,0.0,0.8996,0.8942,0.9111,0.9591,0.9744,1.0166,1.0961,1.2587,1.3637,1.413,1.4459,1.4067,1.3008,1.1938,1.091,0.9908,0.9086,0.876,0.8795,0.8033,0.7969,0.8307,0.7691,0.7438,0.0,0.0,0.0,0.0,0.0,0.0,0.0,0.0,0.8155,0.8788,0.8903,0.9833,1.0762,1.003,1.0103,1.0485,1.089,1.1653,1.2794,1.4769,1.6359,1.7546,1.795,1.9608,2.1337,2.2361,2.2477,2.2396,0.0,0.0,0.0,0.0,0.0,0.0,0.0,0.0,0.0,0.0,0.0,0.0,0.0,0.0,0.0,0.0,0.0,0.0,0.0,0.0,0.0,0.0,0.0,2.1118,1.5283,0.9385,0.1906,-0.7133,-1.3908,-1.8964,-2.2202,-2.2291,-2.0549,-1.7504,-1.8955,-1.7919,-1.5342,-1.6383,-1.5553,-1.3528,-1.2813,-1.2599,-1.2753,-1.2305,-1.2077,-1.1929,0.0,0.0,0.0,0.0,0.0,0.0,0.0,0.0,0.0,0.0,0.0,0.0,0.0,0.0,0.0,0.0,0.0,0.0,0.9196,0.9007,0.888,0.8801,0.9426,0.9719,0.9595,1.1675,1.288,1.3107,1.3099,1.3091,1.306,1.1596,1.0907,1.0867,0.9994,0.9607,0.9555,0.8886,0.8559,0.8462,0.7911,0.7665,0.0,0.0,0.0,0.0,0.0,0.0,0.0,0.0,0.7927,0.7921,0.9708,1.0053,0.9932,1.0525,1.1156,1.1704,1.1704,1.2336,1.3405,1.5003,1.6575,0.0,1.8897,1.9738,2.0872,2.2899,2.341,2.3468,2.3321,0.0,0.0,0.0,0.0,0.0,0.0,0.0,0.0,0.0,0.0,0.0,0.0,0.0,0.0,0.0,0.0,0.0,0.0,0.0,0.0,0.0,0.0,0.0,1.6726,1.5085,0.7466,-0.6054,-0.7101,-1.1196,-1.7813,-1.5072,-1.4552,-1.5784,-1.6032,-1.5432,-1.4331,-1.5043,-1.4641,-1.339,-1.2592,-1.2452,-1.2599,-1.2599,-1.2305,-1.2003,0.0,0.0,0.0,0.0,0.0,0.0,0.0,0.0,0.0,0.0,0.0,0.0,0.0,0.0,0.0,0.0,0.0,0.0,0.906,0.9001,0.8968,0.894,0.9032,0.9083,0.9039,0.9971,1.1282,1.2884,1.2758,1.2405,1.1812,1.0813,1.0586,1.1017,1.0273,0.9932,0.9833,0.9108,0.8776,0.8666,0.8064,0.7739,0.0,0.0,0.0,0.0,0.0,0.0,0.0,0.0,0.0,0.0,0.8248,0.9423,1.0584,0.953,1.0382,1.1556,1.1287,1.2556,1.4233,1.5285,0.0,0.0,0.0,2.0616,0.0,0.0,2.402,2.4686,0.0,0.0,0.0,0.0,0.0,0.0,0.0,0.0,0.0,0.0,0.0,0.0,0.0,0.0,0.0,0.0,0.0,0.0,0.0,0.0,0.0,0.0,0.0,0.0,2.0924,1.6554,1.0717,0.3463,-0.1626,-0.8699,-1.7173,-1.6336,-1.5323,-1.4123,-1.4646,-1.3842,-1.2304,-1.2734,-1.282,-1.2666,-1.2372,-1.2305,-1.2305,-1.1929,-1.1335,-1.0663,0.0,0.0,0.0,0.0,0.0,0.0,0.0,0.0,0.0,0.0,0.0,0.0,0.0,0.0,0.0,0.0,0.0,0.0,0.0,0.8968,0.8946,0.8874,0.8807,0.8876,0.9105,0.9403,1.0158,1.141,1.1537,1.1383,1.0905,1.0622,1.0703,1.109,1.0838,1.0565,1.0226,0.9513,0.9178,0.9065,0.8464,0.8137,0.8043,0.0,0.0,0.0,0.0,0.0,0.0,0.0,0.0,0.0,0.793,0.8946,1.0089,0.9644,1.0802,1.2246,1.2305,1.3992,1.5953,1.6821,1.8539,2.0199,2.0836,0.0,0.0,0.0,0.0,0.0,0.0,0.0,0.0,0.0,0.0,0.0,0.0,0.0,0.0,0.0,0.0,0.0,0.0,0.0,0.0,0.0,0.0,0.0,0.0,0.0,0.0,0.0,0.0,0.0,2.3079,1.8284,1.3107,0.7622,0.1828,-0.5108,-1.2862,-1.3769,-1.3363,-1.2071,-1.2269,-1.1668,-1.0673,-1.1121,-1.143,-1.1754,-1.2052,-1.1978,-1.1855,-1.1781,-1.0881,-0.976,0.0,0.0,0.0,0.0,0.0,0.0,0.0,0.0,0.0,0.0,0.8936,0.0,0.0,0.0,0.0,0.0,0.0,0.0,0.0,0.0,0.8835,0.8703,0.8703,0.8961,0.9503,0.9505,0.942,0.9231,0.9891,1.0187,1.0186,1.0743,1.1021,1.1112,1.1467,1.1258,1.0584,0.9913,0.9563,0.9402,0.8857,0.8638,0.8638,0.8687,0.0,0.0,0.0,0.0,0.0,0.0,0.0,0.0,0.8319,0.8595,0.8935,1.0241,1.1784,1.3235,1.3946,1.5839,1.7898,1.8956,1.9882,0.0,2.1573,2.2341,2.3052,2.3752,0.0,0.0,0.0,0.0,0.0,0.0,0.0,0.0,0.0,0.0,0.0,0.0,0.0,0.0,0.0,0.0,0.0,0.0,0.0,0.0,0.0,0.0,0.0,0.0,0.0,0.0,2.4193,2.0388,1.5265,0.0,0.4194,-0.0777,-0.5932,-0.8362,-0.9603,-0.9826,-0.9445,-0.935,-0.9511,-1.0065,-1.0429,-1.0808,-1.1462,-1.1499,-1.1149,-1.189,-1.0783,-0.9074,0.0,0.0,0.0,0.0,0.0,0.0,0.0,0.0,0.0,0.0,0.0,0.0,0.0,0.0,0.0,0.0,0.0,0.0,0.0,0.0,0.8818,0.8783,0.8783,0.8838,0.8969,0.887,0.8769,0.8676,0.9228,0.9437,0.9293,0.9931,1.0522,1.1024,1.1062,1.0726,1.01,0.9372,0.8785,0.8334,0.8199,0.8094,0.799,0.802,0.7826,0.0,0.0,0.0,0.0,0.0,0.0,0.0,0.7794,0.8503,0.9206,0.8641,1.0233,1.2274,1.2759,1.4645,0.0,1.8865,2.0447,2.151,2.1631,2.1796,2.2139,0.0,0.0,0.0,0.0,0.0,0.0,0.0,0.0,0.0,0.0,0.0,0.0,0.0,0.0,0.0,0.0,0.0,0.0,0.0,0.0,0.0,0.0,0.0,0.0,0.0,0.0,2.964,2.8315,2.3822,1.9649,0.0,0.8648,0.3326,-0.0261,-0.4014,-0.6841,-0.8831,-0.875,-0.9141,-0.9866,-0.9389,-0.9742,-1.0533,-1.0678,-1.0775,-1.0803,-1.0948,-1.0046,-0.8775,0.0,0.0,0.0,0.0,0.0,0.0,0.0,0.0,0.0,0.0,0.0,0.0,0.0,0.0,0.0,0.0,0.0,0.0,0.0,0.8748,0.8736,0.8712,0.8672,0.866,0.866,0.8587,0.8513,0.8396,0.8686,0.8877,0.9016,0.9684,1.0315,1.0911,1.0867,1.0492,0.9854,0.9127,0.8632,0.8333,0.8333,0.8318,0.8287,0.8287,0.8034,0.768,0.768,0.0,0.0,0.0,0.0,0.0,0.0,0.0,0.8691,0.8779,1.0139,1.1896,1.3162,0.0,0.0,1.997,0.0,2.1768,2.165,2.1589,2.1749,0.0,0.0,0.0,0.0,0.0,0.0,0.0,0.0,0.0,0.0,0.0,0.0,0.0,0.0,0.0,0.0,0.0,0.0,0.0,0.0,0.0,0.0,0.0,0.0,0.0,2.8661,2.9022,2.8748,2.4241,2.047,1.7468,1.1243,0.6113,0.1975,-0.2491,-0.5408,-0.7046,-0.7386,-0.7639,-0.7792,-0.8139,-0.8606,-0.9229,-0.9571,-0.98,-0.9959,-1.0024,-0.9462,-0.8702,0.0,0.0,0.0,0.0,0.0,0.0,0.0,0.0,0.0,0.0,0.0,0.0,0.0,0.0,0.0,0.0,0.0,0.0,0.0,0.8652,0.864,0.8587,0.8522,0.8497,0.8497,0.8497,0.845,0.8322,0.8309,0.8657,0.935,0.9756,1.0223,1.0718,1.0629,1.0273,0.9713,0.8907,0.8549,0.8533,0.8533,0.8566,0.8582,0.8582,0.8303,0.7883,0.7883,0.7927,0.7942,0.7841,0.0,0.0,0.0,0.0,0.8035,0.922,1.02,1.1398,1.3452,0.0,1.8745,2.1056,2.1698,0.0,2.1573,2.1559,0.0,0.0,0.0,0.0,0.0,0.0,0.0,0.0,0.0,0.0,0.0,0.0,0.0,0.0,0.0,0.0,0.0,0.0,0.0,0.0,0.0,0.0,0.0,0.0,2.7388,2.7036,2.7582,2.7879,2.7799,2.3943,2.0469,1.7465,1.2643,0.7638,0.2583,-0.1444,-0.3959,-0.5262,-0.5943,-0.5947,-0.5672,-0.6728,-0.7352,-0.7702,-0.8374,-0.879,-0.8932,-0.8922,-0.8669,-0.8318,0.0,0.0,0.0,0.0,0.0,0.0,0.0,0.0,0.0,0.0,0.0,0.862,0.8628,0.8575,0.0,0.0,0.0,0.0,0.8522,0.0,0.0,0.851,0.851,0.8501,0.8492,0.8492,0.847,0.8382,0.8338,0.9141,1.0723,1.0054,0.9962,1.0334,0.9942,0.9713,0.956,0.8467,0.7975,0.7916,0.7916,0.7856,0.7751,0.7751,0.7782,0.7812,0.7812,0.7812,0.7827,0.7797,0.7826,0.0,0.0,0.0,0.0,0.8124,0.8789,0.9795,1.1246,0.0,1.87,0.0,2.1317,2.1738,0.0,0.0,0.0,0.0,0.0,0.0,0.0,0.0,0.0,0.0,0.0,0.0,0.0,0.0,0.0,0.0,0.0,0.0,0.0,0.0,0.0,0.0,0.0,0.0,0.0,2.6065,2.6622,2.6679,2.7471,2.7879,2.7799,2.5486,2.2903,1.9924,1.2984,0.7262,0.2843,0.2114,-0.0592,-0.468,-0.5256,-0.58,-0.6248,-0.5866,-0.6075,-0.6683,-0.7424,-0.776,-0.781,-0.7245,-0.7199,-0.7294,0.0,0.0,0.0,0.0,0.0,0.0,0.0,0.0,0.0,0.0,0.0,0.8554,0.8551,0.851,0.0,0.0,0.0,0.0,0.8504,0.8387,0.0,0.8428,0.8377,0.8351,0.8393,0.8353,0.8327,0.8287,0.8261,0.9142,1.0807,1.0426,1.0967,1.2165,1.1226,1.0598,1.0118,0.8796,0.8002,0.7635,0.7545,0.7879,0.8377,0.7817,0.8053,0.8622,0.8019,0.7797,0.7797,0.0,0.7827,0.0,0.0,0.0,0.0,0.0,0.8349,0.9535,1.2376,1.5072,1.7642,0.0,2.0936,2.1196,2.1274,0.0,0.0,0.0,0.0,0.0,0.0,0.0,0.0,0.0,0.0,0.0,0.0,0.0,0.0,0.0,0.0,0.0,0.0,0.0,0.0,0.0,0.0,0.0,2.5037,2.551,2.5851,2.5976,2.6364,2.6357,2.5956,2.4699,2.2278,1.8708,1.3729,0.969,0.6533,0.5315,0.1774,-0.3306,-0.3586,-0.4262,-0.5206,-0.4882,-0.4809,-0.4863,-0.5932,-0.6374,-0.6501,-0.6108,-0.647,-0.6915,0.0,0.0,0.0,0.0,0.0,0.0,0.0,0.0,0.0,0.0,0.0,0.0,0.8447,0.0,0.0,0.0,0.0,0.0,0.8431,0.0,0.0,0.0,0.0,0.8234,0.8274,0.8205,0.8178,0.8178,0.8154,0.9031,1.0758,1.0778,1.1911,1.3908,1.2603,1.1497,1.0593,0.9395,0.8566,0.805,0.7938,0.8437,0.9174,0.877,0.9184,0.9845,0.871,0.8286,0.0,0.0,0.0,0.0,0.0,0.0,0.0,0.0,0.0,0.0,0.0,0.0,1.5873,1.8795,1.9981,2.0492,0.0,0.0,0.0,0.0,0.0,0.0,0.0,0.0,0.0,0.0,0.0,0.0,0.0,0.0,0.0,0.0,0.0,0.0,0.0,0.0,0.0,0.0,0.0,0.0,2.5088,2.5225,2.5331,2.5444,2.5476,2.5254,2.4733,2.3735,2.1227,1.7219,1.4644,1.2219,0.9944,0.7816,0.4131,-0.0585,-0.1253,-0.2127,-0.307,-0.3407,-0.3274,-0.307,-0.4406,-0.52,-0.5522,-0.5071,-0.5631,-0.647,0.0,0.0,0.0,0.0,0.0,0.0,0.0,0.0,0.0,0.0,0.0,0.0,0.8293,0.8243,0.8218,0.8218,0.0,0.0,0.0,0.0,0.0,0.0,0.0,0.0,0.8205,0.815,0.8094,0.8094,0.8041,0.8999,1.0892,1.095,1.2328,1.4677,1.3198,1.1829,1.0578,1.0121,0.9788,0.9581,0.9581,0.9589,0.9709,1.0934,1.1476,1.1416,1.0144,0.0,0.0,0.0,0.0,0.0,0.0,0.0,0.0,0.0,0.0,0.0,0.0,1.149,0.0,1.571,1.7978,0.0,0.0,0.0,0.0,0.0,0.0,0.0,0.0,0.0,0.0,0.0,0.0,0.0,0.0,0.0,0.0,0.0,0.0,0.0,0.0,0.0,0.0,0.0,0.0,0.0,2.4896,2.5103,2.5243,2.5309,2.5429,2.5444,2.5343,2.3487,2.0659,1.6921,1.5674,1.3823,1.1444,0.9187,0.6829,0.439,0.1943,0.0662,0.0199,-0.0865,-0.1332,-0.1532,-0.3004,-0.4342,-0.5276,-0.4074,-0.4487,-0.5593,0.0,0.0,0.0,0.0,0.0,0.0,0.0,0.0,0.0,0.0,0.0,0.0,0.0,0.8164,0.8137,0.8137,0.8094,0.0,0.0,0.0,0.0,0.0,0.0,0.0,0.0,0.804,0.8041,0.8041,0.797,0.8742,1.026,1.0275,1.0972,1.2171,1.2171,1.2112,1.1903,1.0343,0.0,0.0,0.0,1.0513,1.1244,1.1549,1.2161,1.2697,0.0,0.0,0.0,0.0,0.0,0.0,0.0,0.8214,0.7841,0.7841,0.8079,0.0,0.0,0.0,0.0,1.4756,1.6429,0.0,0.0,0.0,0.0,0.0,0.0,0.0,0.0,0.0,0.0,0.0,0.0,0.0,0.0,0.0,0.0,0.0,0.0,0.0,0.0,0.0,0.0,0.0,0.0,0.0,2.4943,2.5057,2.5185,2.5297,2.5428,2.5177,2.4517,2.3043,2.1496,1.9884,1.8885,1.6983,1.4249,1.3192,1.0654,0.703,0.6125,0.3737,0.0531,0.0599,0.0334,-0.0267,-0.1202,-0.2138,-0.2876,-0.2476,-0.2627,-0.3001,0.0,0.0,0.0,0.0,0.0,0.0,0.0,0.0,0.0,0.8139,0.0,0.0,0.0,0.0,0.8068,0.8068,0.8026,0.8012,0.8012,0.7999,0.0,0.0,0.0,0.0,0.0,0.797,0.7956,0.7956,0.7912,0.8454,0.9533,0.9563,0.9973,1.0698,1.0817,1.1416,1.229,0.0,0.0,1.0258,0.0,0.0,1.2365,1.3099,1.3742,0.0,0.0,0.0,0.0,0.0,0.0,0.0,0.0,0.8667,0.7928,0.7928,0.8199,0.0,0.9279,0.0,0.0,0.0,0.0,0.0,0.0,0.0,0.0,0.0,0.0,0.0,0.0,0.0,0.0,0.0,0.0,0.0,0.0,0.0,0.0,0.0,0.0,0.0,0.0,0.0,0.0,0.0,0.0,0.0,2.4892,2.5094,2.5251,2.5361,2.543,2.5049,2.4185,2.3042,2.2237,2.1786,2.0558,1.889,1.6844,1.5605,1.3223,1.0116,0.9564,0.6595,0.2192,0.2333,0.2071,0.1404,0.0535,-0.0401,-0.1272,-0.134,-0.1475,-0.1616,0.0,0.0,0.0,0.0,0.0,0.0,0.0,0.0,0.8,0.8,0.0,0.0,0.0,0.0,0.0,0.8,0.8,0.8,0.8,0.8,0.0,0.0,0.0,0.0,0.8,0.7926,0.7897,0.7897,0.7899,0.8199,0.8779,0.8827,0.9511,1.0584,0.9354,0.981,1.1556,0.0,1.1556,1.166,0.0,1.2707,1.3034,0.0,0.0,0.0,1.5091,1.4355,0.0,1.2396,0.0,0.0,0.0,0.9235,0.8228,0.8212,0.8045,0.0,0.0,0.0,0.0,0.0,0.0,0.0,0.0,0.0,0.0,0.0,0.0,0.0,0.0,0.0,0.0,0.0,0.0,0.0,0.0,0.0,0.0,0.0,0.0,0.0,0.0,0.0,0.0,0.0,0.0,2.4832,2.4707,2.5147,2.5414,2.5483,2.5421,2.5123,2.4525,2.3547,2.2757,2.2211,2.0511,1.948,1.9016,1.6102,1.4399,1.3751,1.2134,0.9254,0.5727,0.4596,0.387,0.3409,0.2143,0.0803,-0.0401,-0.0602,-0.1005,-0.1481,0.0,0.0,0.0,0.0,0.0,0.8,0.8,0.8,0.8,0.0,0.0,0.0,0.7926,0.7927,0.7899,0.7856,0.7856,0.7856,0.7856,0.7856,0.7885,0.7928,0.7928,0.7928,0.7928,0.7899,0.7899,0.7899,0.7899,0.796,0.8079,0.8094,0.8523,0.9233,0.8884,0.9263,1.0118,0.9702,0.0,1.1615,1.1859,1.2789,0.0,0.0,0.0,0.0,0.0,1.6098,1.5871,0.0,1.395,1.2644,0.0,0.0,0.889,0.8291,0.8789,0.0,0.836,0.0,0.0,0.0,0.0,0.0,0.0,0.0,0.0,0.0,0.0,0.0,0.0,0.0,0.0,0.0,0.0,0.0,0.0,0.0,0.0,0.0,0.0,0.0,0.0,0.0,0.0,0.0,2.4775,2.4832,2.4707,2.505,2.529,2.5356,2.543,2.5371,2.5147,2.4441,2.3786,2.3203,2.2046,2.0889,1.9771,1.8714,1.7139,1.5165,1.4039,1.2405,1.0352,0.8294,0.6063,0.3872,0.3816,0.2945,0.1805,0.2007,0.2008,0.1809,0.0,0.0,0.0,0.7957,0.7928,0.7914,0.7914,0.7914,0.7914,0.0,0.0,0.0,0.7855,0.808,0.8124,0.7827,0.7797,0.7797,0.7797,0.7797,0.7827,0.7856,0.7856,0.7856,0.7856,0.7856,0.7856,0.7856,0.7856,0.7841,0.7797,0.7797,0.7975,0.8279,0.8279,0.8468,0.8738,0.8391,0.0,0.0,1.21,0.0,0.0,1.5565,1.6367,0.0,0.0,0.0,1.7165,1.6774,1.5626,0.0,0.0,0.0,0.0,0.0,0.0,0.0,0.0,0.0,0.0,0.0,0.0,0.0,0.0,0.0,0.0,0.0,0.0,0.0,0.0,0.0,0.0,0.0,0.0,0.0,0.0,0.0,0.0,0.0,0.0,0.0,0.0,0.0,0.0,0.0,2.4828,2.4968,2.4955,2.5107,2.5244,2.5332,2.5449,2.548,2.5443,2.482,2.4317,2.395,2.2916,2.1898,2.0951,2.0182,1.8914,1.7329,1.6535,1.5233,1.3565,1.2167,0.9714,0.6759,0.5959,0.5117,0.432,0.3611,0.3351,0.3284,0.0,0.0,0.7885,0.7885,0.7901,0.7901,0.7901,0.7901,0.7931,0.0,0.8005,0.8005,0.8005,0.8417,0.852,0.8049,0.7872,0.7827,0.7901,0.7827,0.7783,0.7797,0.7797,0.7797,0.7797,0.7797,0.7797,0.7797,0.7797,0.7783,0.7783,0.7783,0.7753,0.7694,0.7694,0.7665,0.7605,0.7749,0.0,1.0647,1.2454,1.3736,0.0,0.0,1.7361,0.0,1.8318,1.8287,1.7891,1.79,1.6758,0.0,0.0,0.0,0.0,0.0,1.0961,0.0,0.0,0.0,0.0,0.0,0.0,0.0,1.3843,1.3504,0.0,0.0,0.0,0.0,0.0,0.0,0.0,0.0,0.0,0.0,0.0,0.0,0.0,0.0,0.0,0.0,0.0,0.0,2.4545,2.4676,2.4942,2.5124,2.5241,2.5234,2.527,2.5375,2.5467,2.5515,2.5504,2.4903,2.4571,2.4488,2.3376,2.2653,2.228,2.0967,2.0213,1.9847,1.9151,1.7757,1.5934,1.5924,1.3961,1.0726,0.8419,0.7421,0.7039,0.4791,0.3946,0.388,0.0,0.7827,0.7827,0.7827,0.8211,0.8535,0.8535,0.8535,0.871,0.9254,0.9328,0.9328,0.9328,0.896,0.884,0.9219,0.831,0.7944,0.8486,0.8017,0.7739,0.7797,0.7797,0.7797,0.7797,0.7797,0.7797,0.7797,0.7797,0.7768,0.7724,0.7724,0.7679,0.762,0.762,0.762,0.7662,0.0,0.0,1.0531,1.0994,0.0,1.5197,1.5698,1.6814,1.8159,1.8381,1.8711,1.9028,0.0,1.7693,1.6363,0.0,0.0,0.0,0.0,0.0,1.2827,1.2144,0.0,0.0,0.0,0.0,0.0,0.0,1.1514,0.0,0.0,0.0,0.0,0.0,0.0,0.0,0.0,0.0,0.0,0.0,0.0,0.0,0.0,0.0,0.0,0.0,0.0,2.4459,2.4528,2.479,2.4949,2.4981,2.5213,2.5323,2.5236,2.5519,2.5601,2.5506,2.5363,2.5033,2.4502,2.3985,2.3454,2.2906,2.2409,2.1978,2.1523,2.0276,1.959,1.9242,1.8158,1.5426,1.1874,1.078,1.0299,0.9987,0.7827,0.695,0.662,0.7812,0.7797,0.7886,0.8196,0.8504,0.8794,0.9102,0.9143,0.9391,1.003,1.0395,1.0371,0.9728,0.9621,0.9475,0.9139,0.8526,0.8145,0.8144,0.7839,0.7665,0.7694,0.7694,0.7694,0.7694,0.7694,0.7694,0.7694,0.7694,0.7679,0.765,0.765,0.781,0.8085,0.775,0.7793,0.8128,0.0,0.9159,1.016,1.1482,0.0,1.5792,1.6174,1.733,1.8695,1.8804,1.9097,1.9221,1.8145,1.7696,0.0,0.0,1.5411,1.5614,0.0,1.4225,1.4686,0.0,0.0,0.0,1.3178,0.0,0.0,0.0,0.0,0.0,0.0,0.0,0.0,0.0,0.0,0.0,0.0,0.0,0.0,0.0,0.0,0.0,0.0,0.0,0.0,0.0,2.378,2.4013,2.4648,2.476,2.4818,2.4902,2.5088,2.5194,2.5202,2.5431,2.5564,2.5605,2.5522,2.5325,2.4983,2.4492,2.3984,2.3533,2.3099,2.2702,2.2324,2.1297,2.074,2.0481,1.9417,1.7675,1.5404,1.366,1.2949,1.2601,1.0019,0.8995,0.867,0.7768,0.7783,0.7931,0.8414,0.8704,0.9037,0.9519,0.9705,0.9986,1.0604,1.1227,1.1307,1.0427,1.0633,1.0525,0.9715,0.9177,0.8712,0.8321,0.7963,0.7763,0.7793,0.7662,0.7648,0.7793,0.7662,0.7605,0.7605,0.7605,0.7605,0.7605,0.7605,0.788,0.8391,0.7967,0.8099,0.0,0.0,0.0,1.0326,0.0,1.4181,1.5763,1.6663,1.7772,1.8877,1.9236,1.9376,1.9199,1.7779,0.0,1.8069,1.608,1.649,0.0,0.0,0.0,0.0,0.0,0.0,0.0,0.0,0.0,1.3494,0.0,0.0,0.0,1.3365,0.0,0.0,0.0,0.0,0.0,0.0,0.0,0.0,0.0,0.0,0.0,0.0,0.0,0.0,0.0,2.2506,2.2949,2.4298,2.4157,2.4195,2.4655,2.4903,2.5091,2.5224,2.536,2.5504,2.5707,2.5589,2.5529,2.5499,2.4884,2.4445,2.4141,2.3533,2.3163,2.2908,2.2169,2.1577,2.1101,2.0576,1.9984,1.9172,1.6588,1.5507,1.4978,1.2145,1.0967,1.0497,0.7694,0.7709,0.7709,0.7722,0.8711,0.9511,0.9584,1.0044,1.0639,1.13,1.1808,1.2345,1.2914,1.2398,1.2384,1.3329,0.0,0.0,1.0745,0.0,0.8362,0.8493,0.7909,0.788,0.8479,0.7895,0.7605,0.7605,0.7605,0.7605,0.7605,0.7605,0.7633,0.7736,0.8244,0.0,0.0,0.0,1.0421,0.0,1.2386,1.299,0.0,1.5647,1.6928,1.7922,1.92,1.9545,1.9332,0.0,1.8938,1.8981,0.0,1.7864,0.0,0.0,0.0,0.0,0.0,0.0,0.0,0.0,1.6048,0.0,0.0,0.0,1.3195,1.1449,0.0,0.0,0.0,0.0,0.0,0.0,0.0,0.0,0.0,0.0,0.0,0.0,0.0,0.0,0.0,0.0,2.0658,2.2468,2.1922,2.2193,2.3746,2.4689,2.5232,2.5369,2.5444,2.5553,2.5707,2.5681,2.5625,2.5499,2.5118,2.49,2.479,2.4169,2.389,2.3803,2.2835,2.238,2.2303,2.2269,2.1903,2.1109,1.9258,1.8001,1.7058,1.5015,1.365,1.2506,0.7635,0.765,0.7766,0.8114,0.8617,0.922,0.9995,1.1574,1.2506,1.1981,1.3118,1.3911,0.0,0.0,0.0,0.0,0.0,1.1508,0.0,0.0,0.9404,0.9191,0.8535,0.83,0.8525,0.7921,0.7589,0.753,0.7589,0.7605,0.7605,0.7605,0.8011,0.8752,0.8653,0.0,1.0253,0.0,1.0247,0.0,0.0,0.0,0.0,1.5825,1.7573,1.8787,1.9445,1.9782,1.9708,0.0,1.878,0.0,0.0,0.0,0.0,0.0,0.0,0.0,0.0,0.0,0.0,0.0,0.0,0.0,0.0,0.0,1.333,0.0,0.0,0.0,0.0,0.0,0.0,0.0,0.0,0.0,0.0,0.0,0.0,0.0,0.0,0.0,0.0,0.0,0.0,0.0,0.0,2.0985,2.2849,2.3838,2.4387,2.4532,2.5117,2.5485,2.5577,2.5661,2.5648,2.5561,2.5383,2.5167,2.4941,2.4576,2.4346,2.4192,2.3454,2.2981,2.2726,2.2556,2.2149,2.1569,2.1046,2.0174,1.9086,1.7781,1.6435,1.5003,0.7545,0.0,0.7764,0.8244,0.8426,0.9011,1.0469,1.2374,1.3383,1.272,1.3941,0.0,1.437,1.4493,0.0,0.0,1.3793,1.3025,0.0,0.0,1.0591,1.0255,0.9354,0.0,0.0,0.8251,0.7763,0.753,0.7575,0.7605,0.7605,0.7605,0.8112,0.9043,0.9086,0.9918,1.1198,0.0,1.0929,1.1878,1.2716,1.3638,1.4728,1.6784,1.8435,1.9675,1.9854,2.003,2.0005,1.8934,1.8915,0.0,1.9004,0.0,0.0,0.0,0.0,0.0,1.7536,0.0,0.0,0.0,0.0,0.0,0.0,0.0,0.0,0.0,0.0,0.0,0.0,0.0,0.0,0.0,0.0,0.0,0.0,0.0,0.0,0.0,0.0,0.0,0.0,0.0,0.0,0.0,0.0,0.0,2.1646,2.2785,2.3561,2.4009,2.4909,2.5424,2.5558,2.5643,2.5672,2.5636,2.5552,2.5381,2.5138,2.4898,2.4672,2.4482,2.4025,2.3627,2.324,2.2982,2.2522,2.2006,2.2394,2.1983,2.1069,1.9991,1.8712,1.7235,0.7438,0.7499,0.0,0.7619,0.8172,0.918,1.0911,1.1584,1.2317,1.3599,0.0,0.0,0.0,0.0,0.0,0.0,0.0,1.4896,1.4319,0.0,1.1841,1.1813,1.0391,0.9768,0.0,0.0,0.8244,0.7605,0.7605,0.7605,0.7605,0.7605,0.7619,0.7735,0.9619,1.0473,1.0604,1.1792,1.3426,1.511,1.4824,1.6352,1.8781,0.0,1.9085,2.0041,2.0357,0.0,0.0,1.9894,1.9872,0.0,0.0,0.0,0.0,0.0,0.0,0.0,0.0,0.0,0.0,1.6082,0.0,0.0,0.0,0.0,1.5216,0.0,0.0,0.0,0.0,0.0,0.0,1.2496,0.0,0.0,0.0,0.0,0.0,0.0,0.0,0.0,0.0,0.0,0.0,0.0,0.0,0.0,1.9973,2.1608,2.2996,2.4255,2.4948,2.542,2.5685,2.5707,2.5702,2.5705,2.5636,2.5566,2.5467,2.5148,2.4924,2.478,2.4498,2.428,2.4155,2.4137,2.3637,2.2898,2.3319,2.3368,2.2996,2.1449,2.0127,1.8961,0.0,0.0,0.0,0.0,0.0,0.8931,1.0736,1.2592,1.3889,0.0,0.0,0.0,0.0,1.6692,1.6844,0.0,0.0,1.617,1.5119,1.4153,0.0,0.0,0.0,1.1183,0.0,0.0,0.918,0.8073,0.8194,0.8041,0.7605,0.7605,0.7837,0.8302,0.0,1.0596,0.0,0.0,0.0,0.0,0.0,1.7808,1.9661,0.0,0.0,2.0289,2.0376,2.0579,0.0,2.0446,2.032,2.0345,2.0695,2.0373,1.9899,2.0202,2.0047,0.0,0.0,0.0,1.9365,1.7238,0.0,0.0,0.0,0.0,0.0,0.0,0.0,0.0,0.0,0.0,0.0,1.3143,0.0,0.0,0.0,0.0,0.0,0.0,0.0,0.0,0.0,0.0,0.0,0.0,0.0,0.0,0.0,2.0833,2.2202,2.3203,2.4154,2.4878,2.5426,2.56,2.5679,2.5623,2.5668,2.5605,2.5492,2.5297,2.5168,2.5124,2.4898,2.4704,2.4529,2.4484,2.419,2.3735,2.3512,2.3606,2.3752,2.3085,2.209,2.0751,0.865,0.0,0.0,0.0,0.0,0.9584,1.0983,0.0,0.0,0.0,1.5744,0.0,1.697,0.0,1.7322,0.0,1.7429,1.7009,1.582,1.5359,0.0,1.4939,1.3638,0.0,0.0,1.1626,1.0362,0.0,0.0,0.841,0.756,0.7589,0.7837,0.8288,0.0,1.0712,1.2178,0.0,1.4672,0.0,0.0,1.9165,0.0,0.0,2.0545,2.0545,0.0,2.0761,2.0958,2.0811,2.0735,2.0801,2.1256,2.0918,2.0461,2.0867,2.0669,2.0256,1.9965,2.0127,0.0,1.8227,1.7798,0.0,1.564,0.0,0.0,0.0,0.0,0.0,0.0,0.0,0.0,1.4347,1.3254,0.0,0.0,0.0,0.0,0.0,0.0,0.0,0.0,0.0,1.3515,1.5221,0.0,0.0,0.0,0.0,2.1421,2.2326,2.3585,2.4471,2.4929,2.5401,2.564,2.5642,2.5662,2.562,2.558,2.5428,2.5356,2.5318,2.5165,2.5018,2.4866,2.4831,2.4655,2.4331,2.3895,2.3999,2.4343,2.3951,2.3191,2.1971,0.0,0.0,0.0,0.0,1.0178,0.0,0.0,0.0,1.4517,0.0,1.5765,1.6376,1.6973,1.7041,1.7271,1.7828,1.7882,0.0,1.6445,1.634,0.0,0.0,1.505,1.4412,1.3665,1.3107,0.0,0.0,0.0,0.0,0.7542,0.7574,0.7605,0.7692,0.9604,0.0,1.1686,1.4209,1.6039,1.7461,1.9301,2.0339,2.0794,2.0794,2.0794,2.0794,2.0794,2.0794,2.0827,2.1038,2.1103,2.1087,2.1039,2.1293,2.1559,2.1388,2.1309,2.1256,2.0924,2.0611,2.0107,1.9059,0.0,0.0,0.0,0.0,1.8765,0.0,0.0,0.0,0.0,0.0,0.0,0.0,0.0,0.0,0.0,0.0,0.0,0.0,0.0,0.0,0.0,0.0,1.152,1.4184,1.3802,0.0,0.0,0.0,2.0634,2.1662,2.3287,2.4173,2.428,2.5096,2.5556,2.5683,2.5622,2.5623,2.5687,2.5561,2.5466,2.542,2.5335,2.5265,2.5203,2.5203,2.4998,2.4695,2.4417,2.4561,2.4815,2.4113,2.35,2.279,1.0192,1.0973,1.1797,0.0,1.1468,1.1246,0.0,0.0,0.0,0.0,1.639,1.7,1.7583,1.7651,1.7719,1.7868,1.7882,0.0,0.0,0.0,0.0,1.7254,1.6273,1.5632,1.5447,1.409,0.0,1.1055,0.0,0.0,0.8168,0.7728,0.7605,0.7812,0.0,0.0,1.1998,1.402,1.6263,1.8609,2.0035,2.0561,0.0,0.0,2.0794,2.0794,2.0794,2.0794,2.0794,2.086,2.099,2.1119,2.1214,2.1419,2.1603,2.1648,2.1678,2.1658,2.1566,2.147,2.1226,2.0456,1.9867,1.9218,0.0,0.0,0.0,0.0,0.0,0.0,0.0,0.0,0.0,0.0,0.0,0.0,0.0,0.0,0.0,0.0,0.0,0.0,0.0,0.0,1.2401,1.2617,0.0,0.0,0.0,0.0,0.0,2.1486,2.2593,2.3501,2.4225,2.5059,2.5523,2.5556,2.5587,2.5618,2.5625,2.5648,2.5616,2.5547,2.5486,2.5406,2.5352,2.5302,2.5163,2.4968,2.4691,2.4724,2.491,2.4859,2.4849,2.4618,1.1498,0.0,0.0,1.4217,0.0,0.0,1.3849,0.0,0.0,1.5996,1.6634,0.0,1.7461,1.7719,1.7882,1.7882,1.8069,0.0,1.7879,0.0,0.0,1.7852,1.7388,1.7042,1.678,1.5563,0.0,1.2406,0.0,0.0,0.839,0.7862,0.7635,0.0,0.0,1.0377,1.1889,1.4748,1.7103,1.9037,2.0164,0.0,0.0,2.0761,2.0794,2.0794,2.0794,2.0794,2.0794,2.0794,2.086,2.099,2.1151,2.1325,2.1511,2.1648,2.1768,2.1797,2.1797,2.1797,2.1728,2.1342,2.0943,2.0445,1.9751,1.997,2.019,0.0,0.0,0.0,0.0,0.0,0.0,0.0,0.0,0.0,0.0,0.0,0.0,0.0,0.0,0.0,0.0,0.0,0.0,0.0,0.0,0.0,0.0,0.0,0.0,2.0271,2.1534,2.2626,2.3535,2.4416,2.5062,2.5493,2.5532,2.5574,2.5597,2.5644,2.5655,2.5648,2.5542,2.5486,2.5441,2.5398,2.5313,2.5179,2.4962,2.4965,2.5147,2.5549,2.5565,2.5261,0.0,0.0,0.0,0.0,0.0,0.0,0.0,1.5308,0.0,1.6145,0.0,1.7122,1.7122,1.7649,1.8003,1.8003,0.0,1.8327,1.7939,1.8204,1.8275,1.7925,1.8232,1.8184,1.7726,1.6951,0.0,0.0,0.0,1.0186,0.8567,0.8045,0.0,0.0,0.0,0.0,0.0,1.604,1.8286,1.9186,2.0097,2.0579,2.0794,2.0794,2.0794,2.0794,2.0794,2.0794,2.0794,2.0794,2.0794,2.0827,2.1023,2.1199,2.1325,2.1528,2.1694,2.1797,2.1797,2.1797,2.1797,2.1797,2.1797,2.1661,2.1043,2.0938,2.0966,2.1005,2.0585,2.0555,0.0,0.0,0.0,0.0,0.0,0.0,0.0,0.0,0.0,0.0,0.0,0.0,0.0,0.0,0.0,0.0,0.0,0.0,0.0,0.0,0.0,1.8752,2.0459,0.0,2.2671,0.0,2.4475,2.5444,2.5459,2.551,2.5577,2.5595,2.5625,2.5677,2.5574,2.5521,2.551,2.5498,2.5429,2.5283,2.5157,2.5181,2.5356,2.6145,2.5982,2.5394,0.0,0.0,0.0,0.0,0.0,1.7468,1.7937,1.6838,1.6172,1.6756,1.7366,1.7719,1.7719,1.8145,1.8397,1.8397,1.8475,0.0,0.0,0.0,0.0,1.8359,1.8159,1.8094,1.8345,1.6705,1.5398,0.0,1.1928,1.0298,0.9544,0.8407,0.8243,0.0,0.0,0.0,1.4837,1.741,0.0,1.972,2.046,2.0761,2.0794,2.0794,2.0794,2.0794,2.0794,2.0794,2.0794,2.0794,2.0794,2.0827,2.1023,2.1135,2.1199,2.1528,2.162,2.1664,2.1768,2.1797,2.1797,2.1797,2.1797,2.1764,2.1661,2.1687,2.1699,2.1728,2.1747,2.1479,2.0488,0.0,0.0,0.0,0.0,0.0,0.0,0.0,0.0,0.0,0.0,0.0,0.0,0.0,0.0,0.0,0.0,0.0,0.0,0.0,0.0,0.0,0.0,0.0,0.0,0.0,2.434,2.5166,2.5346,2.5425,2.5428,2.5551,2.5605,2.5615,2.5657,2.5619,2.5585,2.551,2.5418,2.5293,2.5214,2.5156,2.5248,2.6205,2.6399,2.6249,0.0,0.0,0.0,0.0,0.0,0.0,0.0,1.8339,0.0,1.7636,1.7702,1.7744,1.7744,1.8215,1.85,1.85,1.8884,1.9109,1.9109,1.8936,1.8822,1.8822,1.8822,0.0,1.8822,1.7605,1.6589,1.5795,1.3182,1.1329,1.0186,0.9055,0.8697,0.9078,0.0,1.3092,0.0,0.0,0.0,1.9672,2.0477,2.0794,2.0794,2.0794,2.0794,2.0794,2.0794,2.0794,2.0794,2.0794,2.0794,2.0827,2.0893,2.1038,2.1135,2.1294,2.145,2.1603,2.1694,2.1738,2.1797,2.1797,2.1797,2.1797,2.1797,2.1811,2.184,2.184,2.1945,2.1625,2.0211,1.8826,0.0,0.0,0.0,0.0,0.0,0.0,0.0,0.0,0.0,0.0,0.0,0.0,0.0,0.0,0.0,0.0,0.0,0.0,0.0,0.0,0.0,0.0,0.0,0.0,0.0,2.5088,2.5205,2.5311,2.541,2.5465,2.5535,2.5598,2.5625,2.5654,2.5645,2.5537,2.5413,2.5293,2.5255,2.5201,2.5247,2.6541,2.6767,2.6512,0.0,1.9477,0.0,0.0,2.0381,0.0,2.0255,1.9983,1.9442,1.8491,1.8114,1.793,1.793,1.8408,1.8769,1.8769,1.9347,1.969,1.969,1.9617,1.9472,1.925,1.9384,1.9384,1.925,1.852,1.7787,0.0,0.0,1.2756,1.1154,1.0218,0.9876,0.0,0.0,0.0,0.0,0.0,1.9092,1.9747,2.0508,2.0794,2.0794,2.0794,2.0794,2.0794,2.0794,2.0794,2.0794,2.0794,2.0794,2.0794,2.0794,2.0893,2.1023,2.1103,2.1294,2.1528,2.1589,2.1664,2.1768,2.1781,2.1797,2.1797,2.1797,2.1797,2.1797,2.1797,2.184,2.1535,2.0272,1.9375,0.0,0.0,0.0,0.0,0.0,0.0,0.0,0.0,0.0,0.0,0.0,0.0,0.0,0.0,0.0,0.0,1.2344,1.3644,0.0,0.0,0.0,1.9642,2.1983,0.0,2.3228,0.0,2.5138,2.5234,2.5382,2.5391,2.5459,2.5574,2.5593,2.5644,2.5683,2.5561,2.5441,2.5346,2.5346,2.5255,2.5332,2.6885,2.7151,2.6763,0.0,0.0,0.0,0.0,0.0,0.0,2.2063,2.201,2.1288,1.9272,1.8962,1.8977,1.8977,1.9354,1.9603,1.9603,1.9654,1.969,1.969,1.9362,1.931,1.9654,1.8959,1.8921,1.9654,1.8657,1.7954,0.0,0.0,0.0,0.0,0.0,0.0,0.0,0.0,0.0,0.0,1.9326,2.0067,2.0667,2.0763,2.0794,2.0794,2.0794,2.0794,2.0794,2.0794,2.0794,2.0794,2.0794,2.0794,2.0794,2.0794,2.0827,2.086,2.1071,2.1135,2.123,2.1528,2.162,2.1634,2.1768,2.1797,2.1797,2.1797,2.1797,2.1797,2.1797,2.184,2.1563,2.0391,2.1059,2.0762,0.0,0.0,0.0,0.0,0.0,0.0,0.0,0.0,0.0,0.0,0.0,0.0,0.0,0.0,0.0,0.0,1.3402,1.4642,1.7138,0.0,1.9374,2.1033,2.2049,0.0,2.5096,2.5233,2.5284,2.5303,2.5379,2.5439,2.5505,2.5577,2.5643,2.5685,2.5613,2.5547,2.5486,2.5486,2.5391,2.5476,2.7079,2.7521,2.7447,0.0,0.0,0.0,0.0,0.0,0.0,0.0,2.2548,2.1972,2.1122,2.0818,2.0665,2.0665,2.0437,2.031,2.031,2.0131,2.0045,2.0045,1.9904,1.9797,1.969,1.9639,1.9639,1.969,1.9277,1.8852,0.0,0.0,0.0,0.0,0.0,0.0,0.0,0.0,1.7987,1.9388,1.9672,2.0194,2.0794,2.0794,2.0794,2.0794,2.0794,2.0794,2.0794,2.0794,2.0794,2.0794,2.0794,2.0794,2.0794,2.0794,2.0794,2.0827,2.0893,2.1006,2.1135,2.1262,2.145,2.1603,2.1664,2.1738,2.1797,2.1797,2.1797,2.1797,2.1797,2.184,2.1773,2.1356,2.0675,2.0001,0.0,0.0,0.0,0.0,0.0,0.0,0.0,0.0,0.0,0.0,0.0,0.0,0.0,0.0,0.0,0.0,1.2732,0.0,1.5644,0.0,1.9239,2.0947,2.1891,2.3277,2.5096,2.516,2.5233,2.5303,2.534,2.5398,2.5506,2.557,2.5619,2.5641,2.5644,2.5598,2.5504,2.5504,2.5432,2.5495,2.7102,2.7625,2.7709,2.2447,0.0,2.2747,0.0,2.3194,2.304,2.3517,2.3179,2.2886,2.2886,2.2635,2.2309,2.1931,2.1462,2.119,2.119,2.0803,2.0597,2.0597,2.0412,2.0166,1.9904,2.0045,0.0,1.9869,1.9762,1.9592,1.9397,1.8611,0.0,0.0,0.0,0.0,0.0,1.7961,1.8901,2.0099,2.0099,2.0368,2.0794,2.0794,2.0794,2.0794,2.0794,2.0794,2.0794,2.0794,2.0794,2.0794,2.0794,2.0794,2.0794,2.0794,2.0794,2.0794,2.0794,2.0893,2.1023,2.1119,2.1325,2.1559,2.1634,2.1738,2.1797,2.1797,2.1797,2.1797,2.1797,2.184,2.1832,2.1685,2.0435,1.9605,2.0111,0.0,0.0,0.0,0.0,0.0,0.0,0.0,1.3856,0.0,0.0,0.0,0.0,0.0,0.0,0.0,0.0,0.0,0.0,0.0,0.0,0.0,2.2098,2.3487,2.5096,2.5149,2.5222,2.5303,2.5313,2.5376,2.5473,2.5541,2.5576,2.5619,2.5664,2.5627,2.5535,2.5556,2.5486,2.5548,2.718,2.7692,2.784,2.3163,2.3286,2.3502,2.4179,2.4287,2.4287,2.4302,2.4287,2.4287,2.4287,2.4287,2.3779,2.244,2.2286,2.227,2.227,2.1655,2.1306,2.1306,2.0674,2.0304,0.0,0.0,1.9904,2.027,1.9904,1.9904,2.0289,0.0,0.0,1.8176,0.0,1.8095,1.9563,1.9563,2.0035,2.0778,2.0778,2.0778,2.0794,2.0794,2.0794,2.0794,2.0794,2.0794,2.0794,2.0794,2.0794,2.0794,2.0794,2.0794,2.0794,2.0794,2.0794,2.0794,2.0794,2.0794,2.0893,2.1214,2.1309,2.1371,2.1691,2.1797,2.1797,2.1797,2.1797,2.1797,2.1797,2.1797,2.1624,2.1005,2.0883,2.0217,1.8154,0.0,0.0,0.0,0.0,0.0,0.0,1.4057,1.3067,1.3459,0.0,0.0,0.0,0.0,0.0,0.0,0.0,0.0,1.8242,1.9214,0.0,2.0889,2.2821,2.4213,2.5096,2.5233,2.5303,2.5303,2.5361,2.5412,2.5394,2.5467,2.554,2.5613,2.5676,2.5659,2.5605,2.5675,2.5609,2.5686,2.7311,2.7817,2.7892,2.384,2.3953,2.4056,2.4271,2.4302,2.4302,2.4302,2.4302,2.4302,2.4302,2.4302,2.4148,2.3717,2.3255,2.2978,0.0,2.2363,2.1963,0.0,2.1763,2.1639,2.1639,2.1084,2.0839,2.0998,2.0395,2.0166,2.0304,0.0,0.0,0.0,1.9507,1.9663,2.0149,2.02,2.0424,2.0744,2.0761,2.0794,2.0794,2.0794,2.0794,2.0794,2.0794,2.0794,2.0794,2.0794,2.0794,2.0794,2.0794,2.0794,2.0794,2.0794,2.0794,2.0794,2.0794,2.0794,2.0827,2.0925,2.1119,2.1325,2.1433,2.1648,2.1797,2.1797,2.1797,2.1797,2.1797,2.1797,2.1744,2.1628,2.0805,1.9956,1.9328,1.8733,0.0,0.0,0.0,0.0,0.0,0.0,1.4744,0.0,1.4012,0.0,0.0,0.0,0.0,0.0,0.0,0.0,0.0,1.9072,0.0,2.0966,2.272,2.4094,2.5096,2.5149,2.5203,2.5313,2.5367,2.5426,2.5464,2.5543,2.5586,2.5609,2.5676,2.5658,2.5605,2.562,2.5585,2.5686,2.7312,2.7813,2.7917,2.4124,2.4208,2.4276,2.4276,2.4261,2.4302,2.4302,2.4302,2.4302,2.4302,2.4302,2.4302,2.4302,2.3933,0.0,2.3686,2.3055,2.2671,2.2671,2.2424,2.2286,2.2286,2.1886,2.1692,2.1692,0.0,0.0,2.069,2.0478,2.0388,2.0388,2.0423,2.0441,2.0441,2.046,2.0577,2.0693,2.0744,2.0777,2.0794,2.0794,2.0794,2.0794,2.0794,2.0794,2.0794,2.0794,2.0794,2.0794,2.0794,2.0794,2.0794,2.0794,2.0794,2.0794,2.0794,2.0794,2.0827,2.0893,2.1071,2.1262,2.1388,2.1573,2.1738,2.1797,2.1797,2.1797,2.1797,2.1797,2.1744,2.152,2.0626,1.9824,1.953,1.8802,1.817,1.7932,0.0,0.0,0.0,0.0,0.0,0.0,1.5461,0.0,0.0,0.0,0.0,0.0,0.0,0.0,1.7581,1.99,0.0,2.1891,2.3214,2.4247,2.4981,2.503,2.516,2.5313,2.533,2.5401,2.5468,2.5518,2.559,2.5604,2.5671,2.5673,2.5643,2.5634,2.5593,2.574,2.7372,2.7885,2.8015,2.3982,2.4155,0.0,0.0,2.428,0.0,2.4379,2.4379,2.4394,2.4441,2.441,2.4379,2.4379,2.4333,2.4302,2.4302,0.0,0.0,0.0,2.2778,2.2424,2.2424,2.2378,2.2363,2.2363,2.2317,2.1978,2.1347,2.0802,2.0528,2.0562,2.0615,2.0634,2.0634,2.0668,2.0717,2.0834,2.0868,2.0886,2.0936,2.0936,2.0936,2.0936,2.0936,2.0936,2.0936,2.0889,2.0873,2.0857,2.081,2.0794,2.0794,2.0794,2.0794,2.0794,2.0827,2.0827,2.086,2.1055,2.1087,2.1199,2.1528,2.162,2.165,2.1768,2.1797,2.1797,2.1797,2.1797,2.1611,2.0988,2.0456,1.983,1.9007,1.8681,1.8428,1.8153,0.0,0.0,0.0,0.0,0.0,0.0,1.6712,1.714,0.0,0.0,0.0,0.0,0.0,1.7166,2.051,2.1498,2.2423,2.3371,2.4129,2.4617,2.4823,2.4962,2.513,2.5303,2.5293,2.535,2.5395,2.5476,2.5538,2.561,2.5665,2.5703,2.5709,2.5703,2.5654,2.582,2.7483,2.8022,2.8133,0.0,0.0,2.482,2.43,2.4664,2.5072,2.5072,2.5072,2.5272,2.5826,2.541,2.5072,2.5072,2.4625,2.4302,2.4302,2.4148,2.4071,2.4071,2.3917,2.3825,2.3825,2.3332,2.3055,2.3055,2.2548,2.2209,2.2055,2.1923,2.1898,2.2024,2.2009,2.203,2.2103,2.2227,2.2263,2.2315,2.237,2.239,2.239,2.239,2.239,2.239,2.239,2.239,2.2327,2.1821,2.1632,2.1553,2.0984,2.0794,2.0794,2.0794,2.0794,2.0827,2.099,2.1023,2.1055,2.1214,2.1246,2.1325,2.1559,2.1664,2.1768,2.1781,2.1797,2.1797,2.1797,2.1797,2.1731,2.1595,2.0767,2.0033,1.983,1.9199,1.8639,1.8428,1.8404,0.0,0.0,1.7825,1.7719,1.6475,1.7702,1.7848,0.0,0.0,0.0,0.0,1.7915,1.8961,2.0565,2.1981,2.293,2.3307,2.4166,2.4734,2.5025,2.5157,2.5262,2.5313,2.5348,2.5371,2.5414,2.5512,2.5587,2.5615,2.5662,2.5701,2.5705,2.5702,2.5689,2.5869,2.7498,2.8027,2.8125,2.4612,2.5062,2.5348,2.4984,2.53,2.5618,2.5707,2.5707,2.5889,2.6318,2.6041,2.581,2.581,2.5456,2.5226,2.5226,2.4656,2.4302,2.4302,2.4302,2.4302,2.4302,2.3948,2.3763,2.3763,2.3394,2.3055,2.2748,2.2463,2.2384,2.2437,2.2549,2.2586,2.2623,2.275,2.2802,2.2802,2.2823,2.2859,2.288,2.288,2.288,2.288,2.288,2.288,2.2833,2.2469,2.2343,2.2232,2.1537,2.1284,2.1205,2.0905,2.0794,2.0827,2.1023,2.1103,2.1135,2.1199,2.1246,2.1356,2.1559,2.1694,2.1811,2.1928,2.1869,2.184,2.2061,2.1945,2.184,2.1911,2.0991,2.0174,2.0125,1.9391,1.8807,1.8657,1.8732,0.0,1.8182,1.886,1.9039,1.8267,1.9397,1.9501,1.7832,0.0,0.0,1.852,1.9652,2.058,2.1121,2.2353,2.3268,2.3838,2.4385,2.4779,2.5063,2.513,2.5209,2.5293,2.534,2.5374,2.5395,2.5485,2.5549,2.5604,2.5642,2.5664,2.5696,2.5703,2.5694,2.5859,2.7086,2.7743,2.8152,2.5615,2.5798,2.5937,2.5831,2.6,2.6214,2.6337,2.6337,2.6397,2.6581,2.658,2.6534,2.6534,2.6411,2.6334,2.6334,2.5287,2.4579,2.4471,2.4364,2.4302,2.4302,2.4302,2.4302,2.4302,2.4302,2.4025,2.3456,2.2933,2.2678,2.2716,2.2867,2.2958,2.2936,2.3064,2.3101,2.3117,2.3117,2.3175,2.3233,2.3233,2.3233,2.3233,2.3233,2.3233,2.318,2.3085,2.3038,2.2943,2.228,2.2027,2.1869,2.1173,2.0968,2.097,2.1038,2.1071,2.1087,2.1167,2.1277,2.1402,2.1559,2.1694,2.184,2.2039,2.194,2.1945,2.2388,2.2147,2.1899,2.2068,2.1148,2.0312,2.0174,1.9436,1.8896,1.8861,0.0,1.8932,1.9199,1.9705,2.0153,2.0391,2.1078,2.1224,2.0535,2.0534,2.0604,0.0,2.1493,2.1986,2.2002,2.2776,2.3602,2.4476,2.4654,2.4818,2.4993,2.5025,2.5122,2.5292,2.5293,2.5331,2.539,2.5406,2.5454,2.5574,2.558,2.5627,2.5681,2.5703,2.5702,2.579,2.6605,2.7402,2.8204,2.5615,2.6159,2.6479,2.5922,2.6378,2.6898,2.7024,2.7024,2.7286,2.7963,2.7596,2.7242,2.7242,2.6718,2.638,2.638,2.618,2.581,2.521,2.4625,2.4302,2.4302,2.4302,2.4302,2.4302,2.4302,2.4256,2.4148,2.404,2.4076,2.4172,2.4213,2.4293,2.4453,2.4469,2.4532,2.465,2.465,2.465,2.4689,2.4689,2.4689,2.4689,2.4689,2.4689,2.461,2.397,2.3749,2.3654,2.2959,2.2722,2.2596,2.1932,2.1726,2.16,2.1017,2.0974,2.1167,2.1466,2.1634,2.1708,2.1603,2.1694,2.184,2.2039,2.194,2.1945,2.2388,2.2243,2.2068,2.2096,2.1233,2.0506,2.0373,1.9538,1.8948,1.9036,0.0,1.9254,1.9811,2.0083,2.0444,2.092,2.1291,2.146,2.1316,2.1316,2.1371,2.1514,2.2283,2.2812,2.2982,2.3658,2.4155,2.4407,2.4712,2.4902,2.4993,2.5118,2.5209,2.5311,2.5292,2.5312,2.5313,2.5382,2.541,2.5446,2.5546,2.56,2.5612,2.5676,2.5702,2.58,2.6597,2.7413,2.8213,2.6774,2.7015,2.7135,2.6931,2.7176,2.747,2.7583,2.7679,2.7883,2.8365,2.8134,2.7934,2.7934,2.7657,2.7473,2.7473,2.7149,2.6795,2.6457,2.5795,2.5256,2.4872,2.4856,2.4687,2.4317,2.4302,2.4302,2.4302,2.4302,2.4317,2.44,2.4457,2.4539,2.462,2.4742,2.4822,2.4902,2.4982,2.5005,2.5005,2.5005,2.5005,2.5005,2.5005,2.5005,2.4958,2.484,2.4652,2.442,2.393,2.3617,2.3322,2.2643,2.2293,2.2013,2.1542,2.1309,2.1262,2.1528,2.1694,2.1797,2.1708,2.1768,2.1869,2.2243,2.2113,2.2084,2.2561,2.248,2.2271,2.2124,2.1576,2.1125,2.1004,2.0082,0.0,0.0,1.965,1.9759,2.0119,2.1005,2.1692,2.1938,2.2413,2.2564,2.2167,2.2132,2.2171,2.2245,2.2648,2.3125,2.3658,2.41,2.4338,2.4389,2.467,2.4851,2.4947,2.513,2.5209,2.5252,2.5282,2.5302,2.5313,2.534,2.5365,2.5395,2.5473,2.5532,2.5597,2.5622,2.5675,2.574,2.6113,2.7064,2.8203,2.774,2.7675,2.7675,2.779,2.7825,2.786,2.8005,2.8137,2.8235,2.8396,2.8411,2.8411,2.8411,2.8411,2.8411,2.8411,2.7934,2.7626,2.7626,2.7149,2.6472,2.5595,2.5564,2.5241,2.4564,2.4548,2.4471,2.4302,2.4302,2.4302,2.4302,2.44,2.4457,2.4498,2.4661,2.4742,2.4822,2.4902,2.4966,2.5005,2.5005,2.5005,2.5005,2.5005,2.5045,2.513,2.5406,2.5368,2.5205,2.494,2.4652,2.4265,2.3615,2.3181,2.2865,2.2517,2.2086,2.1691,2.1667,2.1768,2.184,2.1869,2.184,2.1915,2.2388,2.2298,2.2237,2.2773,2.2712,2.2525,2.2309,2.1893,2.1589,2.1556,0.0,0.0,0.0,2.0388,2.0497,2.0807,2.1948,2.2781,2.2944,2.3469,2.356,2.2998,2.2946,2.2968,2.2989,2.3084,2.3415,2.4075,2.4266,2.4355,2.4355,2.4545,2.4719,2.4847,2.505,2.5145,2.5201,2.5252,2.5292,2.5303,2.5303,2.5331,2.5382,2.5406,2.549,2.5582,2.5606,2.5646,2.5698,2.5698,2.6621,2.7897,2.7625,2.7725,2.779,2.779,2.789,2.8054,2.8137,2.8186,2.8235,2.8396,2.8411,2.8411,2.8411,2.8411,2.8411,2.8411,2.835,2.8334,2.8334,2.8288,2.7673,2.6364,2.6303,2.598,2.5256,2.5241,2.4933,2.4302,2.4302,2.4302,2.4302,2.4302,2.4359,2.4498,2.4498,2.462,2.4782,2.4822,2.4902,2.5005,2.5005,2.5005,2.5005,2.5005,2.5208,2.5465,2.5503,2.5726,2.6016,2.6002,2.595,2.5818,2.5159,2.491,2.4762,2.405,2.3448,2.2822,2.2082,2.194,2.1998,2.2068,2.194,2.1915,2.2388,2.2298,2.2292,2.2935,2.2919,2.2764,2.2747,2.2107,2.1638,2.1753,0.0,0.0,2.1153,2.1213,2.154,2.2417,2.2636,2.298,2.365,2.3759,2.3777,2.3723,2.3705,2.3764,2.3806,2.3826,2.3903,2.4094,2.4171,2.4209,2.4209,2.4356,2.4526,2.4723,2.4847,2.5006,2.5198,2.5201,2.5252,2.5292,2.5293,2.5293,2.5313,2.5439,2.5504,2.5521,2.5645,2.5707,2.5709,2.5709,2.6249,2.7004,2.7725,2.7675,2.774,2.7905,2.8005,2.8088,2.8186,2.8284,2.8348,2.8411,2.8411,2.8411,2.8411,2.8411,2.8411,2.8411,2.8411,2.8411,2.8411,2.8411,2.7996,2.7057,2.6611,2.6257,2.598,2.598,2.5857,2.5595,2.5564,2.5349,2.4933,2.4933,2.4718,2.4359,2.4457,2.458,2.4686,2.5013,2.5246,2.5346,2.5594,2.5519,2.5307,2.5307,2.5269,2.5246,2.5705,2.5799,2.5799,2.6315,2.6315,2.6054,2.5789,2.5563,2.5211,2.4519,2.3809,2.3245,2.2958,2.2569,2.226,2.2343,2.2186,2.2113,2.2561,2.2508,2.2453,2.2825,2.2944,2.2919,2.2659,2.2574,2.2516,2.2416,0.0,2.1527,2.1768,2.1875,2.2088,2.2533,2.3048,2.3487,2.3759,2.3795,2.3795,2.3795,2.3795,2.3816,2.3837,2.3876,2.3958,2.4094,2.4113,2.4209,2.4321,2.4572,2.4741,2.4837,2.5006,2.5137,2.5198,2.5198,2.5231,2.5292,2.5302,2.5293,2.5293,2.5348,2.5395,2.5446,2.5537,2.5601,2.5645,2.5681,2.6242,2.6953,2.774,2.7675,2.774,2.7955,2.8088,2.8186,2.8235,2.8348,2.8411,2.8411,2.8411,2.8411,2.8411,2.8411,2.8411,2.8411,2.8411,2.8411,2.8411,2.8411,2.8196,2.7734,2.7272,2.6919,2.6703,2.6703,2.6595,2.638,2.6349,2.6103,2.5656,2.5799,2.5637,2.5186,2.5434,2.5475,2.546,2.6005,2.6221,2.6166,2.6619,2.6673,2.6395,2.6395,2.6205,2.5951,2.6435,2.6393,2.6139,2.6691,2.6691,2.647,2.647,2.6286,2.5939,2.5203,2.4624,2.4159,2.3739,2.3288,2.286,2.262,2.2398,2.2326,2.2721,2.2685,2.2659,2.285,2.3003,2.302,2.2738,2.2868,2.2995,2.2919,2.2534,2.2306,2.247,2.2589,2.2722,2.2865,2.3425,2.3795,2.3795,2.3795,2.3795,2.3795,2.3795,2.3795,2.3795,2.3858,2.3937,2.4074,2.4134,2.4229,2.4389,2.4636,2.4799,2.4902,2.5044,2.5137,2.5195,2.5206,2.5228,2.5271,2.5282,2.5302,2.5303,2.5322,2.5357,2.5403,2.5498,2.5552,2.5605,2.5679,2.6082,2.6595,2.7625,2.7725,2.784,2.7955,2.8088,2.8235,2.8396,2.8411,2.8411,2.8411,2.8411,2.8411,2.8411,2.8411,2.8411,2.8411,2.8411,2.8411,2.8411,2.8411,2.8411,2.8411,2.8411,2.8088,2.7411,2.7411,2.7072,2.6411,2.6411,2.6395,2.644,2.6907,2.7105,2.7132,2.7591,2.7591,2.7227,2.7858,2.7882,2.7583,2.8157,2.8405,2.8405,2.8405,2.8142,2.7791,2.7809,2.7589,2.7299,2.7299,2.7299,2.7299,2.7299,2.7299,2.7144,2.635,2.6109,2.5781,2.4303,2.4004,2.3858,2.2945,2.2605,2.2569,2.2764,2.2816,2.2868,2.307,2.3095,2.3095,2.3095,2.2944,2.2868,2.307,2.2927,2.2919,2.3241,2.3407,2.3562,2.3678,2.375,2.3795,2.3795,2.3795,2.3795,2.3795,2.3795,2.3795,2.3795,2.3858,2.3917,2.3996,2.4192,2.4336,2.4389,2.4407,2.4572,2.4902,2.4902,2.5,2.5191,2.5195,2.5187,2.5198,2.5271,2.5311,2.5302,2.5365,2.5406,2.5403,2.5542,2.5601,2.5605,2.5679,2.5709,2.5694,2.774,2.784,2.7955,2.8005,2.8088,2.8186,2.8235,2.8348,2.8411,2.8411,2.8411,2.8411,2.8411,2.8411,2.8411,2.8411,2.8411,2.8411,2.8411,2.8411,2.8411,2.8411,2.8411,2.8319,2.8104,2.8104,2.7996,2.7796,2.7796,2.7721,2.7585,2.7747,2.7737,2.7607,2.7729,2.7753,2.7721,2.8235,2.8427,2.8481,2.8979,2.9016,2.8814,2.8814,2.8589,2.8193,2.7889,2.7759,2.7606,2.739,2.7299,2.7299,2.7299,2.7299,2.7247,2.7006,2.654,2.6006,2.554,2.4728,2.3796,2.3085,2.2816,2.2764,2.2952,2.2893,2.2868,2.307,2.3095,2.3095,2.3095,2.3045,2.3045,2.3095,2.3045,2.3045,2.3144,2.3265,2.3407,2.3522,2.3678,2.3768,2.3795,2.3795,2.3795,2.3795,2.3795,2.3795,2.3795,2.3816,2.3876,2.3917,2.4019,2.4173,2.4336,2.4601,2.4799,2.4902,2.5044,2.5137,2.5191,2.5203,2.5195,2.5198,2.5228,2.5261,2.5292,2.5313,2.5341,2.535,2.5425,2.5492,2.5537,2.5605,2.5654,2.5709,2.779,2.7855,2.7955,2.8054,2.8137,2.8235,2.8284,2.8348,2.8411,2.8411,2.8411,2.8411,2.8411,2.8411,2.8411,2.8411,2.8411,2.8411,2.8411,2.8411,2.8411,2.8411,2.8573,2.8573,2.8396,2.8411,2.8411,2.8411,2.8411,2.8451,2.8503,2.8694,2.886,2.8927,2.9185,2.9168,2.9072,2.9563,2.9732,2.9694,3.0208,3.0297,3.0116,3.0116,2.9782,2.9259,2.9036,2.8749,2.8408,2.7906,2.754,2.7299,2.7299,2.7299,2.7299,2.7299,2.6954,2.6506,2.6195,2.5466,2.4653,2.3989,2.3345,2.2919,2.307,2.302,2.2952,2.3052,2.3095,2.3095,2.3095,2.3095,2.3095,2.3095,2.3095,2.3095,2.3095,2.3217,2.3336,2.3407,2.3589,2.3721,2.375,2.3774,2.3795,2.3795,2.3795,2.3795,2.3795,2.3795,2.3858,2.3998,2.4057,2.421,2.4425,2.4685,2.4847,2.4902,2.5013,2.5125,2.5191,2.5191,2.5203,2.5195,2.5206,2.5209,2.5261,2.5282,2.5302,2.5303,2.5374,2.5418,2.5473,2.5576,2.5636,2.5657,2.7971,2.8022,2.8072,2.832,2.8419,2.8419,2.8532,2.8535,2.8488,2.8488,2.8442,2.8411,2.8411,2.8458,2.8488,2.8488,2.8488,2.8473,2.8411,2.8444,2.8444,2.8411,2.8873,2.8951,2.8493,2.8444,2.8444,2.8444,2.8396,2.8653,2.9166,2.9657,3.0175,3.0666,3.1252,3.1252,3.0885,3.1372,3.1355,3.0993,3.1562,3.18,3.18,3.18,3.1369,3.0782,3.0713,3.0231,2.9489,2.8678,2.7954,2.7385,2.7316,2.7299,2.7299,2.7299,2.7299,2.7144,2.6419,2.6191,2.6026,2.5351,2.418,2.3195,2.3193,2.3147,2.3095,2.3095,2.3095,2.3095,2.3095,2.3095,2.3095,2.3095,2.3095,2.3095,2.3095,2.3217,2.3289,2.3289,2.3522,2.3678,2.37,2.375,2.3795,2.3795,2.3795,2.3795,2.3795,2.3795,2.3899,2.4078,2.421,2.4375,2.4582,2.4645,2.4749,2.4888,2.4902,2.5,2.5168,2.5191,2.5191,2.5191,2.5195,2.5206,2.5198,2.5271,2.5292,2.5302,2.5376,2.5387,2.543,2.5542,2.5598,2.5609,2.9516,2.9605,2.9709,2.976,2.9863,2.9879,2.9812,2.9469,2.9196,2.9196,2.8735,2.8411,2.8411,2.8873,2.9196,2.9196,2.9196,2.8965,2.8442,2.8748,2.8779,2.8396,2.9182,2.9438,2.8951,2.8951,2.8951,2.8951,2.8573,2.8842,2.9661,2.9793,3.0293,3.1162,3.1295,3.1368,3.1368,3.1521,3.1524,3.1487,3.1709,3.18,3.18,3.18,3.1696,3.1489,3.0903,3.0575,3.0231,2.8851,2.8282,2.8058,2.7471,2.7299,2.7299,2.7299,2.7299,2.7247,2.7092,2.6575,2.6105,2.5992,2.5333,2.4592,2.4086,2.3508,2.3095,2.3095,2.3095,2.3095,2.3095,2.3095,2.3095,2.3095,2.3095,2.3095,2.3095,2.3144,2.3193,2.3289,2.343,2.3567,2.3678,2.375,2.3795,2.3795,2.3795,2.3795,2.3795,2.3795,2.3816,2.3858,2.4039,2.421,2.4357,2.4549,2.466,2.4734,2.4847,2.4915,2.4974,2.5125,2.5191,2.5191,2.5203,2.5195,2.5198,2.5231,2.5252,2.5292,2.5322,2.5348,2.5403,2.5492,2.5552,2.5609,2.9955,3.0046,3.0151,3.0256,3.036,3.0376,3.0308,3.0068,2.9904,2.9904,2.9581,2.9366,2.9366,2.9689,2.9904,2.9904,2.9904,2.9836,2.9746,2.9942,3.0133,3.0133,3.0797,3.1067,3.0826,3.0457,2.9984,2.9438,2.8967,2.9212,3.014,2.9951,3.036,3.1295,3.1411,3.1466,3.1559,3.1634,3.1709,3.1709,3.1746,3.18,3.18,3.18,3.18,3.1748,3.1351,3.0989,3.0575,2.9765,2.923,2.8799,2.8058,2.7816,2.7747,2.7402,2.7299,2.7299,2.7299,2.6988,2.6678,2.6709,2.6212,2.5431,2.4444,2.3928,2.3558,2.319,2.3095,2.3095,2.3095,2.3095,2.3095,2.3095,2.3095,2.3095,2.3095,2.3095,2.3144,2.3193,2.3313,2.3476,2.3678,2.375,2.3795,2.3795,2.3795,2.3795,2.3795,2.3795,2.3837,2.3937,2.4135,2.432,2.4444,2.461,2.4704,2.4749,2.4847,2.4942,2.5044,2.5156,2.5191,2.5191,2.5191,2.5203,2.5195,2.5198,2.5231,2.5252,2.5302,2.5313,2.5357,2.5425,2.5515,2.5609,3.025,3.0342,3.0396,3.0661,3.0714,3.0766,3.0766,3.0658,3.0582,3.0582,3.0489,3.0428,3.0428,3.052,3.0582,3.0582,3.0634,3.0829,3.1176,3.1356,3.163,3.1962,3.2512,3.2779,3.2691,3.2197,3.1318,3.012,2.9502,2.9645,3.0477,3.0149,3.0468,3.1295,3.1504,3.1579,3.1617,3.1746,3.18,3.18,3.18,3.18,3.18,3.18,3.18,3.18,3.18,3.1403,3.0869,3.0731,3.0248,2.9575,2.8816,2.8506,2.8282,2.7661,2.7385,2.7299,2.7299,2.7299,2.7299,2.7299,2.6861,2.6103,2.4853,2.441,2.4102,2.3453,2.3207,2.3095,2.3095,2.3095,2.3095,2.3095,2.3095,2.3095,2.3095,2.3095,2.3095,2.3095,2.3217,2.3407,2.3678,2.375,2.3774,2.3795,2.3795,2.3795,2.3795,2.3795,2.3876,2.4036,2.4284,2.4424,2.4556,2.4731,2.4804,2.4851,2.4921,2.5019,2.5156,2.518,2.5191,2.5191,2.5191,2.5191,2.5191,2.5206,2.5209,2.5212,2.5282,2.5302,2.5313,2.5374,2.5486,2.5605,3.1528,3.1682,3.1779,3.1931,3.2026,3.2136,3.2136,3.1628,3.1259,3.1259,3.0766,3.0428,3.0428,3.092,3.1259,3.1259,3.1717,3.1757,3.1207,3.1992,3.2377,3.2008,3.284,3.3117,3.2735,3.3017,3.2571,3.1351,3.0233,2.9968,3.0518,3.0418,3.0747,3.1295,3.1445,3.1538,3.1617,3.1746,3.18,3.18,3.18,3.18,3.18,3.18,3.18,3.18,3.18,3.1731,3.1541,3.0903,3.0627,3.0386,2.961,2.892,2.8385,2.8282,2.7799,2.7299,2.7299,2.7299,2.7299,2.7299,2.7276,2.7009,2.6208,2.5063,2.42,2.4155,2.3576,2.3095,2.3095,2.3095,2.3095,2.3095,2.3095,2.3095,2.3095,2.3095,2.3095,2.3095,2.3217,2.3407,2.3678,2.3721,2.3747,2.3795,2.3795,2.3795,2.3795,2.3795,2.3816,2.3837,2.4154,2.4356,2.4424,2.467,2.4884,2.5057,2.507,2.5025,2.4961,2.5125,2.5191,2.5191,2.5191,2.5191,2.5191,2.5206,2.5198,2.5198,2.5271,2.5292,2.5312,2.5374,2.5486,2.5601,3.1727,3.1841,3.194,3.2135,3.2247,3.2287,3.2398,3.2136,3.1951,3.1951,3.1705,3.152,3.152,3.1782,3.1951,3.1951,3.2152,3.2437,3.2734,3.3194,3.3623,3.401,3.4404,3.4536,3.4343,3.4132,3.376,3.3235,3.2006,3.1643,3.2102,3.1416,3.1383,3.1828,3.1555,3.1445,3.1576,3.1634,3.1746,3.18,3.18,3.18,3.18,3.18,3.18,3.18,3.18,3.18,3.1748,3.142,3.13,3.1179,3.0403,2.9937,2.9506,2.8644,2.8161,2.7816,2.7402,2.7299,2.7299,2.7299,2.733,2.7289,2.7031,2.615,2.5177,2.4453,2.404,2.3628,2.319,2.3095,2.3095,2.3095,2.3095,2.3095,2.3095,2.3095,2.3095,2.3095,2.3217,2.3383,2.3567,2.3656,2.3725,2.3795,2.3795,2.3795,2.3795,2.3795,2.3795,2.3795,2.4037,2.4191,2.4229,2.4543,2.4764,2.4865,2.5031,2.5082,2.5069,2.5168,2.5191,2.5191,2.5191,2.5191,2.5191,2.5203,2.5195,2.5198,2.5239,2.5261,2.5302,2.5374,2.5439,2.5498]}]]